﻿ProjectID	SampleID	SampleType	TaxonomyID	UniqCodeType	UniqCode	SampleName	ScientificName	CommonName	CollectionYear	CollectionMonth	CollectionDay	SamplingTimeStartEnd	SamplingTimeAMPM	SamplingDuration	WeatherStartEnd	CollectionRegion	CollectionCountry	CollectionArea	CollectionLatitudeFrom	CollectionLatitudeTo	CollectionLongitudeFrom	CollectionLongitudeTo	Sex	TissueOrgan	TissueLipid	TissueMoist	Weight	WeightUnit	Length	LengthUnit	LengthType	GrowthStage	Age	Disease	TemperatureStartEnd	WaterTemperatureStartEnd	pH	DO	EC	EC_temp	Salinity	SS	WaterDepthM	TransparencyM	WaterColor	SedimentTemperatureStartEnd	SedimentDepthM	SedimentAppearance	SedimentColor	SedimentSurfaceColor	SedimentOdor	SedimentImpurities	SedimentMoistureOnSiteAnalysis	IgnitionLossOnSiteAnalysis	SoilDepthM	FlowRate	MeanPM10	MeanTotalSuspendedParticles	HumidityStartEnd	WindDirectionStartEnd	WindSpeedMSStartEnd	AmountOfCollectedAirStartEnd	Remarks	RegisterDate	UpdateDate
PRA000007	SAA000304	ST003	34880	es-BANK	ET00442		"Nyctereutes procyonoides"	"Raccoon dog"	2001	1	18					Asia	Japan	Kanagawa	35.31583333	35.53805833	139.1144417	139.6652778	Male	Liver	3.1																																							2016/9/30	2016/10/5
PRA000007	SAA000305	ST003	34880	es-BANK	ET00443		"Nyctereutes procyonoides"	"Raccoon dog"	2001	1	24					Asia	Japan	Kanagawa	35.31583333	35.53805833	139.1144417	139.6652778	Male	Liver	3.6																																							2016/9/30	2016/10/5
PRA000007	SAA000306	ST003	34880	es-BANK	ET00765		"Nyctereutes procyonoides"	"Raccoon dog"	2001	2	6					Asia	Japan	Kanagawa	35.31583333	35.53805833	139.1144417	139.6652778	Female	Liver	2.6																																							2016/9/30	2016/10/5
PRA000007	SAA000307	ST003	34880	es-BANK	ET00444		"Nyctereutes procyonoides"	"Raccoon dog"	2001	2	7					Asia	Japan	Kanagawa	35.31583333	35.53805833	139.1144417	139.6652778	Female	Liver	4.2																																							2016/9/30	2016/10/5
PRA000007	SAA000308	ST003	34880	es-BANK	ET00446		"Nyctereutes procyonoides"	"Raccoon dog"	2001	3	21					Asia	Japan	Kanagawa	35.31583333	35.53805833	139.1144417	139.6652778	Male	Liver	3.9																																							2016/9/30	2016/10/5
PRA000007	SAA000309	ST003	34880	es-BANK	ET00448		"Nyctereutes procyonoides"	"Raccoon dog"	2001	4	10					Asia	Japan	Kanagawa	35.31583333	35.53805833	139.1144417	139.6652778	Male	Liver	3.4																																							2016/9/30	2016/10/5
PRA000007	SAA000310	ST003	34880	es-BANK	ET00451		"Nyctereutes procyonoides"	"Raccoon dog"	2001	8	22					Asia	Japan	Kanagawa	35.31583333	35.53805833	139.1144417	139.6652778	Female	Liver	2.8																																							2016/9/30	2016/10/5
PRA000007	SAA000311	ST003	34880	es-BANK	ET00454		"Nyctereutes procyonoides"	"Raccoon dog"	2001	9	19					Asia	Japan	Kanagawa	35.31583333	35.53805833	139.1144417	139.6652778	Male	Liver	3.5																																							2016/9/30	2016/10/5
PRA000007	SAA000312	ST003	34880	es-BANK	ET00455		"Nyctereutes procyonoides"	"Raccoon dog"	2001	10	29					Asia	Japan	Kanagawa	35.31583333	35.53805833	139.1144417	139.6652778	Female	Liver	3.1																																							2016/9/30	2016/10/5
PRA000007	SAA000313	ST003	34880	es-BANK	ET00458		"Nyctereutes procyonoides"	"Raccoon dog"	2001	11	15					Asia	Japan	Kanagawa	35.31583333	35.53805833	139.1144417	139.6652778	Female	Liver	3																																							2016/9/30	2016/10/5
PRA000007	SAA000314	ST003	34880	es-BANK	ET00442		"Nyctereutes procyonoides"	"Raccoon dog"	2001	1	18					Asia	Japan	Kanagawa	35.31583333	35.53805833	139.1144417	139.6652778	Male	Muscle	1.9																																							2016/9/30	2016/10/5
PRA000007	SAA000315	ST003	34880	es-BANK	ET00443		"Nyctereutes procyonoides"	"Raccoon dog"	2001	1	24					Asia	Japan	Kanagawa	35.31583333	35.53805833	139.1144417	139.6652778	Male	Muscle	0.94																																							2016/9/30	2016/10/5
PRA000007	SAA000316	ST003	34880	es-BANK	ET00765		"Nyctereutes procyonoides"	"Raccoon dog"	2001	2	6					Asia	Japan	Kanagawa	35.31583333	35.53805833	139.1144417	139.6652778	Female	Muscle	1.1																																							2016/9/30	2016/10/5
PRA000007	SAA000317	ST003	34880	es-BANK	ET00444		"Nyctereutes procyonoides"	"Raccoon dog"	2001	2	7					Asia	Japan	Kanagawa	35.31583333	35.53805833	139.1144417	139.6652778	Female	Muscle	3																																							2016/9/30	2016/10/5
PRA000007	SAA000318	ST003	34880	es-BANK	ET00446		"Nyctereutes procyonoides"	"Raccoon dog"	2001	3	21					Asia	Japan	Kanagawa	35.31583333	35.53805833	139.1144417	139.6652778	Male	Muscle	4.7																																							2016/9/30	2016/10/5
PRA000007	SAA000319	ST003	34880	es-BANK	ET00448		"Nyctereutes procyonoides"	"Raccoon dog"	2001	4	10					Asia	Japan	Kanagawa	35.31583333	35.53805833	139.1144417	139.6652778	Male	Muscle	1.1																																							2016/9/30	2016/10/5
PRA000007	SAA000320	ST003	34880	es-BANK	ET00451		"Nyctereutes procyonoides"	"Raccoon dog"	2001	8	22					Asia	Japan	Kanagawa	35.31583333	35.53805833	139.1144417	139.6652778	Female	Muscle	7.55																																							2016/9/30	2016/10/5
PRA000007	SAA000321	ST003	34880	es-BANK	ET00454		"Nyctereutes procyonoides"	"Raccoon dog"	2001	9	19					Asia	Japan	Kanagawa	35.31583333	35.53805833	139.1144417	139.6652778	Male	Muscle	0.94																																							2016/9/30	2016/10/5
PRA000007	SAA000322	ST003	34880	es-BANK	ET00455		"Nyctereutes procyonoides"	"Raccoon dog"	2001	10	29					Asia	Japan	Kanagawa	35.31583333	35.53805833	139.1144417	139.6652778	Female	Muscle	8.42																																							2016/9/30	2016/10/5
PRA000007	SAA000323	ST003	34880	es-BANK	ET00458		"Nyctereutes procyonoides"	"Raccoon dog"	2001	11	15					Asia	Japan	Kanagawa	35.31583333	35.53805833	139.1144417	139.6652778	Female	Muscle	4.85																																							2016/9/30	2016/10/5
PRA000008	SAA000324	ST003	34880	es-BANK	ET00656	E-2	"Nyctereutes procyonoides"	"Raccoon dog"	2000	12	26					Asia	Japan	Ehime	33.88141111	34.01356111	133.39135	133.6865194	Male	Liver	3.39																																							2016/10/5	2016/10/11
PRA000008	SAA000325	ST003	34880	es-BANK	"ET00659 "	E-5	"Nyctereutes procyonoides"	"Raccoon dog"	2001	2	21					Asia	Japan	Ehime	33.83600556	33.86477222	133.3492389	133.4008778	Male	Liver	3.45																																							2016/10/5	2016/10/11
PRA000008	SAA000326	ST003	34880	es-BANK	ET00661	E-7	"Nyctereutes procyonoides"	"Raccoon dog"	2001	3	10					Asia	Japan	Ehime	33.75333333	33.98555833	132.9744417	133.2908333	Female	Liver	4.26																																							2016/10/5	2016/10/11
PRA000008	SAA000327	ST003	34880	es-BANK	ET00666	E-12	"Nyctereutes procyonoides"	"Raccoon dog"	2001	3	16					Asia	Japan	Ehime	33.75333333	33.98555833	132.9744417	133.2908333	Male	Liver	4.98																																							2016/10/5	2016/10/11
PRA000008	SAA000328	ST003	34880	es-BANK	"ET00667 "	E-13	"Nyctereutes procyonoides"	"Raccoon dog"	2001	3	16					Asia	Japan	Ehime	33.75333333	33.98555833	132.9744417	133.2908333	Female	Liver	4.22																																							2016/10/5	2016/10/11
PRA000008	SAA000329	ST003	34880	es-BANK	"ET00668 "	E-14	"Nyctereutes procyonoides"	"Raccoon dog"	2001	3	16					Asia	Japan	Ehime	33.83600556	33.86477222	133.3492389	133.4008778	Female	Liver	3.64																																							2016/10/5	2016/10/11
PRA000008	SAA000330	ST003	34880	es-BANK	"ET00669 "	E-15	"Nyctereutes procyonoides"	"Raccoon dog"	2000	12	2					Asia	Japan	Ehime	33.82055556	33.85694444	132.8847222	132.9741667	Female	Liver	3.39		2.7	kg																																				2016/10/5	2016/10/11
PRA000008	SAA000331	ST003	34880	es-BANK	"ET00670 "	E-16	"Nyctereutes procyonoides"	"Raccoon dog"	2001	2	25					Asia	Japan	Ehime	33.68444167	33.75722222	132.9105556	133.2069444	Male	Liver	3.58		2.1	kg																																				2016/10/5	2016/10/11
PRA000008	SAA000332	ST003	34880	es-BANK	"ET00671 "	E-17	"Nyctereutes procyonoides"	"Raccoon dog"	2001	2	26					Asia	Japan	Ehime	33.83600556	33.86477222	133.3492389	133.4008778	Male	Liver	3.56																																							2016/10/5	2016/10/11
PRA000008	SAA000333	ST003	34880	es-BANK	ET00673	E-19	"Nyctereutes procyonoides"	"Raccoon dog"	2001	2	27					Asia	Japan	Ehime	33.75333333	33.98555833	132.9744417	133.2908333	Female	Liver	4.65																																							2016/10/5	2016/10/11
PRA000008	SAA000334	ST003	34880	es-BANK	"ET00674 "	E-20	"Nyctereutes procyonoides"	"Raccoon dog"	2001	3	17					Asia	Japan	Ehime	33.75333333	33.98555833	132.9744417	133.2908333	Male	Liver	2.56																																							2016/10/5	2016/10/11
PRA000008	SAA000335	ST003	34880	es-BANK	ET00675	E-21	"Nyctereutes procyonoides"	"Raccoon dog"	2001	3	18					Asia	Japan	Ehime	33.75333333	33.98555833	132.9744417	133.2908333	Male	Liver	3.65																																							2016/10/5	2016/10/11
PRA000008	SAA000336	ST003	34880	es-BANK	ET00678	E-24	"Nyctereutes procyonoides"	"Raccoon dog"	2001	1	18					Asia	Japan	Ehime	33.33055556	33.42916667	132.4830556	132.6438889	Female	Liver	4.08																																							2016/10/5	2016/10/11
PRA000008	SAA000337	ST003	34880	es-BANK	ET00679	E-25	"Nyctereutes procyonoides"	"Raccoon dog"	2002	2	7					Asia	Japan	Ehime	33.68444167	33.75722222	132.9105556	133.2069444	Female	Liver	3.66																																							2016/10/5	2016/10/11
PRA000008	SAA000338	ST003	34880	es-BANK	ET00680	E-26	"Nyctereutes procyonoides"	"Raccoon dog"	2002	2						Asia	Japan	Ehime	33.68444167	33.75722222	132.9105556	133.2069444	Male	Liver	5																																							2016/10/5	2016/10/11
PRA000008	SAA000339	ST003	34880	es-BANK	ET00681	E-27	"Nyctereutes procyonoides"	"Raccoon dog"	2002	3	12					Asia	Japan	Ehime	33.59805556	33.70472222	132.8675	133.0338889	Male	Liver	5.06																																							2016/10/5	2016/10/11
PRA000008	SAA000340	ST003	34880	es-BANK	ET00682	E-28	"Nyctereutes procyonoides"	"Raccoon dog"	2002	3	14					Asia	Japan	Ehime	33.83600556	33.86477222	133.3492389	133.4008778	Male	Liver	3.55																																							2016/10/5	2016/10/11
PRA000008	SAA000341	ST003	34880	es-BANK	ET00683	E-29	"Nyctereutes procyonoides"	"Raccoon dog"	2002	4	25					Asia	Japan	Ehime	33.84333333	33.94944444	133.2388889	133.3538889	Male	Liver	4.18																																							2016/10/5	2016/10/11
PRA000008	SAA000342	ST003	34880	es-BANK	ET00685	E-31	"Nyctereutes procyonoides"	"Raccoon dog"	2001	12	23					Asia	Japan	Ehime	33.05083333	33.33611111	132.2252778	132.6852778	Female	Liver	4.06		3.65	kg																																				2016/10/5	2016/10/11
PRA000008	SAA000343	ST003	34880	es-BANK	"ET00686 "	E-32	"Nyctereutes procyonoides"	"Raccoon dog"	2003	11	7					Asia	Japan	Ehime	33.75333333	33.98555833	132.9744417	133.2908333	Male	Liver	4.19																																							2016/10/5	2016/10/11
PRA000008	SAA000344	ST003	34880	es-BANK	"ET00687 "	E-33	"Nyctereutes procyonoides"	"Raccoon dog"	2003	11	7					Asia	Japan	Ehime	33.75333333	33.98555833	132.9744417	133.2908333	Female	Liver	4.02																																							2016/10/5	2016/10/11
PRA000008	SAA000345	ST003	34880	es-BANK	ET00489	O-1	"Nyctereutes procyonoides"	"Raccoon dog"	2004	10	8					Asia	Japan	Osaka	34.305	34.97166667	135.135	135.7883333	Male	Liver	5.75		3	kg																																				2016/10/5	2016/10/11
PRA000008	SAA000346	ST003	34880	es-BANK	"ET00501 "	O-2	"Nyctereutes procyonoides"	"Raccoon dog"	2004	10	13					Asia	Japan	Osaka	34.305	34.97166667	135.135	135.7883333	Male	Liver	3.11		3.5	kg																																				2016/10/5	2016/10/11
PRA000008	SAA000347	ST003	34880	es-BANK	"ET00502 "	O-3	"Nyctereutes procyonoides"	"Raccoon dog"	2004	10	13					Asia	Japan	Osaka	34.305	34.97166667	135.135	135.7883333	Female	Liver	2.8		2.8	kg																																				2016/10/5	2016/10/11
PRA000008	SAA000348	ST003	34880	es-BANK	ET00503	O-4	"Nyctereutes procyonoides"	"Raccoon dog"	2004							Asia	Japan	Osaka	34.305	34.97166667	135.135	135.7883333	Male	Liver	3.17		3.6	kg																																				2016/10/5	2016/10/11
PRA000008	SAA000349	ST003	34880	es-BANK	ET00504	O-5	"Nyctereutes procyonoides"	"Raccoon dog"	2004							Asia	Japan	Osaka	34.305	34.97166667	135.135	135.7883333	Male	Liver	3.93		4.5	kg				Matured																																2016/10/5	2016/10/11
PRA000008	SAA000350	ST003	34880	es-BANK	"ET00723 "	O-6	"Nyctereutes procyonoides"	"Raccoon dog"	2005							Asia	Japan	Osaka	34.305	34.97166667	135.135	135.7883333	Female	Liver	5.51		4.98	kg				Matured																																2016/10/5	2016/10/11
PRA000008	SAA000351	ST003	34880	es-BANK	ET00728	O-9	"Nyctereutes procyonoides"	"Raccoon dog"	2005							Asia	Japan	Osaka	34.305	34.97166667	135.135	135.7883333	Male	Liver	3.11		2.5	kg				Matured																																2016/10/5	2016/10/11
PRA000008	SAA000352	ST003	34880	es-BANK	ET00703	O-11	"Nyctereutes procyonoides"	"Raccoon dog"	2005							Asia	Japan	Osaka	34.305	34.97166667	135.135	135.7883333	Female	Liver	3.25		4.34	kg				Matured																																2016/10/5	2016/10/11
PRA000008	SAA000363	ST003	34880	es-BANK	ET00489	O-1	"Nyctereutes procyonoides"	"Raccoon dog"	2004	10	8					Asia	Japan	Osaka	34.305	34.97166667	135.135	135.7883333	Male	Adipose	57.68		3	kg																																				2016/10/5	2016/10/11
PRA000008	SAA000364	ST003	34880	es-BANK	"ET00501 "	O-2	"Nyctereutes procyonoides"	"Raccoon dog"	2004	10	13					Asia	Japan	Osaka	34.305	34.97166667	135.135	135.7883333	Male	Adipose	67.68		3.5	kg																																				2016/10/5	2016/10/11
PRA000008	SAA000365	ST003	34880	es-BANK	"ET00502 "	O-3	"Nyctereutes procyonoides"	"Raccoon dog"	2004	10	13					Asia	Japan	Osaka	34.305	34.97166667	135.135	135.7883333	Female	Adipose	75.87		2.8	kg																																				2016/10/5	2016/10/11
PRA000008	SAA000366	ST003	34880	es-BANK	ET00503	O-4	"Nyctereutes procyonoides"	"Raccoon dog"	2004							Asia	Japan	Osaka	34.305	34.97166667	135.135	135.7883333	Male	Adipose	75.1		3.6	kg																																				2016/10/5	2016/10/11
PRA000008	SAA000367	ST003	34880	es-BANK	ET00504	O-5	"Nyctereutes procyonoides"	"Raccoon dog"	2004							Asia	Japan	Osaka	34.305	34.97166667	135.135	135.7883333	Male	Adipose	79.41		4.5	kg				Matured																																2016/10/5	2016/10/11
PRA000008	SAA000368	ST003	34880	es-BANK	"ET00723 "	O-6	"Nyctereutes procyonoides"	"Raccoon dog"	2005							Asia	Japan	Osaka	34.305	34.97166667	135.135	135.7883333	Female	Adipose	88.03		4.98	kg				Matured																																2016/10/5	2016/10/11
PRA000008	SAA000369	ST003	34880	es-BANK	ET00728	O-9	"Nyctereutes procyonoides"	"Raccoon dog"	2005							Asia	Japan	Osaka	34.305	34.97166667	135.135	135.7883333	Male	Adipose	75.79		2.5	kg				Matured																																2016/10/5	2016/10/11
PRA000008	SAA000370	ST003	34880	es-BANK	ET00703	O-11	"Nyctereutes procyonoides"	"Raccoon dog"	2005							Asia	Japan	Osaka	34.305	34.97166667	135.135	135.7883333	Female	Adipose	82.14		4.34	kg				Matured																																2016/10/5	2016/10/11
PRA000017	SAA000619	ST003	9606			E-08	"Homo sapiens"	Human	2004							Asia	Japan	Ehime	32.88472222	34.30166667	132.0125	133.6930556	Male	Adipose	73								"25 y.o."	Rhabdomyosarcoma																													"Measenteric fat; Same sample as SAA000652"	2016/11/29	2016/12/5
PRA000017	SAA000620	ST003	9606			E-01	"Homo sapiens"	Human	2003							Asia	Japan	Ehime	32.88472222	34.30166667	132.0125	133.6930556	Male	Adipose	72								"34 y.o."	"Hepatic insufficiency, hepatitis B "																													"Measenteric fat"	2016/11/29	2016/12/5
PRA000017	SAA000621	ST003	9606			E-20	"Homo sapiens"	Human	2004							Asia	Japan	Ehime	32.88472222	34.30166667	132.0125	133.6930556	Male	Adipose	82								"40 y.o."	"Hepatic insufficiency, renal failure "																													"Measenteric fat"	2016/11/29	2016/12/5
PRA000017	SAA000622	ST003	9606			E-16	"Homo sapiens"	Human	2004							Asia	Japan	Ehime	32.88472222	34.30166667	132.0125	133.6930556	Male	Adipose	41								"41 y.o."	"Liposarcoma, liver metastasis, lung metastasis "																													"Measenteric fat; Same sample as SAA000659"	2016/11/29	2016/12/5
PRA000017	SAA000623	ST003	9606			E-02	"Homo sapiens"	Human	2003							Asia	Japan	Ehime	32.88472222	34.30166667	132.0125	133.6930556	Male	Adipose	11								"49 y.o."	"Malignant melanoma "																													"Measenteric fat"	2016/11/29	2016/12/5
PRA000017	SAA000624	ST003	9606			E-09	"Homo sapiens"	Human	2004							Asia	Japan	Ehime	32.88472222	34.30166667	132.0125	133.6930556	Male	Adipose	50								"57 y.o."	Cholangiocarcinoma																													"Measenteric fat; Same sample as SAA000653"	2016/11/29	2016/12/5
PRA000017	SAA000625	ST003	9606			215	"Homo sapiens"	Human	2003							Asia	Japan	Kanto	34.917714	36.28333333	138.7113889	140.857758	Male	Adipose	42								"58 y.o."	"Acute myelocytic leukemia "																													"Measenteric fat; Same sample as SAA000675"	2016/11/29	2016/12/5
PRA000017	SAA000626	ST003	9606			221	"Homo sapiens"	Human	2003							Asia	Japan	Kanto	34.917714	36.28333333	138.7113889	140.857758	Male	Adipose	52								"60 y.o."	"Hepatocellular carcinoma "																													"Measenteric fat; Same sample as SAA000681"	2016/11/29	2016/12/5
PRA000017	SAA000627	ST003	9606			222	"Homo sapiens"	Human	2003							Asia	Japan	Kanto	34.917714	36.28333333	138.7113889	140.857758	Male	Adipose	61								"66 y.o."	"Renal insufficiency "																													"Measenteric fat"	2016/11/29	2016/12/5
PRA000017	SAA000628	ST003	9606			E-04	"Homo sapiens"	Human	2004							Asia	Japan	Ehime	32.88472222	34.30166667	132.0125	133.6930556	Male	Adipose	62								"69 y.o."	"Cervical lymphnode metastatic cancer of unknown origin"																													"Measenteric fat; Same sample as SAA000648"	2016/11/29	2016/12/5
PRA000017	SAA000629	ST003	9606			E-12	"Homo sapiens"	Human	2004							Asia	Japan	Ehime	32.88472222	34.30166667	132.0125	133.6930556	Male	Adipose	75								"70 y.o."	"Perforation of gastro-intestinal tract, pneumocystis carini pneumonia "																													"Measenteric fat; Same sample as SAA000656"	2016/11/29	2016/12/5
PRA000017	SAA000630	ST003	9606			E-13	"Homo sapiens"	Human	2004							Asia	Japan	Ehime	32.88472222	34.30166667	132.0125	133.6930556	Male	Adipose	77								"73 y.o."	"Gastric cancer, malgnant lymphoma "																													"Measenteric fat; Same sample as SAA000657"	2016/11/29	2016/12/5
PRA000017	SAA000631	ST003	9606			E-10	"Homo sapiens"	Human	2004							Asia	Japan	Ehime	32.88472222	34.30166667	132.0125	133.6930556	Male	Adipose	76								"76 y.o."	"Pneumonia, idiopathic interstitial pneumonia "																													"Measenteric fat; Same sample as SAA000654"	2016/11/29	2016/12/5
PRA000017	SAA000632	ST003	9606			E-11	"Homo sapiens"	Human	2004							Asia	Japan	Ehime	32.88472222	34.30166667	132.0125	133.6930556	Male	Adipose	60								"79 y.o."	"Lung cancer "																													"Measenteric fat; Same sample as SAA000655"	2016/11/29	2016/12/5
PRA000017	SAA000633	ST003	9606			219	"Homo sapiens"	Human	2003							Asia	Japan	Kanto	34.917714	36.28333333	138.7113889	140.857758	Male	Adipose	69								"79 y.o."	"Malignant lymphoma "																													"Measenteric fat; Same sample as SAA000679"	2016/11/29	2016/12/5
PRA000017	SAA000634	ST003	9606			E-14	"Homo sapiens"	Human	2004							Asia	Japan	Ehime	32.88472222	34.30166667	132.0125	133.6930556	Male	Adipose	55								"81 y.o."	"Pancreatic cancer "																													"Measenteric fat"	2016/11/29	2016/12/5
PRA000017	SAA000635	ST003	9606			E-15	"Homo sapiens"	Human	2004							Asia	Japan	Ehime	32.88472222	34.30166667	132.0125	133.6930556	Male	Adipose	72								"81 y.o."	"Metastatic liver cancer "																													"Measenteric fat; Same sample as SAA000658"	2016/11/29	2016/12/5
PRA000017	SAA000636	ST003	9606			217	"Homo sapiens"	Human	2003							Asia	Japan	Kanto	34.917714	36.28333333	138.7113889	140.857758	Male	Adipose	72								"81 y.o."	"Cardiac infarction "																													"Measenteric fat; Same sample as SAA000677"	2016/11/29	2016/12/5
PRA000017	SAA000637	ST003	9606			E-03	"Homo sapiens"	Human	2003							Asia	Japan	Ehime	32.88472222	34.30166667	132.0125	133.6930556	Female	Adipose	77								"59 y.o."	"Acute lymphocytic leukemia"																													"Measenteric fat; Same sample as SAA000647"	2016/11/29	2016/12/5
PRA000017	SAA000638	ST003	9606			E-05	"Homo sapiens"	Human	2004							Asia	Japan	Ehime	32.88472222	34.30166667	132.0125	133.6930556	Female	Adipose	70								"53 y.o."	"Acute myelocytic leukemia "																													"Measenteric fat; Same sample as SAA000649"	2016/11/29	2016/12/5
PRA000017	SAA000639	ST003	9606			E-06	"Homo sapiens"	Human	2004							Asia	Japan	Ehime	32.88472222	34.30166667	132.0125	133.6930556	Female	Adipose	50								"69 y.o."	"Carcinoma of the gallbladder "																													"Measenteric fat; Same sample as SAA000650"	2016/11/29	2016/12/5
PRA000017	SAA000640	ST003	9606			E-07	"Homo sapiens"	Human	2004							Asia	Japan	Ehime	32.88472222	34.30166667	132.0125	133.6930556	Female	Adipose	58								"72 y.o."	"Hepatic insufficiency, liver cirrhosis "																													"Measenteric fat; Same sample as SAA000651"	2016/11/29	2016/12/5
PRA000017	SAA000641	ST003	9606			E-17	"Homo sapiens"	Human	2004							Asia	Japan	Ehime	32.88472222	34.30166667	132.0125	133.6930556	Female	Adipose	75								"62 y.o."	"Multiple systemic atrophy "																													"Measenteric fat; Same sample as SAA000660"	2016/11/29	2016/12/5
PRA000017	SAA000642	ST003	9606			212	"Homo sapiens"	Human	2003							Asia	Japan	Kanto	34.917714	36.28333333	138.7113889	140.857758	Female	Adipose	81								"62 y.o."	"Breast cancer"																													"Measenteric fat; Same sample as SAA000674"	2016/11/29	2016/12/5
PRA000017	SAA000643	ST003	9606			E-18	"Homo sapiens"	Human	2004							Asia	Japan	Ehime	32.88472222	34.30166667	132.0125	133.6930556	Female	Adipose	73								"76 y.o."	"Gastric cancer, lung cancer "																													"Measenteric fat; Same sample as SAA000661"	2016/11/29	2016/12/5
PRA000017	SAA000644	ST003	9606			E-19	"Homo sapiens"	Human	2004							Asia	Japan	Ehime	32.88472222	34.30166667	132.0125	133.6930556	Female	Adipose	75								"71 y.o."	"Breast cancer, lymphoangitis carcinomatosa, idiopathic interstitial pneumonia "																													"Measenteric fat; Same sample as SAA000662"	2016/11/29	2016/12/5
PRA000017	SAA000645	ST003	9606			218	"Homo sapiens"	Human	2003							Asia	Japan	Kanto	34.917714	36.28333333	138.7113889	140.857758	Female	Adipose	60								"83 y.o."	"Lung cancer"																													"Measenteric fat; Same sample as SAA000678"	2016/11/29	2016/12/5
PRA000017	SAA000646	ST003	9606			220	"Homo sapiens"	Human	2003							Asia	Japan	Kanto	34.917714	36.28333333	138.7113889	140.857758	Female	Adipose	66								"109 y.o."	"Senile deterioration"																													"Measenteric fat; Same sample as SAA000680"	2016/11/29	2016/12/5
PRA000024	SAA001238	ST029				PNH1	Air	"Urban roadside air"	2010	7	1			"91 days"		"South America"	Brazil	"Sao Paulo City"	-23.56147778		-46.70208611																																				47μg/m^3	97μg/m^3						2017/2/6	2019/7/17
PRA000024	SAA001239	ST029				PNH2	Air	"Urban roadside air"	2010	10	1			"90 days"		"South America"	Brazil	"Sao Paulo City"	-23.56147778		-46.70208611																																				26μg/m^3	54μg/m^3						2017/2/6	2019/7/17
PRA000024	SAA001240	ST029				PNH3	Air	"Urban roadside air"	2010	12	30			"91 days"		"South America"	Brazil	"Sao Paulo City"	-23.56147778		-46.70208611																																				33μg/m^3	58μg/m^3						2017/2/6	2019/7/17
PRA000024	SAA001241	ST029				PNH4	Air	"Urban roadside air"	2011	3	31			"92 days"		"South America"	Brazil	"Sao Paulo City"	-23.56147778		-46.70208611																																				38μg/m^3	84μg/m^3						2017/2/6	2019/7/17
PRA000024	SAA001242	ST029				PNH5	Air	"Urban roadside air"	2011	7	1			"91 days"		"South America"	Brazil	"Sao Paulo City"	-23.56147778		-46.70208611																																				49μg/m^3	99μg/m^3						2017/2/6	2019/7/17
PRA000024	SAA001243	ST029				PRD1	Air	"Urban roadside air"	2011	7	10			"92 days"		"South America"	Brazil	"Sao Paulo City"	-23.56147778		-46.70208611																																				67μg/m^3	99μg/m^3						2017/2/6	2019/7/17
PRA000024	SAA001244	ST029				PNH6	Air	"Urban roadside air"	2011	9	30			"90 days"		"South America"	Brazil	"Sao Paulo City"	-23.56147778		-46.70208611																																				30μg/m^3	63μg/m^3						2017/2/6	2019/7/17
PRA000024	SAA001245	ST029				PNH7	Air	"Urban roadside air"	2012	1	3			182days		"South America"	Brazil	"Sao Paulo City"	-23.56147778		-46.70208611																																				29μg/m^3	67μg/m^3						2017/2/6	2019/7/17
PRA000024	SAA001246	ST029				PNH8	Air	"Urban roadside air"	2012	7	3			"184 days"		"South America"	Brazil	"Sao Paulo City"	-23.56147778		-46.70208611																																				39μg/m^3	87μg/m^3						2017/2/6	2019/7/17
PRA000024	SAA001247	ST029				PNH9	Air	"Urban roadside air"	2012	12	3			"182 days"		"South America"	Brazil	"Sao Paulo City"	-23.56147778		-46.70208611																																				22μg/m^3	67μg/m^3						2017/2/6	2019/7/17
PRA000024	SAA001248	ST029				PNH10	Air	"Urban roadside air"	2013	6	16			"92 days"		"South America"	Brazil	"Sao Paulo City"	-23.56147778		-46.70208611																																					81μg/m^3						2017/2/6	2019/7/17
PRA000024	SAA001249	ST029				PNH11	Air	"Urban roadside air"	2013	9	16			"91 days"		"South America"	Brazil	"Sao Paulo City"	-23.56147778		-46.70208611																																					58μg/m^3						2017/2/6	2019/7/17
PRA000024	SAA001250	ST029				PNH12	Air	"Urban roadside air"	2014	6	2			"92 days"		"South America"	Brazil	"Sao Paulo City"	-23.56147778		-46.70208611																																				41μg/m^3	92μg/m^3						2017/2/6	2019/7/17
PRA000024	SAA001251	ST029				PNH13	Air	"Urban roadside air"	2014	9	2			"91 days"		"South America"	Brazil	"Sao Paulo City"	-23.56147778		-46.70208611																																				32μg/m^3	68μg/m^3						2017/2/6	2019/7/17
PRA000024	SAA001252	ST029				PNH14	Air	"Urban roadside air"	2014	12	2			"90 days"		"South America"	Brazil	"Sao Paulo City"	-23.56147778		-46.70208611																																				23μg/m^3	54μg/m^3						2017/2/6	2019/7/17
PRA000024	SAA001253	ST029				PNH15	Air	"Urban roadside air"	2015	3	2			"92 days"		"South America"	Brazil	"Sao Paulo City"	-23.56147778		-46.70208611																																				23μg/m^3	50μg/m^3						2017/2/6	2019/7/17
PRA000024	SAA001254	ST029				PNH16	Air	"Urban roadside air"	2015	6	2			"92 days"		"South America"	Brazil	"Sao Paulo City"	-23.56147778		-46.70208611																																				35μg/m^3	62μg/m^3						2017/2/6	2019/7/17
PRA000032	SAA001968	ST004	9737	es-BANK	EW04115		"Stenella coeruleoalba"	"Striped dolphin"	1978	12	19					Asia	Japan	"Taiji, Wakayama"	33.54416667	33.62305833	135.885	136.0180583	Male	Blubber	36.05		132	kg	227	cm	"Body length"	Matured	"11.5 y.o."																															2017/6/9	2017/6/9
PRA000032	SAA001969	ST004	9737	es-BANK	EW04116		"Stenella coeruleoalba"	"Striped dolphin"	1978	12	19					Asia	Japan	"Taiji, Wakayama"	33.54416667	33.62305833	135.885	136.0180583	Male	Blubber	49.24		160	kg	230	cm	"Body length"	Matured	"17.5 y.o."																															2017/6/9	2017/6/9
PRA000032	SAA001970	ST004	9737	es-BANK	EW04157		"Stenella coeruleoalba"	"Striped dolphin"	1979	12	15					Asia	Japan	"Taiji, Wakayama"	33.54416667	33.62305833	135.885	136.0180583	Male	Blubber	55				235	cm	"Body length"	Matured	"19.5 y.o."																															2017/6/9	2017/6/9
PRA000032	SAA001971	ST004	9737	es-BANK	EW04174		"Stenella coeruleoalba"	"Striped dolphin"	1979	12	15					Asia	Japan	"Taiji, Wakayama"	33.54416667	33.62305833	135.885	136.0180583	Male	Blubber	73.54				239	cm	"Body length"	Matured	"18.5 y.o."																															2017/6/9	2017/6/9
PRA000032	SAA001972	ST004	9737	es-BANK	EW04180		"Stenella coeruleoalba"	"Striped dolphin"	1979	12	15					Asia	Japan	"Taiji, Wakayama"	33.54416667	33.62305833	135.885	136.0180583	Male	Blubber	90.98				230	cm	"Body length"	Matured	"18.5 y.o."																															2017/6/9	2017/6/9
PRA000032	SAA001973	ST004	9737	es-BANK	EW04186		"Stenella coeruleoalba"	"Striped dolphin"	1979	12	15					Asia	Japan	"Taiji, Wakayama"	33.54416667	33.62305833	135.885	136.0180583	Male	Blubber	67.17				233	cm	"Body length"	Matured	"19.5 y.o."																															2017/6/9	2017/6/9
PRA000032	SAA001974	ST004	9737	es-BANK	EW04438		"Stenella coeruleoalba"	"Striped dolphin"	1986	12	9					Asia	Japan	"Taiji, Wakayama"	33.54416667	33.62305833	135.885	136.0180583	Male	Blubber	55.93						"Body length"		"20.5 y.o."																															2017/6/9	2017/6/9
PRA000032	SAA001975	ST004	9737	es-BANK	EW04439		"Stenella coeruleoalba"	"Striped dolphin"	1986	12	9					Asia	Japan	"Taiji, Wakayama"	33.54416667	33.62305833	135.885	136.0180583	Male	Blubber	46.75				228	cm	"Body length"		"9.5 y.o."																															2017/6/9	2017/6/9
PRA000032	SAA001976	ST004	9737	es-BANK	EW04500		"Stenella coeruleoalba"	"Striped dolphin"	1986	12	9					Asia	Japan	"Taiji, Wakayama"	33.54416667	33.62305833	135.885	136.0180583	Male	Blubber	54				251	cm	"Body length"		"31.5 y.o."																															2017/6/9	2017/6/9
PRA000032	SAA001977	ST004	9737	es-BANK	EW04534		"Stenella coeruleoalba"	"Striped dolphin"	1992	8	3					"Pacific Ocean"		"Pacific Ocean"	37.2		147.55		Male	Blubber	62.26				226	cm	"Body length"																																	2017/6/9	2017/6/9
PRA000032	SAA001978	ST004	9737	es-BANK	EW04539		"Stenella coeruleoalba"	"Striped dolphin"	1992	8	8					"Pacific Ocean"		"Pacific Ocean"	36.95		151.6666667		Male	Blubber	56.05				231	cm	"Body length"																																	2017/6/9	2017/6/9
PRA000032	SAA001979	ST004	9737	es-BANK	EW04547		"Stenella coeruleoalba"	"Striped dolphin"	1992	8	10					"Pacific Ocean"		"Pacific Ocean"	36.93333333		154.3		Male	Blubber	64.74				226	cm	"Body length"																																	2017/6/9	2017/6/9
PRA000032	SAA001980	ST004	9737	es-BANK	EW04548		"Stenella coeruleoalba"	"Striped dolphin"	1992	8	11					"Pacific Ocean"		"Pacific Ocean"	37.25		154.4833333		Male	Blubber	45.91				226	cm	"Body length"																																	2017/6/9	2017/6/9
PRA000032	SAA001981	ST004	9737	es-BANK	EW04557		"Stenella coeruleoalba"	"Striped dolphin"	1992	11	22					"Pacific Ocean"		"Pacific Ocean"	33.54999		136.0666667		Male	Blubber	28.43				235	cm	"Body length"																																	2017/6/9	2017/6/9
PRA000032	SAA001982	ST004	9737	es-BANK	EW04559		"Stenella coeruleoalba"	"Striped dolphin"	1992	11	23					"Pacific Ocean"		"Pacific Ocean"	33.48333333		136.19999		Male	Blubber	71.5				230	cm	"Body length"																																	2017/6/9	2017/6/9
PRA000032	SAA001983	ST004	9737	es-BANK	EW04566	SD1	"Stenella coeruleoalba"	"Striped dolphin"	2003	3	30					Asia	Japan	"Gogo-shima, Ehime"	33.86462778	33.929025	132.6527333	132.6982167	Male	Blubber	56.2		155	kg	230.8	cm	"Body length"																																	2017/6/9	2017/6/9
PRA000032	SAA001984	ST004	9737	es-BANK	EW04567	SD2	"Stenella coeruleoalba"	"Striped dolphin"	2003	3	30					Asia	Japan	"Gogo-shima, Ehime"	33.86462778	33.929025	132.6527333	132.6982167	Female	Blubber	56.2		105	kg	223	cm	"Body length"																																	2017/6/9	2017/6/9
PRA000032	SAA001985	ST004	9737	es-BANK	EW04568	SD3	"Stenella coeruleoalba"	"Striped dolphin"	2003	4	1					Asia	Japan	"Gogo-shima, Ehime"	33.86462778	33.929025	132.6527333	132.6982167	Male	Blubber	58.4		150	kg	237.6	cm	"Body length"																																	2017/6/9	2017/6/9
PRA000032	SAA001986	ST004	9737	es-BANK	EW04569	SD4	"Stenella coeruleoalba"	"Striped dolphin"	2003	4	1					Asia	Japan	"Gogo-shima, Ehime"	33.86462778	33.929025	132.6527333	132.6982167	Male	Blubber	49.8		155	kg	232	cm	"Body length"																																	2017/6/9	2017/6/9
PRA000032	SAA001987	ST004	9737	es-BANK	EW04570	SD5	"Stenella coeruleoalba"	"Striped dolphin"	2003	4	1					Asia	Japan	"Gogo-shima, Ehime"	33.86462778	33.929025	132.6527333	132.6982167	Male	Blubber	44.1		135	kg	231	cm	"Body length"																																	2017/6/9	2017/6/9
PRA000032	SAA001988	ST004	9737	es-BANK	EW04571	SD6	"Stenella coeruleoalba"	"Striped dolphin"	2003	4	1					Asia	Japan	"Gogo-shima, Ehime"	33.86462778	33.929025	132.6527333	132.6982167	Male	Blubber	54.4		150	kg	236.5	cm	"Body length"																																	2017/6/9	2017/6/9
PRA000080	SAA004526	ST009	6564	es-BANK	EF05630	St.1_Oys-37	"Crassostrea sp."	Oyster	2005	5	14					Asia	Japan	"Ishikari-gawa River mouth, Hokkaido"	43.25803333	43.27386389	141.3631639	141.3721861		"Whole soft tissue"	1.2				"0.9 - 10.2 "	cm	"Shell length"																																"Pooled; Sampling location: St. 1"	2018/11/19	2018/11/19
PRA000080	SAA004527	ST009	29158	es-BANK	EF04165	St.1_Mus-03	"Mytilus galloprovincialis"	"Blue mussel"	2005	5	14					Asia	Japan	"Ishikari-gawa River, Hokkaido"	43.20676667	43.52913889	141.3299361	141.8824194		"Whole soft tissue"	1.1				"1.4 - 6.4"	cm	"Shell length"																																"Pooled; Sampling location: St. 1"	2018/11/19	2018/11/19
PRA000080	SAA004528	ST009	6564	es-BANK	EF05641	St.2_Oys-48	"Crassostrea sp."	Oyster	2005	11	10					Asia	Japan	"Aomori Port, Aomori"	40.83063333	40.86621111	140.6878139	140.837075		"Whole soft tissue"	1				"4 - 7.6 "	cm	"Shell length"																																"Pooled; Sampling location: St. 2"	2018/11/19	2018/11/19
PRA000080	SAA004529	ST009	6564	es-BANK	EF05637	St.3_Oys-44	"Crassostrea sp."	Oyster	2005	11	8					Asia	Japan	"Kamaishi Port, Iwate"	39.26333333	39.28611111	141.8983333	141.9038889		"Whole soft tissue"	1.4				"6.9 - 14.6 "	cm	"Shell length"																																"Pooled; Sampling location: St. 3"	2018/11/19	2018/11/19
PRA000080	SAA004530	ST009	6564	es-BANK	EF05636	St.4_Oys-43	"Crassostrea sp."	Oyster	2005	11	8					Asia	Japan	"Kesennuma Port, Miyagi"	38.90527778	38.90666667	141.5766667	141.5766667		"Whole soft tissue"	1.7				"4.3 - 8.9 "	cm	"Shell length"																																"Pooled; Sampling location: St. 4"	2018/11/19	2018/11/19
PRA000080	SAA004531	ST009	29158	es-BANK	EF06324	St.4_Mus-06	"Mytilus galloprovincialis"	"Blue mussel"	2005	11	8					Asia	Japan	"Kesennuma Port, Miyagi"	38.90527778	38.90666667	141.5766667	141.5766667		"Whole soft tissue"	2.4				"2.7 - 6.2"	cm	"Shell length"																																"Pooled; Sampling location: St. 4"	2018/11/19	2018/11/19
PRA000080	SAA004532	ST009	6564	es-BANK	EF05600	St.5_Oys-07	"Crassostrea sp."	Oyster	2005	8	6					Asia	Japan	"Toyama Port, Toyama"	36.76083333	36.77861111	137.1911111	137.2647222		"Whole soft tissue"	2.6				"2.3 - 8.2 "	cm	"Shell length"																																"Pooled; Sampling location: St. 5"	2018/11/19	2018/11/19
PRA000080	SAA004533	ST009	6564	es-BANK	EF05604	St.6_Oys-11	"Crassostrea sp."	Oyster	2005	8	7					Asia	Japan	"Tsuruga, Fukui"	35.65083333	35.80722222	135.9586111	136.1111111		"Whole soft tissue"	2.7				"1.6 - 6.5 "	cm	"Shell length"																																"Pooled; Sampling location: St. 6"	2018/11/19	2018/11/19
PRA000080	SAA004534	ST009	6564	es-BANK	EF05603	St.7_Oys-10	"Crassostrea sp."	Oyster	2005	6	29					Asia	Japan	"Tokyo Bay, Odaiba, Tokyo"	35.58166667	35.6375	139.7597222	139.855		"Whole soft tissue"	1.3				"1.6 - 6.5 "	cm	"Shell length"																																"Pooled; Sampling location: St. 7"	2018/11/19	2018/11/19
PRA000080	SAA004535	ST009	6564	es-BANK	EF05612	St.8_Oys-19	"Crassostrea sp."	Oyster	2005	8	6					Asia	Japan	"Ota-gawa River Mouth, Shizuoka"	34.65722222	34.68888889	137.8836111	137.9130556		"Whole soft tissue"	2				"1.6 - 6.7 "	cm	"Shell length"																																"Pooled; Sampling location: St. 8"	2018/11/19	2018/11/19
PRA000080	SAA004536	ST009	6564	es-BANK	EF05602	St.9_Oys-09	"Crassostrea sp."	Oyster	2005	8	8					Asia	Japan	"Nagoya Port, Aichi"	35.07444444	35.08638889	136.8711111	136.8886111		"Whole soft tissue"	1.7				"2.4 - 7.6 "	cm	"Shell length"																																"Pooled; Sampling location: St. 9"	2018/11/19	2018/11/19
PRA000080	SAA004537	ST009	6564	es-BANK	EF05610	St.10_Oys-17	"Crassostrea sp."	Oyster	2005	6	14					Asia	Japan	"Osaka South Port, Osaka"	34.60666667	34.67138889	135.3105556	135.4486111		"Whole soft tissue"	2.8				"0.7 - 6.7 "	cm	"Shell length"																																"Pooled; Sampling location: St. 10"	2018/11/19	2018/11/19
PRA000080	SAA004538	ST009	6564	es-BANK	EF05616	St.11_Oys-23	"Crassostrea sp."	Oyster	2005	6	14					Asia	Japan	"Front of Kaiyukan, Osaka"	34.63943333	34.672325	135.3870278	135.4400861		"Whole soft tissue"	2				"0.9 - 6.9 "	cm	"Shell length"																																"Pooled; Sampling location: St. 11"	2018/11/19	2018/11/19
PRA000080	SAA004539	ST009	6564	es-BANK	EF05595	St.12_Oys-02	"Crassostrea sp."	Oyster	2005	5	30					Asia	Japan	"Kobe Port, Hyogo"	34.56083333	34.62083333	135.0525	135.3125		"Whole soft tissue"	3.4				"2.8 - 8.7 "	cm	"Shell length"																																"Pooled; Sampling location: St. 12"	2018/11/19	2018/11/19
PRA000080	SAA004540	ST009	6564	es-BANK	EF05617	St.13_Oys-24	"Crassostrea sp."	Oyster	2005	6	18					Asia	Japan	"Himeji, Hyogo"	34.713075	34.77719722	134.5728972	134.7587194		"Whole soft tissue"	3.3				"1.3 - 10.7 "	cm	"Shell length"																																"Pooled; Sampling location: St. 13"	2018/11/19	2018/11/19
PRA000080	SAA004541	ST009	29158	es-BANK	EF04166	St.13_Mus-01	"Mytilus galloprovincialis"	"Blue mussel"	2005	6	18					Asia	Japan	"Himeji, Hyogo"	34.713075	34.77719722	134.5728972	134.7587194		"Whole soft tissue"	1.9				"6.6 - 9.3"	cm	"Shell length"																																"Pooled; Sampling location: St. 13"	2018/11/19	2018/11/19
PRA000080	SAA004542	ST009	6564	es-BANK	EF05618	St.14_Oys-25	"Crassostrea sp."	Oyster	2005	6	25					Asia	Japan	"Ujina Port, Hiroshima"	34.33361111	34.36138889	132.3836111	132.4969444		"Whole soft tissue"	3.2				"2.2 - 7.9 "	cm	"Shell length"																																"Pooled; Sampling location: St. 14"	2018/11/19	2018/11/19
PRA000080	SAA004543	ST009	6564	es-BANK	EF05628	St.15_Oys-35	"Crassostrea sp."	Oyster	2005	6	24					Asia	Japan	"Kure Port, Hiroshima"	34.23583333	34.23972222	132.5455556	132.5569444		"Whole soft tissue"	2.7				"3 - 8.1 "	cm	"Shell length"																																"Pooled; Sampling location: St. 15"	2018/11/19	2018/11/19
PRA000080	SAA004544	ST009	6564	es-BANK	EF05625	St.16_Oys-32	"Crassostrea sp."	Oyster	2005	6	26					Asia	Japan	"Edomari Port, Hofu, Yamaguchi"	34.03217778	34.04163333	131.5970333	131.6019		"Whole soft tissue"	2.9				"1.2 - 8.3 "	cm	"Shell length"																																"Pooled; Sampling location: St. 16"	2018/11/19	2018/11/19
PRA000080	SAA004545	ST009	6564	es-BANK	EF05623	St.17_Oys-30	"Crassostrea sp."	Oyster	2005	6	26					Asia	Japan	"Hagi Port, Yamagichi"	34.41831667	34.42974722	131.3650889	131.4070722		"Whole soft tissue"	3.1				"2.6 - 9 "	cm	"Shell length"																																"Pooled; Sampling location: St. 17"	2018/11/19	2018/11/19
PRA000080	SAA004546	ST009	29158	es-BANK	EF04167	St.17_Mus-02	"Mytilus galloprovincialis"	"Blue mussel"	2005	6	26					Asia	Japan	"Hagi Port, Yamagichi"	34.41831667	34.42974722	131.3650889	131.4070722		"Whole soft tissue"	1.1				"4.3 - 8.7"	cm	"Shell length"																																"Pooled; Sampling location: St. 17"	2018/11/19	2018/11/19
PRA000080	SAA004547	ST009	6564	es-BANK	EF05615	St.18_Oys-22	"Crassostrea sp."	Oyster	2005	6	25					Asia	Japan	"Horie Port, Ehime"	33.9206	33.93695	132.7529972	132.7605028		"Whole soft tissue"	2.7				"3.7 - 7.5 "	cm	"Shell length"																																"Pooled; Sampling location: St. 18"	2018/11/19	2018/11/19
PRA000080	SAA004548	ST009	6564	es-BANK	EF05605	St.19_Oys-12	"Crassostrea sp."	Oyster	2005	6	24					Asia	Japan	"Kochi Port, Kochi"	33.45055556	33.48083333	133.5405556	133.615		"Whole soft tissue"	3.5				"1.9 - 7.1 "	cm	"Shell length"																																"Pooled; Sampling location: St. 19"	2018/11/19	2018/11/19
PRA000080	SAA004549	ST009	6564	es-BANK	EF05594	St.20_Oys-01	"Crassostrea sp."	Oyster	2005	7	13					Asia	Japan	"Front of Fukuoka Dome, Fukuoka"	33.59751111	33.59799444	130.3552306	130.3633833		"Whole soft tissue"	2.6				"2.8 - 5.7 "	cm	"Shell length"																																"Pooled; Sampling location: St. 20"	2018/11/19	2018/11/19
PRA000080	SAA004550	ST009	6564	es-BANK	EF05627	St.21_Oys-34	"Crassostrea sp."	Oyster	2005	7	31					Asia	Japan	"Minamata Bay, Kumamoto"	32.14694444	32.24333333	130.2266667	130.3525		"Whole soft tissue"	2.2				"1 - 8.3 "	cm	"Shell length"																																"Pooled; Sampling location: St. 21"	2018/11/19	2018/11/19
PRA000080	SAA004551	ST009	6564	es-BANK	EF05633	St.22_Oys-40	"Crassostrea sp."	Oyster	2005	10	11					Asia	Japan	"Okutakejima Port, Okinawa"	26.12583333	26.13194444	127.7691667	127.7797222		"Whole soft tissue"	2.2				"2.2 - 6.5 "	cm	"Shell length"																																"Pooled; Sampling location: St. 22"	2018/11/19	2018/11/19
PRA000099	SAA006282	ST015				Hokkaido_w3_2017	Water	"River water"	2017	11	10	2017-11-10T13:40			Cloudy	Asia	Japan	"Ishikarikako-kyo Bridge, Mouth of Riv. Ishikari (Ishikari City), Hokkaido"	43.22861111		141.3519444														8.8	6.8	6.3	9.2	37			12			"Grayish brown"																			2019/09/13	2019/09/13
PRA000099	SAA006289	ST015				Iwate_w1_2017	Water	"River water"	2017	10	4	2017-10-04T10:20			Cloudy	Asia	Japan	"Riv. Toyosawa (Hanamaki City), Iwate"	39.38166667		141.1191667														15	14.2	7.2	11	7.1			1			"Light Greenish brown"																			2019/09/13	2019/09/13
PRA000099	SAA006605	ST014				Miyagi_w3_2017	Water	"Sea water"	2017	10	17	2017-10-17T10:20			Fair	Asia	Japan	"Sendai Bay (Matsushima Bay), Miyagi"	38.35333333		141.0975														21.4	16.4	7.9	6.7	4,200			2		1	Clear																			2019/11/28	2019/11/28
PRA000099	SAA006606	ST015				Akita_w3_2017	Water	"Lake water"	2017	9	22	2017-09-22T09:53			Fair	Asia	Japan	"Lake Hachiro, Akita"	39.92277778		139.9988889														21.3	21.3	8.2	10	18			21		0.4	"Light Greenish brown"																			2019/11/28	2019/11/28
PRA000099	SAA006294	ST015				Yamagata_w1-1_2017	Water	"River water"	2017	10	18	2017-10-18T09:30			Fair	Asia	Japan	"Mouth of Riv. Mogami, Yamagata"	38.88722222		139.8433333														17.2	14.3	7	9.8	17			2			"Light Yellow"																			2019/9/18	2019/11/28
PRA000099	SAA006607	ST014				Fukushima_w1_2017	Water	"Sea water"	2017	10	11	2017-10-11T10:10			Cloudy	Asia	Japan	"Onahama Port, Fukushima"	36.92472222		140.8752778														19.8	20.5	8.1	7.3	4,800			2		6	"Bluish green"																			2019/11/28	2019/11/28
PRA000099	SAA006298	ST015				Ibaraki_w2_2017	Water	"River water"	2017	11	17	2017-11-17T10:17			Fair	Asia	Japan	"Kamome-ohasi Bridge, Mouth of Riv. Tone (Kamisu City), Ibaraki"	35.77638889		140.7569444														14.9	13	7.7	9.6	540			1.6			Clear																		"SS: 2 mg/L (for Monitoring)"	2019/09/13	2019/09/13
PRA000099	SAA006299	ST015				Tochigi_w1_2017	Water	"River water"	2017	10	18	2017-10-18T11:10			Fair	Asia	Japan	"Tagawa area-Toshuko Weir (Utsunomiya City), Tochigi"	36.52805556		139.8855556														17	16	7.4	11	19			3			Clear																		"DO: 10.7 mg/L (for Monitoring)"	2019/09/13	2019/09/13
PRA000099	SAA006300	ST015				Saitama_w2_2017	Water	"River water"	2017	11	8	2017-11-08T10:15			Cloudy	Asia	Japan	"Akigase-Shusuizeki Weir, Riv. Ara (Shiki City), Saitama"	35.84055556		139.6044444														14.1	13.4	7.7	9.7	25			7			"Grayish green"																			2019/09/13	2019/09/13
PRA000099	SAA006608	ST015				ChibaCity_w1_2017	Water	"River water"	2017	11	13	2017-11-13T10:25			Fair	Asia	Japan	"Mouth of Riv. Hanami (Chiba City), Chiba"	35.63472222		140.04694440														13.5	17.5	8.1	7.9	3,400			3			Clear																			2019/11/28	2019/11/28
PRA000099	SAA006305	ST015				Tokyo_w1_2017	Water	"River water"	2017	11	15	2017-11-15T10:35			Cloudy	Asia	Japan	"Mouth of Riv. Arakawa (Koto Ward), Tokyo"	35.64583333		139.8463889														15.2	14.4	7.8	8.8	1,500			19		1.3	"Grayish yellow green"																			2019/09/13	2019/09/13
PRA000099	SAA006306	ST015				Tokyo_w2_2017	Water	"River water"	2017	11	15	2017-11-15T12:55			Fair	Asia	Japan	"Mouth of Riv. Sumida (Minato Ward), Tokyo"	35.66		139.7705556														18.3	18.6	8.2	5.4	4,000			4		2.9	"Dark green"																			2019/09/13	2019/09/13
PRA000099	SAA006307	ST014				YokohamaCity_w3_2017	Water	"Sea water"	2017	11	6	2017-11-06T09:50			Fair	Asia	Japan	"Yokohama Port, Kanagawa"	35.45555556		139.6636111														19	16.7	8	6.9				7.8		12	Clear																		"SS: 8.0 mg/L (for Monitoring)"	2019/9/18	2019/11/28
PRA000099	SAA006310	ST014				Kawasaki_w2_2017	Water	"Sea water"	2017	11	13	2017-11-13T10:30			Fair	Asia	Japan	"Keihin Canal, Kawasaki Port, Kanagawa (front of Ogimachi)"	35.49527778		139.7277778														18	18.6	8	5	4,500			3.5		5	"Greenish blue"																		"SS: 4 mg/L (for Monitoring)"	2019/9/18	2019/11/28
PRA000099	SAA006312	ST015				Niigata_w2_2017	Water	"River water"	2017	10	11	2017-10-11T09:20			Cloudy	Asia	Japan	"Downstream of Riv. Shinano (Niigata City), Niigata"	37.88305556		139.0155556														23	19	7	8.8	16			26			"Light Gray"																			2019/09/13	2019/09/13
PRA000099	SAA006315	ST015				Toyama_w2_2017	Water	"River water"	2017	11	9	2017-11-09T11:30			Fair	Asia	Japan	"Hagiura-bashi Bridge, Mouth of Riv. Jintsu (Toyama City), Toyama"	36.745		137.2180556														18	13	7.4	10	58			2			Clear																			2019/09/13	2019/09/13
PRA000099	SAA006316	ST015				Ishikawa_w1_2017	Water	"River water"	2017	10	11	2017-10-11T09:50			Cloudy	Asia	Japan	"Mouth of Riv. Sai (Kanazawa City), Ishikawa"	36.60027778		136.5888889														25.7	21.8	7.3	7.3	200			1			Clear																			2019/09/13	2019/09/13
PRA000099	SAA006609	ST015				Fukui_w1_2017	Water	"River water"	2017	11	2	2017-11-02T10:30			Fair	Asia	Japan	"Mishima-bashi Bridge, Riv. Shono (Tsuruga City), Fukui"	35.6475		136.0627778														17	14	7.2	10	8			5			Clear																			2019/11/28	2019/11/28
PRA000099	SAA006317	ST015				Nagano_w2_2017	Water	"Lake water"	2017	11	13	2017-11-13T10:27			Fair	Asia	Japan	"Center of Lake Suwa, Nagano"	36.05		138.0861111														12.3	10.4	7.1	11	14			8		1.02	"Light Yellow green"																			2019/9/18	2019/11/28
PRA000099	SAA006320	ST015				Shizuoka_w1_2017	Water	"River water"	2017	10	5	2017-10-05T10:55			Cloudy	Asia	Japan	"Riv. Tenryu (Iwata City), Shizuoka"	34.67916667		137.7961111														20.6	19.8	7.3	9.8	12			7			Clear																			2019/09/13	2019/09/13
PRA000099	SAA006610	ST014				Aichi_w2-2_2017	Water	"Sea water"	2017	11	13	2017-11-13T11:50			Cloudy	Asia	Japan	"Nagoya Port, West of Shiomi Wharf, Aichi"	35.07111111		136.8691667														14.6	18.5	8.1	5	4,100			8		2.1	"Light Green"																			2019/11/28	2019/11/28
PRA000099	SAA006326	ST014				Mie_w1_2017	Water	"Sea water"	2017	10	24	2017-10-24T10:20			Cloudy	Asia	Japan	"Yokkaichi Port, Mie"	34.94944444		136.6530556														17	16	7.7	7.8	1,600			5		1.2	"Grayish green"																			2019/9/18	2019/11/28
PRA000099	SAA006330	ST015				Shiga_w2-2_2017	Water	"Lake water"	2017	12	18	2017-12-18T13:40			Fair	Asia	Japan	"Lake Biwa (center, offshore of Karasaki), Shiga"	35.04611111		135.8955556														7.8	6.7	7.7	13	12			4.3		2.3	"Dark Yellow green"																			2019/09/13	2019/09/13
PRA000099	SAA006331	ST014				Kyoto_w1_2017	Water	"Sea water"	2017	10	19	2017-10-19T10:15			"Cloudy with occasional rain"	Asia	Japan	"Miyazu Port, Kyoto"	35.58305556		135.2138889														17.7	21.5	8.5	7.5				2		6	Clear																			2019/9/18	2019/11/28
PRA000099	SAA006464	ST015				Kyoto_w2_2017	Water	"River water"	2017	11	29	2017-11-29T09:58			Cloudy	Asia	Japan	"Miyamae-bashi Bridge, Riv. Katsura (Kyoto City), Kyoto"	34.905		135.7125														13.3	12.7	7.3	9.4	17			3.5			Clear																		"SS: 4 mg/L (for Monitoring)"	2019/9/18	2019/11/28
PRA000099	SAA006332	ST015				Osaka_w1_2017	Water	"River water"	2017	11	7	2017-11-07T09:40			Fair	Asia	Japan	"Mouth of Riv. Yamato (Sakai City), Osaka"	34.60833333		135.4325														18.5	18.7	7.8	9.6				3		1.5	Clear																		"DO: 10 mg/L (for Monitoring)"	2019/09/13	2019/09/13
PRA000099	SAA006334	ST014				OsakaCity_w2_2017	Water	"Sea water"	2017	12	20	2017-12-20T08:10			Fair	Asia	Japan	"Osaka Port, Osaka"	34.65861111		135.4313889														8	9.2	7.8	9.9	1,800			2		3.5	"Grayish yellow"																			2019/9/18	2019/11/28
PRA000099	SAA006335	ST014				Hyogo_w3_2017	Water	"Sea water"	2017	10	11	2017-10-11T10:27			Cloudy	Asia	Japan	"Offshore of Himeji, Hyogo"	34.76194444		134.6697222														25.4	25.5	8.2	7.2	4			5.8		5.1	"Greenish brown"																		"SS: 6.0 mg/L (for Monitoring)"	2019/9/18	2019/11/28
PRA000099	SAA006337	ST014				Kobe_w1_2017	Water	"Sea water"	2017	11	1	2017-11-01T10:16			Fair	Asia	Japan	"Center of Kobe Port, Hyogo"	34.66444444		135.1944444														17	18.5	8	8				1		2.5	"Greenish brown"																			2019/9/18	2019/11/28
PRA000099	SAA006338	ST015				Wakayama_w1_2017	Water	"River water"	2017	11	7	2017-11-07T12:56			Cloudy	Asia	Japan	"Kinokawa-ohashi Bridge, Mouth of Riv. Kinokawa (Wakayama City), Wakayama"	34.23		135.1561111														21.7	18	7	8.4	1,500			7		1.2	"Yellow green"																			2019/9/18	2019/11/28
PRA000099	SAA006340	ST014				Okayama_w2_2017	Water	"Sea water"	2017	10	31	2017-10-31T10:15			Fair	Asia	Japan	"Offshore of Mizushima, Okayama"	34.48055556		133.665														18.8	19.5	8	6.8	5,800			2		2.3	"Dark Green"																			2019/9/18	2019/11/28
PRA000099	SAA006611	ST014				Hiroshima_w2_2017	Water	"Sea water"	2017	11	8	2017-11-08T09:45			Cloudy	Asia	Japan	"Kure Port, Hiroshima"	34.23361111		132.5391667														18.2	20.4	8.3	8.5				3		6	"Dark Bluish green"																			2019/11/28	2019/11/28
PRA000099	SAA006612	ST014				Hiroshima_w3_2017	Water	"Sea water"	2017	11	8	2017-11-08T12:15			Rain	Asia	Japan	"Hiroshima Bay (Hiroshima City), Hiroshima"	34.34833333		132.4225														20.2	18.7	8.4	11				3		3	"Dark Bluish green"																			2019/11/28	2019/11/28
PRA000099	SAA006342	ST014				Yamagachi_w1_2017	Water	"Sea water"	2017	10	5	2017-10-05T10:56			Fair	Asia	Japan	"Tokuyama Bay, Yamaguchi"	33.99361111		131.7505556														22	23	8.2	6.2				3.2		5.5	"Bluish green"																		"SS: 3 mg/L (for Monitoring)"	2019/9/18	2019/11/28
PRA000099	SAA006613	ST014				Yamaguchi_w3_2017	Water	"Sea water"	2017	10	13	2017-10-13T11:55			Cloudy	Asia	Japan	"Offshore of Ube, Yamaguchi"	33.915		131.1975														21.9	21.5	8.2	7.2				4		4	"Grayish green"																			2019/11/28	2019/11/28
PRA000099	SAA006343	ST014				Yamaguchi_w2_2017	Water	"Sea water"	2017	11	10	2017-11-10T10:17			Fair	Asia	Japan	"Offshore of Hagi, Yamaguchi"	34.43805556		131.3794444														15	20	8.4	7.6				1.4		9.5	"Bluish green"																		"SS: 1 mg/L (for Monitoring)"	2019/9/18	2019/11/28
PRA000099	SAA006614	ST015				Tokushima_w1_2017	Water	"River water"	2017	11	2	2017-11-02T09:12			Fair	Asia	Japan	"Mouth of Riv. Yoshino (Tokushima City), Tokushima"	34.085		134.5913889														14	14.8	7.5	9.8	550			5		2	"Grayish green"																			2019/11/28	2019/11/28
PRA000099	SAA006345	ST014				Kagawa_w1_2017	Water	"Sea water"	2017	10	4	2017-10-04T08:55			Fair	Asia	Japan	"Takamatsu Port, Kagawa"	34.34972222		134.0788889														20.5	21.2	7.8	7.1				5		0.5	"Greenish brown"																			2019/9/18	2019/11/28
PRA000099	SAA006615	ST015				Kochi_w2_2017	Water	"River water"	2017	11	2	2017-11-02T09:05			Fair	Asia	Japan	"Mouth of Riv. Shimanto (Shimanto City), Kochi"	32.93777778		132.8441667														21.2	16.8	7.1	9.2	210			2			Clear																			2019/11/28	2019/11/28
PRA000099	SAA006349	ST014				KitakyushuCity_w1_2017	Water	"Sea water"	2017	10	17	2017-10-17T09:25			Cloudy	Asia	Japan	"Dokai Bay (Kitakyushu City), Fukuoka"	33.90388889		130.8158333														18.4	21.3	7.8	6	4,300			2		3	Clear																			2019/09/13	2019/09/13
PRA000099	SAA006351	ST014				Saga_w1_2017	Water	"Sea water"	2017	11	1	2017-11-01T10:30			Fair	Asia	Japan	"Imari Bay, Saga"	33.34		129.8208333														16.5	17.8	8.3	6.4	4,200			4		2.8	Green																			2019/9/18	2019/11/28
PRA000099	SAA006616	ST014				Nagasaki_w1_2017	Water	"Sea water"	2017	11	10	2017-11-10T10:15			Cloudy	Asia	Japan	"Omura Bay, Nagasaki"	32.98833333		129.8522222														19	20.4	8.2	7.7				5		5.4	"Light Greenish blue"																			2019/11/28	2019/11/28
PRA000099	SAA006352	ST015				Kumamoto_w1_2017	Water	"River water"	2017	11	1	2017-11-01T13:25			Fair	Asia	Japan	"Hiraki-bashi Bridge, Riv. Midori (Uto City), Kumamoto"	32.71638889		130.6422222														23.3	18.6	7.7	8.1	110			40			"Light Brown"																			2019/09/13	2019/09/13
PRA000099	SAA006472	ST015				Miyazaki_w3_2017	Water	"River water"	2017	10	4	2017-10-04T10:37			Fair	Asia	Japan	"Mouth of Riv. Oyodo (Miyazaki City), Miyazaki"	31.89611111		131.4402778														24.5	22.2	7.5	8.2	460			25			Clear																			2019/9/18	2019/11/28
PRA000099	SAA006617	ST015				Kagoshima_w1_2017	Water	"River water"	2017	9	26	2017-09-26T12:31			Cloudy	Asia	Japan	"Shinkawa-bashi Bridge, Riv. Amori (Kirishima City), Kagoshima"	31.7225		130.7416667														27.7	22.3	7.5	8.4				4			Clear																			2019/11/28	2019/11/28
PRA000099	SAA006618	ST015				Kagoshima_w2_2017	Water	"River water"	2017	9	28	2017-09-28T12:21			Fair	Asia	Japan	"Gotanda-bashi Bridge, Riv. Gotanda (Ichikikushikino City), Kagoshima"	31.72583333		130.2769444														24.8	23.8	7.5	8.2				8			"Light Grayish green"																			2019/11/28	2019/11/28
PRA000099	SAA006619	ST014				Okinawa_w1_2017	Water	"Sea water"	2017	10	3	2017-10-03T11:00			Fair	Asia	Japan	"Naha Port, Okinawa"	26.21222222		127.665														29	30.2	8.1	6.1	4600			4		1.5	Clear																			2019/11/28	2019/11/28
PRA000099	SAA006620	ST024				Hokkaido_sed1-123_2017	Sediment	"River sediment"	2017	9	26	2017-09-26T09:50			Fair	Asia	Japan	"Onnnenai-ohashi Bridge, Riv. Teshio (BifukaTown), Hokkaido"	44.59138889		142.3063889														17.3												0.2		"Blackish brown"		Odorless	None	22.1/22.7	1.4/2.3									"n=3 pooled:"	2019/12/16	2019/12/16
PRA000099	SAA006621	ST024				Hokkaido_sed2-123_2017	Sediment	"River sediment"	2017	11	10				Cloudy	Asia	Japan	"Ishikarikakokyo Bridge, Mouth of Riv. Ishikari (Ishikari City), Hokkaido"	43.22861111		141.3519444																																"35.1; 56.0; 50.5 (Each) / 39.7 (Mixed)"	"5.9; 16.0; 11.0 (Each) / 4.7 (Mixed)"									"n=3 pooled:SAA006355, SAA006356, SAA006357"	2019/12/16	2019/12/16
PRA000099	SAA006622	ST023				Hokkaido_sed3-123_2017	Sediment	"Marine sediment"	2017	9	11				Fair	Asia	Japan	"Tomakomai Port, Hokkaido"	42.63138889		141.6288889																																"59.6; 36.2; 42.9 (Each) / 49.7 (Mixed)"	"6.2; 2.5; 3.2 (Each) / 5.2 (Mixed)"									"n=3 pooled: SAA006358, SAA006359, SAA006360"	2019/12/16	2019/12/16
PRA000099	SAA006623	ST024				Iwate_sed1-123_2017	Sediment	"River sediment"	2017	10	4				"Cloudy & Fair"	Asia	Japan	"Riv. Toyosawa (Hanamaki City), Iwate"	39.38166667		141.1191667																																"23.2; 22.1; 25.6 (Each) / 25.5 (Mixed)"	"1.9; 1.9; 2.2 (Each) / 2.1 (Mixed)"									"n=3 pooled: SAA006363, SAA006364, SAA006365"	2019/12/16	2019/12/16
PRA000099	SAA006627	ST023				Miyagi_sed1_123_2017	Sediment	"Marine sediment"	2017	10	17				Fair	Asia	Japan	"Sendai Bay (Matsushima Bay), Miyagi"	38.35333333		141.0975																																"61.8; 71.5; 67.8 (Each) / 68.9 (Mixed)"	"11.3; 13.7; 12.9(Each) / 9.1 (Mixed)"									"n=3 pooled: SAA006624, SAA006625, SAA006626"	2019/12/16	2019/12/16
PRA000099	SAA006628	ST024				Sendai_sed1_123_2017	Sediment	"River sediment"	2017	11	14				Cloudy	Asia	Japan	"Hirose-ohashi Bridge, Riv. Hirose (Sendai City), Miyagi"	38.21333333		140.9088889																																"11.2; 9.5; 16.2 (Each) / 14.1 (Mixed)"	"1.1; 1.0; 1.4 (Each) / 1.0 (Mixed)"									"n=3 pooled: SAA006363, SAA006364, SAA006365"	2019/12/16	2019/12/16
PRA000099	SAA006632	ST024				Akita_sed2-123_2017	Sediment	"Lake Sediment"	2017	9	22				Fair	Asia	Japan	"Lake Hachiro, Akita"	39.92277778		139.9988889																																"80.0; 78.6; 81.5 (Each) / 78.7 (Mixed)"	"11.9; 12.0; 12.2 (Each) / 9.7 (Mixed)"									"n=3 pooled: SAA006358, SAA006359, SAA006360"	2019/12/16	2019/12/16
PRA000099	SAA006633	ST024				Yamagata_sed1-123_2017	Sediment	"River sediment"	2017	10	18				Cloudy	Asia	Japan	"Mouth of Riv. Mogami (Sakata City), Yamagata"	38.88722222		139.8433333																																"33.9; 30.4; 32.9 (Each) / 35.0 (Mixed)"	"4.2; 2.9; 3.8 (Each) / 3.0 (Mixed)"									"n=3 pooled: SAA006479, SAA006480, SAA006481"	2019/12/16	2019/12/16
PRA000099	SAA006637	ST023				Fukushima_sed1-123_2017	Sediment	"Marine sediment"	2017	10	11				Cloudy	Asia	Japan	"Onahama Port, Fukushima"	36.92472222		140.8752778																																"45.7; 44.0; 48.8 (Each) / 55.6 (Mixed)"	"7.6; 8.2; 9.3 (Each) / 8.8 (Mixed)"									"n=3 pooled: SAA006634, SAA006635, SAA006636"	2019/12/16	2019/12/16
PRA000099	SAA006638	ST024				Ibaraki_sed1-123_2017	Sediment	"River sediment"	2017	11	17				Fair	Asia	Japan	"Kamome-ohasi Bridge, Mouth of Riv. Tone (Kamisu City), Ibaraki"	35.77638889		140.7569444																																"29.0; 31.0; 25.0 (Each) / 33.9 (Mixed)"	"3.7; 5.3; 2.0 (Each) / 2.9 (Mixed)"									"n=3 pooled: SAA006482, SAA006483, SAA006484"	2019/12/16	2019/12/16
PRA000099	SAA006642	ST024				Tochigi_sed1-123_2017	Sediment	"River sediment"	2017	10	18				Fair	Asia	Japan	"Tagawa area-Toshuko Weir (Utsunomiya City), Tochigi"	36.52805556		139.8855556																																"NA(Each) /21.1 (Mixed)"	"NA (Each) / 0.7 (Mixed)"									"n=3 pooled: SAA006639, SAA006640, SAA006641"	2019/12/16	2019/12/16
PRA000099	SAA006643	ST023				Chiba_sed1-123_2017	Sediment	"Marine sediment"	2017	10	19				Rain	Asia	Japan	"Ichihara-Anesaki Coast, Chiba"	35.52166667		140.0283333																																"54.0; 50.5; 73.9 (Each) / 69.2 (Mixed)"	"8.5; 7.5; 13.2 (Each) / 7.6 (Mixed)"									"n=3 pooled: SAA006369, SAA006370, SAA006371"	2019/12/16	2019/12/16
PRA000099	SAA006647	ST024				ChibaCity_sed1-123_2017	Sediment	"River sediment"	2017	11	13				Fair	Asia	Japan	"Mouth of Riv. Hanami (Chiba City), Chiba"	35.63472222		140.04694440																																"26.0; 29.8; 22.4 (Each) / 24.7 (Mixed)"	"3.6; 4.3; 2.9 (Each) / 2.2 (Mixed)"									"n=3 pooled: SAA006644, SAA006645, SAA006646"	2019/12/16	2019/12/16
PRA000099	SAA006648	ST024				Tokyo_sed1-123_2017	Sediment	"River sediment"	2017	11	15				"Cloudy & Fair"	Asia	Japan	"Mouth of Riv. Arakawa (Koto Ward), Tokyo"	35.64583333		139.8463889																																"50.3; 49.9; 47.7 (Each) / 53.6 (Mixed)"	"9.9; 9.2; 7.4 (Each) / 7.7 (Mixed)"									"n=3 pooled: SAA006372, SAA006373, SAA006374"	2019/12/16	2019/12/16
PRA000099	SAA006649	ST024				Tokyo_sed2-123_2017	Sediment	"River sediment"	2017	11	15				Fair	Asia	Japan	"Mouth of Riv. Sumida (Minato Ward), Tokyo"	35.66		139.7705556																																"50.6; 60.8; 56.0 (Each) / 66.2 (Mixed)"	"13.0; 13.0; 13.0 (Each) / 10.7 (Mixed)"									"n=3 pooled: SAA006375, SAA006376, SAA006377"	2019/12/16	2019/12/16
PRA000099	SAA006650	ST023				Yokohama_sed1-123_2017	Sediment	"Marine sediment"	2017	11	6				Fair	Asia	Japan	"Yokohama Port, Kanagawa"	35.45555556		139.6636111																																"65.2; 75.1; 66.9 (Each) / 62.5 (Mixed)"	"8.5; 10.6; 8.2 (Each) / 7.8 (Mixed)"									"n=3 pooled: SAA006378, SAA006379, SAA006380"	2019/12/16	2019/12/16
PRA000099	SAA006654	ST024				KawasakiCity_sed1-123_2017	Sediment	"River sediment"	2017	11	13				Fair	Asia	Japan	"Mouth of Riv. Tama (Kawasaki City), Kanagawa"	35.53		139.7836111																																"34.8; 18.9; 34.6 (Each) / 39.9 (Mixed)"	"7.6; 2.8; 7.6 (Each) / 5.1 (Mixed)"									"n=3 pooled: SAA006651, SAA006652, SAA006653"	2019/12/16	2019/12/16
PRA000099	SAA006655	ST023				KawasakiCity_sed2-123_2017	Sediment	"Marine sediment"	2017	11	13				Fair	Asia	Japan	"Keihin Canal, Kawasaki Port, Kanagawa (front of Ogimachi)"	35.49527778		139.7277778																																"52.7; 62.0; 51.1 (Each) / 65.9 (Mixed)"	"10.4; 13.4; 10.1 (Each) / 9.0 (Mixed)"									"n=3 pooled: SAA006485, SAA006486, SAA006487"	2019/12/16	2019/12/16
PRA000099	SAA006656	ST024				Niigata_sed1-123_2017	Sediment	"River sediment"	2017	10	11				Cloudy	Asia	Japan	"Downstream of Riv. Shinano (Niigata City), Niigata"	37.88305556		139.0155556																																"44.8; 18.9; 21.8 (Each) / 23.9 (Mixed)"	"4.1; 1.4; 1.1 (Each) / 1.9 (Mixed)"									"n=3 pooled: SAA006382, SAA006381, SAA006383"	2019/12/16	2019/12/16
PRA000099	SAA006657	ST024				Toyama_sed1-123_2017	Sediment	"River sediment"	2017	11	9				"Fair & Cloudy"	Asia	Japan	"Hagiura-bashi Bridge, Mouth of Riv. Jintsu (Toyama City), Toyama"	36.745		137.2180556																																"40.0; 28.0; 23.0 (Each) / 30.4 (Mixed)"	"5.5; 2.5; 1.7 (Each) / 2.8 (Mixed)"									"n=3 pooled: SAA006488, SAA006489, SAA006490"	2019/12/16	2019/12/16
PRA000099	SAA006658	ST024				Ishikawa_sed1-123_2017	Sediment	"River sediment"	2017	10	11				Cloudy	Asia	Japan	"Mouth of Riv. Sai (Kanazawa City), Ishikawa"	36.60027778		136.5888889																																"20.0; 22.0; 25.0 (Each) / 30.3 (Mixed)"	"2.3; 1.5; 2.0 (Each) / 2.7 (Mixed)"									"n=3 pooled: SAA006384, SAA006385, SAA006386"	2019/12/16	2019/12/16
PRA000099	SAA006662	ST024				Fukui_sed1-123_2017	Sediment	"River sediment"	2017	11	2				Fair	Asia	Japan	"Mishima-bashi Bridge, Riv. Shono (Tsuruga City), Fukui"	35.64694444		136.0630556																																"25.2; 19.7; 19.4 (Each) / 14.1 (Mixed)"	"0.8; 0.9; 0.9 (Each) / 0.5 (Mixed)"									"n=3 pooled: SAA006659, SAA006660, SAA006661"	2019/12/16	2019/12/16
PRA000099	SAA006666	ST024				Yamanashi_sed1-123_2017	Sediment	"River sediment"	2017	11	6				Fair	Asia	Japan	"Chiaki-bashi Bridge, Riv. Ara (Kofu City), Yamanashi"	35.6475		138.5655556																																"20.0; 2.3; 27.0 (Each) / 19.6 (Mixed)"	"1.1; 1.3; 1.1 (Each) / 0.7 (Mixed)"									"n=3 pooled: SAA006663, SAA006664, SAA006665"	2019/12/16	2019/12/16
PRA000099	SAA006667	ST024				Nagano_sed1-123_2017	Sediment	"Lake sediment"	2017	11	13				Fair	Asia	Japan	"Center of Lake Suwa, Nagano"	36.05		138.0861111																																"78.8; 78.3; 78.3 (Each) / 86.3 (Mixed)"	"14.5; 14.7; 15.2 (Each) / 13.4 (Mixed)"									"n=3 pooled: SAA006387, SAA006388, SAA006389"	2019/12/16	2019/12/16
PRA000099	SAA006668	ST023				Shizuoka_sed1-123_2017	Sediment	"Marine sediment"	2017	11	8				Rain	Asia	Japan	"Shimizu Port, Shizuoka"	35.02416667		138.5161111																																"27.2; 25.5; 29.8 (Each) / 35.3 (Mixed)"	"4.4; 4.5; 5.4 (Each) / 4.3 (Mixed)"									"n=3 pooled: SAA006494, SAA006495, SAA006496"	2019/12/16	2019/12/16
PRA000099	SAA006669	ST024				Shizuoka_sed3-123_2017	Sediment	"River sediment"	2017	10	5				Cloudy	Asia	Japan	"Riv. Tenryu (Iwata City), Shizuoka"	34.67916667		137.7961111																																"15.0; 16.0; 20.5 (Each) / 20.2 (Mixed)"	"1.4; 1.1; 1.7 (Each) / 1.2 (Mixed)"									"n=3 pooled: SAA006497, SAA006498, SAA006499"	2019/12/16	2019/12/16
PRA000099	SAA006673	ST023				Aichi_sed2-123_2017	Sediment	"Marine sediment"	2017	11	13				Cloudy	Asia	Japan	"Kinuura Port, Aichi"	34.84166667		136.9486111																																"51.0; 52.2; 51.9 (Each) / 65.4 (Mixed)"	"9.9; 10.8; 13.0 (Each) / 9.5 (Mixed)"									"n=3 pooled: SAA006670, SAA006671, SAA006672"	2019/12/16	2019/12/16
PRA000099	SAA006677	ST023				Aichi_sed1-123_2017	Sediment	"Marine sediment"	2017	11	13				Cloudy	Asia	Japan	"Nagoya Port, West of Shiomi Wharf, Aichi"	35.07111111		136.8691667																																"43.0; 41.5; 47.1 (Each) / 60.1 (Mixed)"	"7.5; 7.3; 8.9 (Each) / 7.2 (Mixed)"									"n=3 pooled: SAA006674, SAA006675, SAA006676"	2019/12/16	2019/12/16
PRA000099	SAA006678	ST023				Mie_sed1-123_2017	Sediment	"Marine sediment"	2017	10	24				Cloudy	Asia	Japan	"Yokkaichi Port, Mie"	34.94944444		136.6530556																																"70.0; 74.0; 57.0 (Each) / 64.4 (Mixed)"	"8.9; 9.8; 5.7 (Each) / 6.8 (Mixed)"									"n=3 pooled: SAA006393, SAA006394, SAA006395"	2019/12/16	2019/12/16
PRA000099	SAA006682	ST023				Mie_sed2-123_2017	Sediment	"Marine sediment"	2017	10	17				Rain	Asia	Japan	"Toba Port, Mie"	34.48083333		136.8486111																																"53.0; 48.0; 55.0 (Each) / 45.3 (Mixed)"	"8.9; 8.1; 9.1 (Each) / 7.3 (Mixed)"									"n=3 pooled: SAA006679, SAA006680, SAA006681"	2019/12/16	2019/12/16
PRA000099	SAA006683	ST024				Shiga_sed1-123_2017	Sediment	"Lake Sediment"	2017	10	11				Fair	Asia	Japan	"Lake Biwa (center, offshore of Minamihira), Shiga"	35.18527778		135.9733333																																"70.2; 69.4; 69.2 (Each) / 80.3 (Mixed)"	"11.2; 11.3; 11.1 (Each) / 10.5 (Mixed)"									"n=3 pooled: SAA006500, SAA006501, SAA006502"	2019/12/16	2019/12/16
PRA000099	SAA006684	ST024				Shiga_sed2-123_2017	Sediment	"Lake Sediment"	2017	10	11				Fair	Asia	Japan	"Lake Biwa (center, offshore of Karasaki), Shiga"	35.04611111		135.8955556																																"66.3; 67.1; 44.1 (Each) / 70.3 (Mixed)"	"10.7; 10.9; 5.3 (Each) / 8.0 (Mixed)"									"n=3 pooled: SAA006503, SAA006504, SAA006505"	2019/12/16	2019/12/16
PRA000099	SAA006685	ST023				Kyoto_sed1-123_2017	Sediment	"Marine sediment"	2017	10	19				"Cloudy with occasional rain"	Asia	Japan	"Miyazu Port, Kyoto"	35.58305556		135.2138889																																"26.1; 49.9; 52.3 (Each) / 47.1 (Mixed)"	"2.4; 8.2; 8.8 (Each) / 6.0 (Mixed)"									"n=3 pooled: SAA006396, SAA006397, SAA006398"	2019/12/16	2019/12/16
PRA000099	SAA006686	ST024				KyotoCity_sed1-123_2017	Sediment	"River sediment"	2017	11	29				Cloudy	Asia	Japan	"Miyamae-bashi Bridge, Riv. Katsura (Kyoto City), Kyoto"	34.905		135.7125																																"20.0; 19.1; 19.5 (Each) / 18.4 (Mixed)"	"0.9; 0.9; 0.9 (Each) / 0.8 (Mixed)"									"n=3 pooled: SAA006506, SAA006507, SAA006508"	2019/12/16	2019/12/16
PRA000099	SAA006687	ST024				Osaka_sed1-123_2017	Sediment	"River sediment"	2017	11	7				Fair	Asia	Japan	"Mouth of Riv. Yamato (Sakai City), Osaka"	34.60833333		135.4325																																"45.5; 44.6; 45.3 (Each) / 55.1 (Mixed)"	"10.5; 9.0; 11.1 (Each) / 8.9 (Mixed)"									"n=3 pooled: SAA006399, SAA006400, SAA006401"	2019/12/16	2019/12/16
PRA000099	SAA006691	ST024				OsakaCity_sed2-123_2017	Sediment	"River sediment"	2017	12	5				"Cloudy & Fair"	Asia	Japan	"Kema-bashi Bridge, Riv. Oh (Osaka City), Osaka"	34.717760		135.519610																																"42.8; 49.2; 51.5 (Each) / 58.7 (Mixed)"	"7.6; 9.4; 9.7 (Each) / 9.8 (Mixed)"									"n=3 pooled: SAA006688, SAA006689, SAA006690"	2019/12/16	2019/12/16
PRA000099	SAA006695	ST024				OsakaCity_sed3-123_2017	Sediment	"River sediment"	2017	12	20				Fair	Asia	Japan	"Mouth of Riv. Yodo, Osaka"	34.67638889		135.3975																																"44.2; 39.8; 36.2 (Each) / 51.5 (Mixed)"	"9.0; 7.6; 6.7 (Each) / 7.9 (Mixed)"									"n=3 pooled: SAA006692, SAA006693, SAA006694"	2019/12/16	2019/12/16
PRA000099	SAA006696	ST023				OsakaCity_sed1-123_2017	Sediment	"Marine sediment"	2017	12	20				Fair	Asia	Japan	"Osaka Port, Osaka"	34.65861111		135.4313889																																"57.9; 57.4; 60.5 (Each) / 69.2 (Mixed)"	"11.1; 10.5; 10.9 (Each) / 10.5 (Mixed)"									"n=3 pooled: SAA006509, SAA006510, SAA006511"	2019/12/16	2019/12/16
PRA000099	SAA006700	ST023				OsakaCity_sed4-123_2017	Sediment	"Marine sediment"	2017	12	20				Fair	Asia	Japan	"Outside of Osaka Port, Osaka"	34.64027778		135.3858333																																"54.8; 45.5; 54.8 (Each)/ 61.6 (Mixed)"	"9.4; 6.7; 9.1 (Each) / 7.1 (Mixed)"									"n=3 pooled: SAA006697, SAA006698, SAA006699"	2019/12/16	2019/12/16
PRA000099	SAA006701	ST023				Hyogo_sed1-123_2017	Sediment	"Marine sediment"	2017	10	11				"Cloudy & Fair"	Asia	Japan	"Offshore of Himeji, Hyogo"	34.76194444		134.6697222																																"NA (Each) / 70.9 (Mixed)"	"NA (Each) / 9.8 (Mixed)"									"n=3 pooled: SAA006515, SAA006516, SAA006517"	2019/12/16	2019/12/16
PRA000099	SAA006702	ST023				Hyogo_sed2-123_2017	Sediment	"Marine sediment"	2017	11	1				Fair	Asia	Japan	"Center of Kobe Port, Hyogo"	34.66444444		135.1944444																																"53.3; 50.0; 58.3 (Each) / 63.4 (Mixed)"	"8.8; 8.9; 10.0 (Each) / 8.1 (Mixed)"									"n=3 pooled: SAA006402, SAA006403, SAA006404"	2019/12/16	2019/12/16
PRA000099	SAA006703	ST024				Nara_sed1_123_2017	Sediment	"River sediment"	2017	10	12				Rain	Asia	Japan	"Taisho-bashi Bridge, Riv. Yamato (Oji town), Nara"	34.58583333		135.6833333																																"27.0; 9.8; 10.0 (Each) / 17.6 (Mixed)"	"1.6; 0.5; 0.6 (Each) / 0.8 (Mixed)"									"n=3 pooled: SAA006518, SAA006519, SAA006520"	2019/12/16	2019/12/16
PRA000099	SAA006704	ST024				Wakayama_sed1-123_2017	Sediment	"River sediment"	2017	11	7				"Fair & Cloudy"	Asia	Japan	"Kinokawa-ohashi Bridge, Mouth of Riv. Kinokawa (Wakayama City), Wakayama"	34.23		135.1561111																																"20.0; 20.3; 18.4 (Each) / 18.3 (Mixed)"	"1.4; 1.5; 2.4 (Each) / 1.6 (Mixed)"									"n=3 pooled: SAA006405, SAA006407, SAA006406"	2019/12/16	2019/12/16
PRA000099	SAA006705	ST023				Okayama_sed1-123_2017	Sediment	"Marine sediment"	2017	10	31				Fair	Asia	Japan	"Offshore of Mizushima, Okayama"	34.48055556		133.665																																"45.3; 51.0; 44.0 (Each) / 45.3 (Mixed)"	"6.1; 7.0; 5.8 (Each) / 5.4 (Mixed)"									"n=3 pooled: SAA006524, SAA006525, SAA006526"	2019/12/16	2019/12/16
PRA000099	SAA006709	ST023				Hiroshima_sed1-123_2017	Sediment	"Marine sediment"	2017	11	8				Cloudy	Asia	Japan	"Kure Port, Hiroshima"	34.23361111		132.5391667																																"62.0; 62.6; 52.5 (Each) / 70.0 (Mixed)"	"10.5; 10.5; 7.2 (Each) / 9.8 (Mixed)"									"n=3 pooled: SAA006706, SAA006707, SAA006708"	2019/12/16	2019/12/16
PRA000099	SAA006713	ST023				Hiroshima_sed2-123_2017	Sediment	"Marine sediment"	2017	11	8				"Rain & Cloudy"	Asia	Japan	"Hiroshima Bay (Hiroshima City), Hiroshima"	34.34833333		132.4225																																"59.5; 58.9; 58.9 (Each) / 69.5 (Mixed)"	"10.6; 10.7; 10.8 (Each) / 11.3 (Mixed)"									"n=3 pooled: SAA006710, SAA006711, SAA006712"	2019/12/16	2019/12/16
PRA000099	SAA006717	ST023				Yamaguchi_sed1-123_2017	Sediment	"Marine sediment"	2017	10	5				Fair	Asia	Japan	"Tokuyama Bay, Yamaguchi"	33.99361111		131.7505556																																"64.1; 62.6; 62.2 (Each) / 66.9 (Mixed)"	"10.1; 10.0; 10.1 (Each) / 8.0 (Mixed)"									"n=3 pooled: SAA006714, SAA006715, SAA006716"	2019/12/16	2019/12/16
PRA000099	SAA006721	ST023				Yamaguchi_sed2-123_2017	Sediment	"Marine sediment"	2017	10	13				Cloudy	Asia	Japan	"Offshore of Ube, Yamaguchi"	33.915		131.1975																																"31.0; 30.1; 30.0 (Each) / 43.6 (Mixed)"	"7.3; 7.3; 7.3 (Each) / 5.6 (Mixed)"									"n=3 pooled: SAA006718, SAA006719, SAA006720"	2019/12/16	2019/12/16
PRA000099	SAA006722	ST023				Yamaguchi_sed3-123_2017	Sediment	"Marine sediment"	2017	11	10				Fair	Asia	Japan	"Offshore of Hagi, Yamaguchi"	34.43805556		131.3794444																																"35.7; 34.2; 33.7 (Each) / 33.2 (Mixed)"	"5.8; 5.8; 5.7 (Each) / 5.2 (Mixed)"									"n=3 pooled: SAA006527, SAA006528, SAA006529"	2019/12/16	2019/12/16
PRA000099	SAA006726	ST024				Tokushima_sed1-123_2017	Sediment	"River sediment"	2017	11	2				Fair	Asia	Japan	"Mouth of Riv. Yoshino (Tokushima City), Tokushima"	34.085		134.5913889																																"12.0; 16.0; 36.0 (Each) / 23.9 (Mixed)"	"1.0; 1.0; 4.8 (Each) / 1.9 (Mixed)"									"n=3 pooled: SAA006723, SAA006724, SAA006725"	2019/12/16	2019/12/16
PRA000099	SAA006727	ST023				Kagawa_sed1-123_2017	Sediment	"Marine sediment"	2017	10	4				Fair	Asia	Japan	"Takamatsu Port, Kagawa"	34.34972222		134.0788889																																"28.4; 43.9; 47.2 (Each) / 59.9 (Mixed)"	"4.9; 9.6; 10.2 (Each) / 9.4 (Mixed)"									"n=3 pooled: SAA006411, SAA006412, SAA006413"	2019/12/16	2019/12/16
PRA000099	SAA006731	ST023				Ehime_sed1-123_2017	Sediment	"Marine sediment"	2017	11	6				Fair	Asia	Japan	"Niihama Port, Ehime"	33.98777778		133.3144444																																"22.6; 22.6; 22.8 (Each) / 21.6 (Mixed)"	"1.6; 1.5; 1.5 (Each) / 1.5 (Mixed)"									"n=3 pooled: SAA006728, SAA006729, SAA006730"	2019/12/16	2019/12/16
PRA000099	SAA006735	ST024				Kochi_sed1-123_2017	Sediment	"River sediment"	2017	11	2				Fair	Asia	Japan	"Mouth of Riv. Shimanto (Shimanto City), Kochi"	32.93777778		132.8441667																																"43.7; 25.9; 22.1 (Each) / 33.6 (Mixed)"	"9.3; 2.9; 2.5 (Each) / 3.8 (Mixed)"									"n=3 pooled: SAA006732, SAA006733, SAA006734"	2019/12/16	2019/12/16
PRA000099	SAA006736	ST023				KitakyushuCity_sed1-123_2017	Sediment	"Marine sediment"	2017	10	17				Cloudy	Asia	Japan	"Dokai Bay (Kitakyushu City), Fukuoka"	33.90388889		130.8158333																																"78.6; 80.4; 53.6 (Each) / 43.3 (Mixed)"	"7.2; 7.4; 28.9 (Each) / 7.4 (Mixed)"									"n=3 pooled: SAA006414, SAA006415, SAA006416"	2019/12/16	2019/12/16
PRA000099	SAA006737	ST023				FukuokaCity_sed1-123_2017	Sediment	"Marine sediment"	2017	10	31				Fair	Asia	Japan	"Hakata Bay, Fukuoka"	33.60833333		130.3297222																																"40.5; 40.6; 39.3 (Each) / 51.0 (Mixed)"	"9.3; 9.2; 8.9 (Each) / 8.7 (Mixed)"									"n=3 pooled: SAA006530, SAA006531, SAA006532"	2019/12/16	2019/12/16
PRA000099	SAA006738	ST023				Saga_sed1-123_2017	Sediment	"Marine sediment"	2017	11	1				Fair	Asia	Japan	"Imari Bay, Saga"	33.34		129.8208333																																"63.9; 61.4; 63.8 (Each) / 63.4 (Mixed)"	"11.7; 15.8; 12.7 (Each) / 9.8 (Mixed)"									"n=3 pooled: SAA006533, SAA006534, SAA006535"	2019/12/16	2019/12/16
PRA000099	SAA006742	ST023				Nagasaki_sed1-123_2017	Sediment	"Marine sediment"	2017	11	10				Cloudy	Asia	Japan	"Omura Bay, Nagasaki"	32.98833333		129.8522222																																"53.4; 54.6; 58.2 (Each) / 66.5 (Mixed)"	"11.9; 12.2; 12.5 (Each) / 12.9 (Mixed)"									"n=3 pooled: SAA006739, SAA006740, SAA006741"	2019/12/16	2019/12/16
PRA000099	SAA006743	ST024				Oita_sed1-123_2017	Sediment	"River sediment"	2017	11	14				"Light rain"	Asia	Japan	"Mouth of Riv. Oita, Oita"	33.25722222		131.6175																																"22.4; 22.3; 21.6 (Each) / 19.5 (Mixed)"	"0.8; 0.9; 1.5 (Each) / 1.0 (Mixed)"									"n=3 pooled: SAA006536, SAA006537, SAA006538"	2019/12/16	2019/12/16
PRA000099	SAA006744	ST024				Miyazaki_sed1-123_2017	Sediment	"River sediment"	2017	10	4				Fair	Asia	Japan	"Mouth of Riv. Oyodo (Miyazaki City), Miyazaki"	31.89611111		131.4402778																																"20.0; 18.0; 17.0 (Each) / 19.7 (Mixed)"	"1.3; 1.4; 1.4 (Each) / 1.1 (Mixed)"									"n=3 pooled: SAA006539, SAA006540, SAA006541"	2019/12/16	2019/12/16
PRA000099	SAA006748	ST024				Kagoshima_sed1-123_2017	Sediment	"River sediment"	2017	9	26				Cloudy	Asia	Japan	"Riv. Amori (Kirishima City), Kagoshima"	31.7225		130.7416667																																"18.0; 22.0; 20.0 (Each) / 18.5 (Mixed)"	"1.0; 1.0; 0.9 (Each) / 1.0 (Mixed)"									"n=3 pooled: SAA006745, SAA006746, SAA006747"	2019/12/16	2019/12/16
PRA000099	SAA006752	ST024				Kagoshima_sed2-123_2017	Sediment	"River sediment"	2017	9	28				"Fair & Cloudy"	Asia	Japan	"Gotanda-bashi Bridge, Riv. Gotanda (Ichikikushikino City), Kagoshima"	31.72583333		130.2769444																																"22.0; 23.0; 20.0 (Each) / 26.1 (Mixed)"	"1.4; 1.4; 1.7 (Each) / 1.4 (Mixed)"									"n=3 pooled: SAA006749, SAA006750, SAA006751"	2019/12/16	2019/12/16
PRA000099	SAA006756	ST023				Okinawa_sed1-123_2017	Sediment	"Marine sediment"	2017	10	3				Fair	Asia	Japan	"Naha Port, Okinawa"	26.21222222		127.665																																"33.4; 33.2; 32.8 (Each) / 48.3 (Mixed)"	"7.4; 8.1; 8.9 (Each) / 10.1 (Mixed)"									"n=3 pooled: SAA006753, SAA006754, SAA006755"	2019/12/16	2019/12/16
PRA000101	SAA007139	ST009	157729			SP-5-O_2017	"Saccostrea mordax"	"Small rock oyster"	2017	8	4					Asia	Japan	"Gusuku, Nago City, Okinawa"	26.58727778		127.9801389			"Whole soft tissues"	2.1																																							2020/6/8	2020/6/8
PRA000101	SAA007140	ST009	157729			SP-7-O_2017	"Saccostrea mordax"	"Small rock oyster"	2017	8	4					Asia	Japan	"Onna Village, Okinawa"	26.50908333		127.8738333			"Whole soft tissues"	2.1																																							2020/6/8	2020/6/8
PRA000101	SAA007141	ST009	157729			SP-8-O_2017	"Saccostrea mordax"	"Small rock oyster"	2017	8	4					Asia	Japan	"Onna Village, Okinawa"	26.44736111		127.8030278			"Whole soft tissues"	1.8																																							2020/6/8	2020/6/8
PRA000101	SAA007142	ST009	157729			SP-9-O_2017	"Saccostrea mordax"	"Small rock oyster"	2017	8	4					Asia	Japan	"Onna Village, Okinawa"	26.438		127.7631667			"Whole soft tissues"	1.9																																							2020/6/8	2020/6/8
PRA000101	SAA007143	ST009	157729			SP-10-O_2017	"Saccostrea mordax"	"Small rock oyster"	2017	8	4					Asia	Japan	"Uruma City, Okinawa"	26.42780556		127.8323333			"Whole soft tissues"	2.5																																							2020/6/8	2020/6/8
PRA000101	SAA007144	ST009	157729			SP-11-O_2017	"Saccostrea mordax"	"Small rock oyster"	2017	8	4					Asia	Japan	"Okinawa City, Okinawa"	26.3235		127.8351111			"Whole soft tissues"	5.1																																							2020/6/8	2020/6/8
PRA000101	SAA007145	ST009	157729			SP-12-O_2017	"Saccostrea mordax"	"Small rock oyster"	2017	8	4					Asia	Japan	"Kadena Town, Okinawa"	26.36238889		127.7468889			"Whole soft tissues"	1.9																																							2020/6/8	2020/6/8
PRA000101	SAA007146	ST009	157729			SP-13-O_2017	"Saccostrea mordax"	"Small rock oyster"	2017	8	4					Asia	Japan	"Chatan Town, Okinawa"	26.32188889		127.755			"Whole soft tissues"	2.1																																							2020/6/8	2020/6/8
PRA000101	SAA007147	ST009	157729			SP-14-O_2017	"Saccostrea mordax"	"Small rock oyster"	2017	8	4					Asia	Japan	"Chatan Town, Okinawa"	26.29711111		127.7576944			"Whole soft tissues"	2.1																																							2020/6/8	2020/6/8
PRA000101	SAA007148	ST009	157729			SP-15-O_2017	"Saccostrea mordax"	"Small rock oyster"	2017	8	4					Asia	Japan	"Urasoe City, Okinawa"	26.27219444		127.7231111			"Whole soft tissues"	1.3																																							2020/6/8	2020/6/8
PRA000101	SAA007149	ST009	157729			SP-16-O_2017	"Saccostrea mordax"	"Small rock oyster"	2017	8	4					Asia	Japan	"Urasoe City, Okinawa"	26.24461111		127.6795			"Whole soft tissues"	1.9																																							2020/6/8	2020/6/8
PRA000101	SAA007150	ST009	157729			SP-17-O_2017	"Saccostrea mordax"	"Small rock oyster"	2017	8	4					Asia	Japan	"Naha City, Okinawa"	26.23080556		127.6803889			"Whole soft tissues"	2.4																																							2020/6/8	2020/6/8
PRA000101	SAA007151	ST009	157729			SP-18-O_2017	"Saccostrea mordax"	"Small rock oyster"	2017	8	4					Asia	Japan	"Naha City, Okinawa"	26.22702778		127.68075			"Whole soft tissues"	1.3																																							2020/6/8	2020/6/8
PRA000101	SAA007152	ST009	157729			SP-19-O_2017	"Saccostrea mordax"	"Small rock oyster"	2017	8	4					Asia	Japan	"Naha City, Okinawa"	26.22719444		127.6808056			"Whole soft tissues"	2.1																																							2020/6/8	2020/6/8
PRA000101	SAA007153	ST009	157729			SP-20-O_2017	"Saccostrea mordax"	"Small rock oyster"	2017	8	4					Asia	Japan	"Naha City, Okinawa"	26.20869444		127.6753889			"Whole soft tissues"	1.8																																							2020/6/8	2020/6/8
PRA000101	SAA007154	ST009	157729			SP-21-O_2017	"Saccostrea mordax"	"Small rock oyster"	2017	8	4					Asia	Japan	"Nanjo City, Okinawa"	26.182		127.7786944			"Whole soft tissues"	2																																							2020/6/8	2020/6/8
PRA000101	SAA007155	ST009	157729			SP-22-O_2017	"Saccostrea mordax"	"Small rock oyster"	2017	8	4					Asia	Japan	"Itoman City, Okinawa"	26.12988889		127.6683056			"Whole soft tissues"	2.2																																							2020/6/8	2020/6/8
PRA000101	SAA007156	ST009	157729			SP-1-O_2018	"Saccostrea mordax"	"Small rock oyster"	2018	5	26					Asia	Japan	"Ginama, Kunigami Village, Okinawa"	26.84938889		128.2525			"Whole soft tissues"	1.2																																							2020/6/8	2020/6/8
PRA000101	SAA007158	ST009	157729			SP-4-O_2018	"Saccostrea mordax"	"Small rock oyster"	2018	5	26					Asia	Japan	"Ada, Kunigami Village, Okinawa"	26.74138889		128.3188056			"Whole soft tissues"	1.5																																							2020/6/8	2020/6/8
PRA000101	SAA007160	ST009	157729			SP-6-O_2018	"Saccostrea mordax"	"Small rock oyster"	2018	5	26					Asia	Japan	"Teima, Nago City, Okinawa"	26.55133333		128.0637222			"Whole soft tissues"	0.53																																							2020/6/8	2020/6/8
PRA000101	SAA007162	ST009	157729			SP-7-O_2018	"Saccostrea mordax"	"Small rock oyster"	2018	5	25					Asia	Japan	"Onna Village, Okinawa"	26.50908333		127.8738333			"Whole soft tissues"	1.4																																							2020/6/8	2020/6/8
PRA000101	SAA007164	ST009	157729			SP-12-O_2018	"Saccostrea mordax"	"Small rock oyster"	2018	5	25					Asia	Japan	"Kadena Town, Okinawa"	26.36238889		127.7468889			"Whole soft tissues"	1.6																																							2020/6/8	2020/6/8
PRA000101	SAA007166	ST009	157729			SP-22-O_2018	"Saccostrea mordax"	"Small rock oyster"	2018	5	25					Asia	Japan	"Kadena Town, Okinawa"	26.12988889		127.6683056			"Whole soft tissues"	1.2																																							2020/6/8	2020/6/8
PRA000101	SAA007168	ST009	157729			SP-2-O_2018	"Saccostrea mordax"	"Small rock oyster"	2018	5	26					Asia	Japan	"Kunigami Village, Okinawa"	26.84980556		128.2533056			"Whole soft tissues"	1.7																																							2020/6/8	2020/6/8
PRA000101	SAA007169	ST009	157729			SP-3-O_2018	"Saccostrea mordax"	"Small rock oyster"	2018	5	26					Asia	Japan	"Hentona, Kunigami Village, Okinawa"	26.74880556		128.1763889			"Whole soft tissues"	0.9																																							2020/6/8	2020/6/8
PRA000101	SAA007170	ST009	157729			SP-1-O_2019	"Saccostrea mordax"	"Small rock oyster"	2019	7	2					Asia	Japan	"Ginama, Kunigami Village, Okinawa"	26.84938889		128.2525			"Whole soft tissues"	2	82																																						2020/6/8	2020/6/8
PRA000101	SAA007174	ST009	157729			SP-20-O_2019	"Saccostrea mordax"	"Small rock oyster"	2019	7	3					Asia	Japan	"Naha City, Okinawa"	26.20869444		127.6753889			"Whole soft tissues"	0.62	90																																						2020/6/8	2020/6/8
PRA000101	SAA007178	ST009	157729			SP-5-O_2019	"Saccostrea mordax"	"Small rock oyster"	2019	7	2					Asia	Japan	"Nago City, Okinawa"	26.58727778		127.9801389			"Whole soft tissues"	1.8	82																																						2020/6/8	2020/6/8
PRA000101	SAA007180	ST009	157729			SP-10-O_2019	"Saccostrea mordax"	"Small rock oyster"	2019	7	2					Asia	Japan	"Uruma City, Okinawa"	26.42780556		127.8323333			"Whole soft tissues"	1.4	86																																						2020/6/8	2020/6/8
PRA000101	SAA007182	ST009	157729			SP-21-O_2019	"Saccostrea mordax"	"Small rock oyster"	2019	7	1					Asia	Japan	"Nanjo City, Okinawa"	26.182		127.7786944			"Whole soft tissues"	1.6	83																																						2020/6/8	2020/6/8
PRA000111	SAA007595	ST004	103596	es-BANK	EW00086	820106-13	"Peponocephala electra"	"Melon-headed whale"	1982	1						Asia	Japan	"Aoshima, Miyazaki"	31.45	32.73333333	131.9163889	132.5502778	Male	Blubber	58		144.2	kg	236	cm	"Body length"	Immature	"12.5 y.o."																														"This sample is out of the same speciman as SAA002113."	2021/1/4	2021/1/4
PRA000111	SAA007596	ST004	103596	es-BANK	EW00089	820106-16	"Peponocephala electra"	"Melon-headed whale"	1982	1						Asia	Japan	"Aoshima, Miyazaki"	31.45	32.73333333	131.9163889	132.5502778	Male	Blubber	58		211.7	kg	258	cm	"Body length"	Mature																															"This sample is out of the same speciman as SAA002109."	2021/1/4	2021/1/4
PRA000111	SAA007597	ST004	103596	es-BANK	EW00090	820106-17	"Peponocephala electra"	"Melon-headed whale"	1982	1						Asia	Japan	"Aoshima, Miyazaki"	31.45	32.73333333	131.9163889	132.5502778	Male	Blubber	69		198.4	kg	251	cm	"Body length"	Mature	"37.5 y.o."																														"This sample is out of the same speciman as SAA002110."	2021/1/4	2021/1/4
PRA000111	SAA007598	ST004	103596	es-BANK	EW00091	820106-18	"Peponocephala electra"	"Melon-headed whale"	1982	1						Asia	Japan	"Aoshima, Miyazaki"	31.45	32.73333333	131.9163889	132.5502778	Male	Blubber	62		175.6	kg	247.5	cm	"Body length"	Mature	"24.5 y.o."																														"This sample is out of the same speciman as SAA002111."	2021/1/4	2021/1/4
PRA000111	SAA007599	ST004	103596	es-BANK	EW00093	820106-20	"Peponocephala electra"	"Melon-headed whale"	1982	1						Asia	Japan	"Aoshima, Miyazaki"	31.45	32.73333333	131.9163889	132.5502778	Male	Blubber	63		196.5	kg	247	cm	"Body length"	Mature	"41.5 y.o."																														"This sample is out of the same speciman as SAA002112."	2021/1/4	2021/1/4
PRA000111	SAA007600	ST004	103596	es-BANK	EW00113	M32623	"Peponocephala electra"	"Melon-headed whale"	2001	2	12					Asia	Japan	"Hasaki, Ibaraki"	35.73184444	35.82913333	140.7697722	140.8939278	Male	Blubber	70				270	cm	"Body length"	Mature																															"This sample is out of the same speciman as SAA002119."	2021/1/4	2021/1/4
PRA000111	SAA007601	ST004	103596	es-BANK	EW00121	M32632	"Peponocephala electra"	"Melon-headed whale"	2001	2	14					Asia	Japan	"Hasaki, Ibaraki"	35.73184444	35.82913333	140.7697722	140.8939278	Male	Blubber	67				249	cm	"Body length"	Mature																															"This sample is out of the same speciman as SAA002123."	2021/1/4	2021/1/4
PRA000111	SAA007602	ST004	103596	es-BANK	EW00124	M32654	"Peponocephala electra"	"Melon-headed whale"	2001	3	12					Asia	Japan	"Tanegashima, Kagoshima"	30.28055556	30.89444444	130.8252778	131.2708333	Male	Blubber	99				245.5	cm	"Body length"	Mature																															"This sample is out of the same speciman as SAA002124."	2021/1/4	2021/1/4
PRA000111	SAA007603	ST004	103596	es-BANK	EW00125	M32655	"Peponocephala electra"	"Melon-headed whale"	2001	3	12					Asia	Japan	"Tanegashima, Kagoshima"	30.28055556	30.89444444	130.8252778	131.2708333	Male	Blubber	85				253	cm	"Body length"	Mature																															"This sample is out of the same speciman as SAA002122."	2021/1/4	2021/1/4
PRA000111	SAA007604	ST004	103596	es-BANK	EW00127	M32677	"Peponocephala electra"	"Melon-headed whale"	2001	3	12					Asia	Japan	"Tanegashima, Kagoshima"	30.28055556	30.89444444	130.8252778	131.2708333	Male	Blubber	83				261	cm	"Body length"	Mature																															"This sample is out of the same speciman as SAA002120."	2021/1/4	2021/1/4
PRA000111	SAA007605	ST004	103596	es-BANK	EW00134	M32774	"Peponocephala electra"	"Melon-headed whale"	2002	2	25					Asia	Japan	"Hasaki, Ibaraki"	35.73184444	35.82913333	140.7697722	140.8939278	Male	Blubber	44				243	cm	"Body length"	Mature	"15.5 y.o."																														"This sample is out of the same speciman as SAA002125."	2021/1/4	2021/1/4
PRA000111	SAA007606	ST004	103596	es-BANK	EW04669	M32785	"Peponocephala electra"	"Melon-headed whale"	2002	2	25					Asia	Japan	"Hasaki, Ibaraki"	35.73184444	35.82913333	140.7697722	140.8939278	Male	Blubber	69				243	cm	"Body length"	Mature	"16.5 y.o."																														"This sample is out of the same speciman as SAA002126."	2021/1/4	2021/1/4
PRA000111	SAA007607	ST004	103596	es-BANK	EW04676	M32798	"Peponocephala electra"	"Melon-headed whale"	2002	2	25					Asia	Japan	"Hasaki, Ibaraki"	35.73184444	35.82913333	140.7697722	140.8939278	Male	Blubber	43				234	cm	"Body length"	Immature	"10.5 y.o."																														"This sample is out of the same speciman as SAA002127."	2021/1/4	2021/1/4
PRA000111	SAA007608	ST004	103596	es-BANK	EW04690	M32818	"Peponocephala electra"	"Melon-headed whale"	2002	2	25					Asia	Japan	"Hasaki, Ibaraki"	35.73184444	35.82913333	140.7697722	140.8939278	Male	Blubber	40				255	cm	"Body length"	Immature	"11.5 y.o."																														"This sample is out of the same speciman as SAA002121."	2021/1/4	2021/1/4
PRA000111	SAA007609	ST004	103596	es-BANK	EW04766	M34072	"Peponocephala electra"	"Melon-headed whale"	2006	1	23					Asia	Japan	"Asahi, Chiba"	35.70111111		140.7113889		Male	Blubber	66		224.05	kg	249	cm	"Body length"	Mature																															"This sample is out of the same speciman as SAA002157."	2021/1/4	2021/1/4
PRA000111	SAA007610	ST004	103596	es-BANK	EW04764	M34076	"Peponocephala electra"	"Melon-headed whale"	2006	1	23					Asia	Japan	"Asahi, Chiba"	35.70111111		140.7113889		Male	Blubber	49		229.05	kg	255.6	cm	"Body length"	Mature																															"This sample is out of the same speciman as SAA002155."	2021/1/4	2021/1/4
PRA000111	SAA007611	ST004	103596	es-BANK	EW04762	M34077	"Peponocephala electra"	"Melon-headed whale"	2006	1	23					Asia	Japan	"Asahi, Chiba"	35.70111111		140.7113889		Male	Blubber	51		137.5	kg	234	cm	"Body length"	Mature																															"This sample is out of the same speciman as SAA002156."	2021/1/4	2021/1/4
PRA000111	SAA007612	ST004	103596	es-BANK	EW04779	M34085	"Peponocephala electra"	"Melon-headed whale"	2006	2	28					Asia	Japan	"Torami coast, Torami, Ichinomiya, Chiba"	35.33	35.35972222	140.3919417	140.3979167	Male	Blubber	28				260	cm	"Body length"	Mature																															"This sample is out of the same speciman as SAA002159."	2021/1/4	2021/1/4
PRA000111	SAA007613	ST004	103596	es-BANK	EW04772	M34090	"Peponocephala electra"	"Melon-headed whale"	2006	2	28					Asia	Japan	"Torami coast, Torami, Ichinomiya, Chiba"	35.33	35.35972222	140.3919417	140.3979167	Male	Blubber	35				239	cm	"Body length"	Mature																															"This sample is out of the same speciman as SAA002158."	2021/1/4	2021/1/4
PRA000111	SAA007614	ST004	103596	es-BANK	EW04925	M34095	"Peponocephala electra"	"Melon-headed whale"	2006	2	28					Asia	Japan	"Torami coast, Torami, Ichinomiya, Chiba"	35.33	35.35972222	140.3919417	140.3979167	Male	Blubber	45				238	cm	"Body length"	Mature																																2021/1/4	2021/1/4
PRA000111	SAA007615	ST004	103596	es-BANK	EW04926	M34099	"Peponocephala electra"	"Melon-headed whale"	2006	2	28					Asia	Japan	"Torami coast, Torami, Ichinomiya, Chiba"	35.33	35.35972222	140.3919417	140.3979167	Male	Blubber	64				243	cm	"Body length"	Mature																																2021/1/4	2021/1/4
PRA000111	SAA007616	ST004	103596	es-BANK	EW05312	010104-10	"Peponocephala electra"	"Melon-headed whale"	2010	3	10					Asia	Japan	"Yakutsu Nagahama coast, Sakai, Nakatane town, Kumage-gun, Kagoshima"	30.49722222		130.8997222		Male	Blubber	62				237	cm	"Body length"																																	2021/1/4	2021/1/4
PRA000111	SAA007617	ST004	103596	es-BANK	EW05313	010104-11	"Peponocephala electra"	"Melon-headed whale"	2010	3	10					Asia	Japan	"Yakutsu Nagahama coast, Sakai, Nakatane town, Kumage-gun, Kagoshima"	30.49722222		130.8997222		Male	Blubber	66				250	cm	"Body length"																																	2021/1/4	2021/1/4
PRA000111	SAA007618	ST004	103596	es-BANK	EW05314	010104-33	"Peponocephala electra"	"Melon-headed whale"	2010	3	10					Asia	Japan	"Yakutsu Nagahama coast, Sakai, Nakatane town, Kumage-gun, Kagoshima"	30.49722222		130.8997222		Male	Blubber	79				247	cm	"Body length"																																	2021/1/4	2021/1/4
PRA000111	SAA007619	ST004	103596	es-BANK	EW05195	110306-01	"Peponocephala electra"	"Melon-headed whale"	2011	3	6					Asia	Japan	"Oritsu coast, Kashima city, Ibaraki"	35.98201389		140.6644722		Male	Blubber	41				262	cm	"Body length"	Mature																																2021/1/4	2021/1/4
PRA000111	SAA007620	ST004	103596	es-BANK	EW05201	110306-07	"Peponocephala electra"	"Melon-headed whale"	2011	3	6					Asia	Japan	"Oritsu coast, Kashima city, Ibaraki"	35.98201389		140.6644722		Male	Blubber	41				267.5	cm	"Body length"	Mature																																2021/1/4	2021/1/4
PRA000111	SAA007621	ST004	103596	es-BANK	EW05202	110306-08	"Peponocephala electra"	"Melon-headed whale"	2011	3	6					Asia	Japan	"Oritsu coast, Kashima city, Ibaraki"	35.98201389		140.6644722		Male	Blubber	45				256.3	cm	"Body length"	Mature																																2021/1/4	2021/1/4
PRA000111	SAA007622	ST004	103596	es-BANK	EW05179	110306-17	"Peponocephala electra"	"Melon-headed whale"	2011	3	6					Asia	Japan	"Oritsu coast, Kashima city, Ibaraki"	35.98201389		140.6644722		Male	Blubber	61		232.4	kg	259.7	cm	"Body length"	Mature																																2021/1/4	2021/1/4
PRA000111	SAA007623	ST004	103596	es-BANK	EW05183	110306-21	"Peponocephala electra"	"Melon-headed whale"	2011	3	6					Asia	Japan	"Oritsu coast, Kashima city, Ibaraki"	35.98201389		140.6644722		Male	Blubber	53		238	kg	261.8	cm	"Body length"	Mature																																2021/1/4	2021/1/4
PRA000111	SAA007624	ST004	103596	es-BANK	EW05189	110306-27	"Peponocephala electra"	"Melon-headed whale"	2011	3	6					Asia	Japan	"Oritsu coast, Kashima city, Ibaraki"	35.98201389		140.6644722		Male	Blubber	56		249.8	kg	270	cm	"Body length"	Mature																																2021/1/4	2021/1/4
PRA000111	SAA007625	ST004	103596	es-BANK	EW05184	110306-22	"Peponocephala electra"	"Melon-headed whale"	2011	3	6					Asia	Japan	"Oritsu coast, Kashima city, Ibaraki"	35.98201389		140.6644722		Male	Blubber	73		178	kg	263	cm	"Body length"	Mature																																2021/1/4	2021/1/4
PRA000111	SAA007626	ST004	103596	es-BANK	EW05714	Hokota-02	"Peponocephala electra"	"Melon-headed whale"	2015	4	11					Asia	Japan	"Kyochigma coast, Kamizawa, Hokota city, Ibaraki"	36.095289	36.098629	140.603402	140.605157	Male	Blubber	53				254.7	cm	"Body length"																																	2021/1/4	2021/1/4
PRA000111	SAA007627	ST004	103596	es-BANK	EW05717	Hokota-05	"Peponocephala electra"	"Melon-headed whale"	2015	4	11					Asia	Japan	"Kyochigma coast, Kamizawa, Hokota city, Ibaraki"	36.095289	36.098629	140.603402	140.605157	Male	Blubber	52				244	cm	"Body length"																																	2021/1/4	2021/1/4
PRA000111	SAA007628	ST004	103596	es-BANK	EW05725	Hokota-15	"Peponocephala electra"	"Melon-headed whale"	2015	4	11					Asia	Japan	"Kyochigma coast, Kamizawa, Hokota city, Ibaraki"	36.095289	36.098629	140.603402	140.605157	Male	Blubber	48		195.4	kg	255.3	cm	"Body length"																																	2021/1/4	2021/1/4
PRA000111	SAA007629	ST004	103596	es-BANK	EW05726	Hokota-16	"Peponocephala electra"	"Melon-headed whale"	2015	4	11					Asia	Japan	"Kyochigma coast, Kamizawa, Hokota city, Ibaraki"	36.095289	36.098629	140.603402	140.605157	Male	Blubber	49				252	cm	"Body length"																																	2021/1/4	2021/1/4
PRA000111	SAA007630	ST004	103596	es-BANK	EW05727	Hokota-17	"Peponocephala electra"	"Melon-headed whale"	2015	4	11					Asia	Japan	"Kyochigma coast, Kamizawa, Hokota city, Ibaraki"	36.095289	36.098629	140.603402	140.605157	Male	Blubber	62				253	cm	"Body length"																																	2021/1/4	2021/1/4
PRA000111	SAA007631	ST004	103596	es-BANK	EW05736	Hokota-26	"Peponocephala electra"	"Melon-headed whale"	2015	4	11					Asia	Japan	"Kyochigma coast, Kamizawa, Hokota city, Ibaraki"	36.095289	36.098629	140.603402	140.605157	Male	Blubber	50				255	cm	"Body length"																																	2021/1/4	2021/1/4
PRA000111	SAA007632	ST004	103596	es-BANK	EW05741	Hokota-31	"Peponocephala electra"	"Melon-headed whale"	2015	4	11					Asia	Japan	"Kyochigma coast, Kamizawa, Hokota city, Ibaraki"	36.095289	36.098629	140.603402	140.605157	Male	Blubber	53		184.5	kg	252.5	cm	"Body length"																																	2021/1/4	2021/1/4
PRA000125	SAA009044	ST015				Hokkaido_w3_2020	Water	"River water"	2020	11	24	2020-11-24T11:40			Cloudy	Asia	Japan	"Ishikarikakokyo Bridge, Mouth of Riv. Ishikari (Ishikari City), Hokkaido"	43.22861111		141.3519444														2.6	4.8	7.6	10.4	14			68			"Grayish brown"																			2023/1/26	2023/1/26
PRA000125	SAA009047	ST015				Iwate_w1-1_2020	Water	"River water"	2020	11	4	2020-11-04T10:22			Cloudy	Asia	Japan	"Toyosawa-bashi Bridge, Riv. Toyosawa (Hanamaki City), Iwate"	39.38166667		141.1191667														8	10	7.3	11	10			<1			"Light green"																			2023/1/26	2023/1/26
PRA000125	SAA009520	ST014				Miyagi_w3_2020	Water	"Sea water"	2020	10	19	2020-10-19T10:12			Cloudy	Asia	Japan	"Sendai Bay (Matsushima Bay), Miyagi"	38.3533333		141.0975														20.2	16.9	7.9	7.6	400			2		1.5	Clear																			2023/1/26	2023/1/26
PRA000125	SAA009521	ST015				Akita_w3_2020	Water	"Lake water"	2020	9	29	2020-09-29T10:00			Fair	Asia	Japan	"Lake Hachiro, Akita"	39.92277778		139.9988889														21.9	20.3	9.2	9.2	20			18		0.5	"Greenish brown_Light"																			2023/1/26	2023/1/26
PRA000125	SAA009522	ST015				Yamagata_w1_2020	Water	"River water"	2020	10	9	2020-10-09T09:15			Fair	Asia	Japan	"Mouth of Riv. Mogami, Yamagata"	38.88722222		139.8433333														17	15	7.5	9.8	14			5			"Light yellow green"																			2023/1/26	2023/1/26
PRA000125	SAA009523	ST014				Fukushima_w1_2020	Water	"Sea water"	2020	10	16	2020-10-16T10:20			Cloudy	Asia	Japan	"Onahama Port, Fukushima"	36.92472222		140.8752778														16	19	8.1	7.3	4600			2		2.6	Clear																			2023/1/26	2023/1/26
PRA000125	SAA009053	ST015				Ibaraki_w2_2020	Water	"River water"	2020	11	12	2020-11-12T10:10			Cloudy	Asia	Japan	"Kamome-ohasi Bridge, Mouth of Riv. Tone (Kamisu City), Ibaraki"	35.77638889		140.7569444														14	15	7.9	8.5	1500			6		1.4	"Light yellow"																			2023/1/26	2023/1/26
PRA000125	SAA009054	ST015				Tochigi_w1-1_2020	Water	"River water"	2020	10	27	2020-10-27T10:20			Fair	Asia	Japan	"Tagawa area-Toshuko Weir (Utsunomiya City), Tochigi"	36.52805556		139.8855556														17.3	16	8.3	11	19			4			Clear																			2023/1/26	2023/1/26
PRA000125	SAA009524	ST015				Gunma_w8_2020	Water	"River water"	2020	9	18	2020-09-18T11:15			Fair	Asia	Japan	"Upstream of Tone-Ozeki, Riv. Tone (Chiyoda machi), Gunma"	36.20611111		139.4341667														31	27.3	7.5	8.9	27			40			"Light brown"																			2023/1/26	2023/1/26
PRA000125	SAA009057	ST015				Saitama_w2_2020	Water	"River water"	2020	11	4	2020-11-04T10:30			Fair	Asia	Japan	"Akigase-Shusuizeki Weir, Riv. Ara (Shiki City), Saitama"	35.84055556		139.6044444														15.1	14.4	7.9	9.7	25			3			"Light yellow green"																			2023/1/26	2023/1/26
PRA000125	SAA009525	ST015				ChibaCity_w1_2020	Water	"River water"	2020	11	10	2020-11-10T10:50			Fair	Asia	Japan	"Mouth of Riv. Hanami (Chiba City), Chiba"	35.63472222		140.0469444														13.5	17.5	7.7	6.9	3600			7			Clear																			2023/1/26	2023/1/26
PRA000125	SAA009061	ST015				Tokyo_w1_2020	Water	"River water"	2020	11	20	2020-11-20T09:50			Cloudy	Asia	Japan	"Mouth of Riv. Arakawa (Koto Ward), Tokyo"	35.64583333		139.8463889														22.8	18.4	7.4	9.2	4300			12		1	"Greenish brown"																			2023/1/26	2023/1/26
PRA000125	SAA009062	ST015				Tokyo_w2_2020	Water	"River water"	2020	11	20	2020-11-20T11:50			Cloudy	Asia	Japan	"Mouth of Riv. Sumida (Minato Ward), Tokyo"	35.66		139.7705556														22.5	19.2	7.5	8	4200			4		4.1	"Dark green"																			2023/1/26	2023/1/26
PRA000125	SAA009064	ST014				YokohamaCity_w3_2020	Water	"Sea water"	2020	11	18	2020-11-18T10:18			Fair	Asia	Japan	"Yokohama Port, Kanagawa"	35.45555556		139.6636111														15.5	19	8.3	8	4500			3		5	Clear																			2023/1/26	2023/1/26
PRA000125	SAA009066	ST015				Niigata_w2_2020	Water	"River water"	2020	11	19	2020-11-19T09:30			Fair	Asia	Japan	"Downstream of Riv. Shinano (Niigata City), Niigata"	37.88305556		139.0155556														17.2	11.5	7.4	10	13			13			"Light yellow"																			2023/1/26	2023/1/26
PRA000125	SAA009526	ST015				Toyama_w2_2020	Water	"River water"	2020	10	15	2020-10-15T12:01			Cloudy	Asia	Japan	"Hagiura-bashi Bridge, Mouth of Riv. Jintsu (Toyama City), Toyama"	36.745		137.2180556														18.5	16.3	7.5	8.4	73			2			Clear																			2023/1/26	2023/1/26
PRA000125	SAA009067	ST015				Ishikawa_w1_2020	Water	"River water"	2020	11	6	2020-11-06T09:37			Cloudy	Asia	Japan	"Mouth of Riv. Sai (Kanazawa City), Ishikawa"	36.60027778		136.5888889														17.1	12.8	7	9.2	220			4			"Yellow green"																			2023/1/26	2023/1/26
PRA000125	SAA009068	ST015				Fukui_w1_2020	Water	"River water"	2020	10	22	2020-10-22T10:00			Cloudy	Asia	Japan	"Mishima-bashi Bridge, Riv. Shono (Tsuruga City), Fukui"	35.6475		136.0627778														19.5	17	7.4	9.7	8.5			<1			Clear																			2023/1/26	2023/1/26
PRA000125	SAA009069	ST015				Nagano_w2_2020	Water	"River water"	2020	10	19	2020-10-19T10:16			Cloudy	Asia	Japan	"Center of Lake Suwa, Nagano"	36.05		138.0861111														11.4	14.1	7.8	9.5	13			10		0.9	"Light yellow green"																			2023/1/26	2023/1/26
PRA000125	SAA009071	ST015				Shizuoka_w7_2020	Water	"River water"	2020	11	12	2020-11-12T11:00			Fair	Asia	Japan	"Kaketsuka-bashi Bridge, Riv. Tenryu (Iwata City), Shizuoka"	34.67888889		137.7958333														21.7	13.5	8.2	11	14			4			"Pale white"																			2023/1/26	2023/1/26
PRA000125	SAA009527	ST014				Aichi_w2-2_2020	Water	"Sea water"	2020	11	10	2020-11-10T13:13			Fair	Asia	Japan	"Nagoya Port, West of Shiomi Wharf, Aichi"	35.07111111		136.8691667														14.7	19	8	7.6	4400			4		2.5	Clear																			2023/1/26	2023/1/26
PRA000125	SAA009077	ST014				Mie_w1_2020	Water	"Sea water"	2020	10	28	2020-10-28T10:15			Cloudy	Asia	Japan	"Yokkaichi Port, Mie"	34.94944444		136.6530556														18.1	18.5	8.6	12.4	3800			5		1.5	"Greenish brown"																			2023/1/26	2023/1/26
PRA000125	SAA009251	ST015				Shiga_w2-2_2020	Water	"Lake water"	2020	10	28	2020-10-28T11:40			Cloudy	Asia	Japan	"Lake Biwa (center, offshore of Karasaki), Shiga"	35.04611111		135.8955556														17.9	18	8.1	9.9	12			1		3	Green																			2023/1/26	2023/1/26
PRA000125	SAA009081	ST015				KyotoCity_w1_2020	Water	"River water"	2020	10	28	2020-10-28T10:00			Cloudy	Asia	Japan	"Miyamae-bashi Bridge, Riv. Katsura (Kyoto City), Kyoto"	34.905		135.7125														17.5	18.5	7.4	9.1	19			1			Clear																			2023/1/26	2023/1/26
PRA000125	SAA009082	ST015				Osaka_w1_2020	Water	"River water"	2020	11	25	2020-11-25T09:00			Fair	Asia	Japan	"Mouth of Riv. Yamato (Sakai City), Osaka"	34.60833333		135.4325														13.7	15.7	7.7	7.7				2		1.3	"Light yellow"																			2023/1/26	2023/1/26
PRA000125	SAA009084	ST014				OsakaCity_w2_2020	Water	"Sea water"	2020	10	27	2020-10-27T08:06			Fair	Asia	Japan	"Osaka Port, Osaka"	34.65861111		135.4313889														17	19	7.6	6	1900			2		2.7	"Light grayish yellow"																			2023/1/26	2023/1/26
PRA000125	SAA009086	ST014				Hyogo_w3_2020	Water	"Sea water"	2020	10	28	2020-10-28T10:30			Fair	Asia	Japan	"Offshore of Himeji, Hyogo"	34.76194444		134.6697222														19.7	21.6	8.1	7.1	4400			4		4	"Greenish blue"																			2023/1/26	2023/1/26
PRA000125	SAA009088	ST014				Kobe_w1_2020	Water	"Sea water"	2020	11	17	2020-11-17T09:50			Fair	Asia	Japan	"Center of Kobe Port, Hyogo"	34.66444444		135.1944444														19	18.5	7.8	7.3				1		5.7	"Greenish brown"																			2023/1/26	2023/1/26
PRA000125	SAA009090	ST015				Wakayama_w1_2020	Water	"River water"	2020	11	6	2020-11-06T14:15			Fair	Asia	Japan	"Kinokawa-ohashi Bridge, Mouth of Riv. Kinokawa (Wakayama City), Wakayama"	34.23		135.1561111														20.5	20	7.3	9	1800			3		2	"Greenish yellow"																			2023/1/26	2023/1/26
PRA000125	SAA009093	ST014				Okayama_w2_2020	Water	"Sea water"	2020	10	26	2020-10-26T10:23			Fair	Asia	Japan	"Offshore of Mizushima, Okayama"	34.48055556		133.665														22.5	21.2	8.1	7.8	4300			<5		3	"Dark yellow green"																			2023/1/26	2023/1/26
PRA000125	SAA009528	ST014				Hiroshima_w2_2020	Water	"Sea water"	2020	11	11	2020-11-11T09:53			Fair	Asia	Japan	"Kure Port, Hiroshima"	34.23361111		132.5391667														14.5	19.9	8	7				1		8	"Bluish green_Dark"																			2023/1/26	2023/1/26
PRA000125	SAA009529	ST014				Hiroshima_w3_2020	Water	"Sea water"	2020	11	11	2020-11-11T12:12			Fair	Asia	Japan	"Hiroshima Bay (Hiroshima City), Hiroshima"	34.34833333		132.4225														16	19.6	8	6.8				2		5	"Bluish green_Dark"																			2023/1/26	2023/1/26
PRA000125	SAA009095	ST014				Yamaguchi_w1-2_2020	Water	"Sea water"	2020	10	26	2020-10-26T10:30			Fair	Asia	Japan	"Tokuyama Bay, Yamaguchi"	33.99361111		131.7505556														23	23	8.2	6.7				3		4.5	"Bluish green"																			2023/1/26	2023/1/26
PRA000125	SAA009530	ST014				Yamaguchi_w3_2020	Water	"Sea water"	2020	10	12	2020-10-12T10:15			Fair	Asia	Japan	"Offshore of Ube, Yamaguchi"	33.915		131.1975														26.2	22.5	8.1	7.8				2		5	"Grayish green"																			2023/1/26	2023/1/26
PRA000125	SAA009097	ST014				Yamaguchi_w2-2_2020	Water	"Sea water"	2020	11	13	2020-11-13T11:15			Fair	Asia	Japan	"Offshore of Hagi, Yamaguchi"	34.43805556		131.3794444														19	20	8.2	7.5				5		15	"Bluish green"																			2023/1/26	2023/1/26
PRA000125	SAA009531	ST015				Tokushima_w1_2020	Water	"River water"	2020	10	15	2020-10-15T09:35			Fair	Asia	Japan	"Mouth of Riv. Yoshino (Tokushima City), Tokushima"	34.085		134.5913889														21.2	20.6	7.7	9.8	1500			1		3.5	Green																			2023/1/26	2023/1/26
PRA000125	SAA009098	ST014				Kagawa_w1_2020	Water	"Sea water"	2020	10	27	2020-10-27T09:00			Fair	Asia	Japan	"Takamatsu Port, Kagawa"	34.34972222		134.0788889														17.3	20.6	7.6	5.7				3		1	"Greenish blue"																			2023/1/26	2023/1/26
PRA000125	SAA009532	ST015				Kochi_w2_2020	Water	"River water"	2020	10	2	2020-10-02T08:48			Fair	Asia	Japan	"Mouth of Riv. Shimanto (Shimanto City), Kochi"	32.93777778		132.8441667														23	21	7.6	8.3	290			1.6			Clear																			2023/1/26	2023/1/26
PRA000125	SAA009103	ST014				KitakyushuCity_w1_2020	Water	"Sea water"	2020	11	18	2020-11-18T09:15			Fair	Asia	Japan	"Dokai Bay (Kitakyushu City), Fukuoka"	33.90388889		130.8158333														19	18	8.1	7.8	4600			<1		3.5	Clear																			2023/1/26	2023/1/26
PRA000125	SAA009105	ST014				Saga_w1_2020	Water	"Sea water"	2020	10	28	2020-10-28T10:23			Cloudy	Asia	Japan	"Imari Bay, Saga"	33.34		129.8208333														15	22	8.4	5.1	4300			14		3.3	Clear																			2023/1/26	2023/1/26
PRA000125	SAA009533	ST014				Nagasaki_w1_2020	Water	"Sea water"	2020	10	30	2020-10-30T11:30			Fair	Asia	Japan	"Omura Bay, Nagasaki"	32.98833333		129.8522222														20.1	20	8.2	7.5				<1		5.5	"Greenish blue_Light"																			2023/1/26	2023/1/26
PRA000125	SAA009534	ST015				Kumamoto_w1_2020	Water	"River water"	2020	10	13	2020-10-13T10:30			Fair	Asia	Japan	"Hiraki-bashi Bridge, Riv. Midori (Uto City), Kumamoto"	32.71638889		130.6422222														24.6	21.9	7.9	8.9	420			20			"Light gray"																			2023/1/26	2023/1/26
PRA000125	SAA009535	ST015				Miyazaki_w3_2020	Water	"River water"	2020	10	28	2020-10-28T10:17			Fair	Asia	Japan	"Mouth of Riv. Oyodo (Miyazaki City), Miyazaki"	31.89611111		131.4402778														23	18.5	7.7	9.3	260			2			Clear																			2023/1/26	2023/1/26
PRA000125	SAA009536	ST015				Kagoshima_w1_2020	Water	"River water"	2020	9	29	2020-09-29T13:10			Fair	Asia	Japan	"Shinkawa-bashi Bridge, Riv. Amori (Kirishima City), Kagoshima"	31.7225		130.7416667														25.2	20.2	7.5	8.8				5			Clear																			2023/1/26	2023/1/26
PRA000125	SAA009537	ST015				Kagoshima_w2_2020	Water	"River water"	2020	10	12	2020-10-12T11:42			Fair	Asia	Japan	"Gotanda-bashi Bridge, Riv. Gotanda (Ichikikushikino City), Kagoshima"	31.72583333		130.2769444														25.6	24.6	8.8	11				4			Clear																			2023/1/26	2023/1/26
PRA000125	SAA009110	ST014				Okinawa_w1_2020	Water	"Sea water"	2020	10	14	2020-10-14T11:20			Fair	Asia	Japan	"Naha Port, Okinawa"	26.21222222		127.665														27.3	27.3	7.6	6.3	4500			10		1.2	Clear																			2023/1/26	2023/1/26
PRA000125	SAA009538	ST024				Hokkaido_sed2-123_2020	Sediment	"River sediment"	2020	11	24	"2020-11-24T11:00; T11:15; T11:30"			"Cloudy; Cloudy; Cloudy"	Asia	Japan	"Ishikarikakokyo Bridge, Mouth of Riv. Ishikari (Ishikari City), Hokkaido"	43.22861111		141.3519444														"2.7; 2.8; 2.9"	"4.8; 4.8; 4.8"										"5.0; 5.5; 5.0"			"Blackish brown; Brown; Blackish brown"	"Grayish brown; Grayish brown; Grayish brown"	"Odorless; Odorless; Odorless"		"53.8; 22.1; 42.9 (Each) / 49.0 (Mixed)"	"8.3; 1.5 5.7 (Each) / 5.7 (Mixed)"									"n=3 pooled"	2023/2/15	2023/2/15
PRA000125	SAA009539	ST023				Hokkaido_sed3-123_2020	Sediment	"Marine sediment"	2020	9	9	"2020-09-09T10:40; T10:50; T11:10"			"Fair; Fair; Fair"	Asia	Japan	"Tomakomai Port, Hokkaido"	42.63138889		141.6288889														"26.0; 26.1; 25.6"	"22.0; 22.0; 22.0"										"23.3; 22.2; 22.5"	"16; 16; 16"		"Black; Black; Black"	"Greenish blue; Greenish blue; Greenish blue"	"Hydrogen sulfide odor; Hydrogen sulfide odor; Hydrogen sulfide odor"		"50.8; 35.8; 34.1 (Each) / 47.2 (Mixed)"	"7.4; 3.8; 3.2 (Each) / 4.8 (Mixed)"									"n=3 pooled"	2023/2/15	2023/2/15
PRA000125	SAA009540	ST024				Iwate_sed1-123_2020	Sediment	"River sediment"	2020	11	4	"2020-11-04T11:25; T11:30; T11:40"			"Fair; Fair; Fair"	Asia	Japan	"Toyosawa-bashi Bridge, Riv. Toyosawa (Hanamaki City), Iwate"	39.38166667		141.1191667														"8.0; 8.8; 10.8"	"10.0; 10.8; 10.8"										"10.2; 10.0; 10.8"	"0.1; 0.1; 0.1"	"Sand mixed with pebbles; Sand mixed with pebbles; Sand mixed with pebbles"	"Brown_Light; Brown_Light; Brown_Light"	"Green_Light; Green_Light; Green_Light"	"Odorless; Odorless; Odorless"	"Vegetative pieces; Vegetative pieces; Vegetative pieces"	"20.5; 19.2; 24.0 (Each) / 22.8 (Mixed)"	"1.8; 1.6; 1.9 (Each) / 1.6 (Mixed)"									"n=3 pooled"	2023/2/15	2023/2/15
PRA000125	SAA009541	ST023				Miyagi_sed1_123_2020	Sediment	"Marine sediment"	2020	10	19	"2020-10-19T10:12; T10:58; T11:20"			"Cloudy; Cloudy; Cloudy"	Asia	Japan	"Sendai Bay (Matsushima Bay), Miyagi"	38.3533333		141.0975														"20.2; 19.7; 19.7"	"16.9; 16.6; 16.6"								"1.5; 1.5; 1.6"		"19.5; 17.7; 17.6"	"4.6; 4.8; 4.1"	"Mud; Mud; Mud"	"Grayish green; Grayish green; Grayish green"	"Clear; Clear; Clear"	"Seaweed odor_Faint; Seaweed odor_Faint; Seaweed odor_Faint"	"None; Stone; Shell"	"64.1; 62.5; 61.4 (Each) / 69.0 (Mixed)"	"13.8; 13.2; 12.7 (Each) / 9.7 (Mixed)"									"n=3 pooled"	2023/2/15	2023/2/15
PRA000125	SAA009542	ST024				Sendai_sed1_123_2020	Sediment	"River sediment"	2020	11	10	"2020-11-10T10:20; T10:00; T09:50"			Fair	Asia	Japan	"Hirose-ohashi Bridge, Riv. Hirose (Sendai City), Miyagi"	38.21333333		140.9088889														"7.0; 7.0; 7.0"	"10.2; 10.2; 10.2"										"11; 11; 12"	"0.15; 0.26; 0.47"	"Sand; Sand; Sand"	"Grayish black; Grayish black; Grayish black"	"Clear; Clear; Clear"	"Swampy odor; Swampy odor; Strong_Swampy odor"	"None; None; None"	"20.5; 23.8; 20.9 (Each) / 19.8 (Mixed)"	"1.1; 1.1; 1.3 (Each) / 1.0 (Mixed)"									"n=3 pooled:SAA009257, SAA009258, SAA009259"	2023/2/15	2023/2/15
PRA000125	SAA009543	ST024				Akita_sed2-123_2020	Sediment	"Lake sediment"	2020	9	29	"2020-09-29T11:27; T10:34; T11:55"			"Fair; Fair; Fair"	Asia	Japan	"Lake Hachiro, Akita"	39.92277778		139.9988889														"23.0; 21.9; 23.0"	"20.5; 20.3; 20.6"								"0.5; 0.5; 0.5"		"19.6; 19.9; 20.0"	"6; 7.4; 7.6"	"Mud; Mud; Mud"	"Grayish black; Grayish black; Grayish black"	"Greenish brown_Light; Greenish brown_Light; Greenish brown_Light"	"Earthy odor_Faint; Earthy odor_Faint; Earthy odor_Faint"	"None; None; None"	"78.2; 79.2; 78.4 (Each) / 75.7 (Mixed)"	"11.5; 12.4; 12.4 (Each) / 8.4 (Mixed)"									"n=3 pooled"	2023/2/15	2023/2/15
PRA000125	SAA009544	ST024				Yamagata_sed1-123_2020	Sediment	"River sediment"	2020	10	9	"2020-10-09T10:18; T10:13; T10:07"			"Fair; Fair; Fair"	Asia	Japan	"Mouth of Riv. Mogami (Sakata City), Yamagata"	38.88722222		139.8433333														"17.0; 17.0; 17.0"	"15.0; 15.0; 15.0"										"16.9; 16.9; 16.9"	"0.3; 0.3; 0.3"	"Fine sand; Fine sand; Fine sand"	"Grayish black; Grayish black; Grayish black"	"Yellow green_Light; Yellow green_Light; Yellow green_Light"	"Earthy odor; Earthy odor; Earthy odor"	"Vegetative pieces; Vegetative pieces; Vegetative pieces"	"33.5; 34.2; 31.5 (Each) / 33.9 (Mixed)"	"3.7; 4.5; 3.1 (Each) / 3.1 (Mixed)"									"n=3 pooled"	2023/2/15	2023/2/15
PRA000125	SAA009545	ST023				Fukushima_sed1-123_2020	Sediment	"Marine sediment"	2020	10	16	"2020-10-16T11:17; T11:48; T12:19"			"Cloudy; Cloudy; Cloudy"	Asia	Japan	"Onahama Port, Fukushima"	36.92472222		140.8752778														"16.0; 20.2; 21.5"	"19.0; 19.4; 19.6"								"2.6; 3.4; 4.2"		"17.3; 19.8; 19.8"	"14.4; 15.3; 15.5"	"Mud; Mud; Mud"	"Grayish green; Grayish green; Grayish green"	"Bluish green; Bluish green; Bluish green"	"Odorless; Seaweed odor_Faint; Seaweed odor_Faint"	"Pebbles; None; None"	"47.0; 49.0; 53.0 (Each) / 54.2 (Mixed)"	"8.7; 9.4; 9.5 (Each) / 8.2 (Mixed)"									"n=3 pooled"	2023/2/15	2023/2/15
PRA000125	SAA009546	ST024				Ibaraki_sed1-123_2020	Sediment	"River sediment"	2020	11	12	"2020-11-12T09:45; T10:10; T11:20"			"Cloudy; Cloudy; Cloudy"	Asia	Japan	"Kamome-ohasi Bridge, Mouth of Riv. Tone (Kamisu City), Ibaraki"	35.77638889		140.7569444														"13.0; 14.0; 14.0"	"15.0; 15.0; 14.5"								"0.7; 1.5; 1.2"			"1.4; 7.5; 1.3"	"Mud; Mud; Sandy"	"Black; Black; Black"	"Yellow_Light; Yellow_Light; Yellow_Light"	"Odorless; Odorless; Odorless"	"Little; Little; None"	"37.0; 49.0; 24.0 (Each) / 48.4 (Mixed)"	"7.1; 9.5; 1.1 (Each) / 5.7 (Mixed)"									"n=3 pooled: SAA009263, SAA009264, SAA009265"	2023/2/15	2023/2/15
PRA000125	SAA009547	ST024				Tochigi_sed1-123_2020	Sediment	"River sediment"	2020	10	27	"2020-10-27T09:25; T11:37; T12:05"			"Fair; Fair; Fair"	Asia	Japan	"Tagawa area-Toshuko Weir (Utsunomiya City), Tochigi"	36.52805556		139.8855556														"17.0; 17.5; 17.7"	"15.0; 16.0; 16.3"										"13.5; 13.0; 13.2"	"0.6; 0.65; 0.65"	"Gravel;Gravel; Sand"	"Brown; Brown; Brown"	"Clear; Clear; Clear"	"Odorless; Odorless; Odorless"		"/ 21.9 (Mixed)"	" / 1.0 (Mixed)"									"n=3 pooled"	2023/2/15	2023/2/15
PRA000125	SAA009548	ST023				Chiba_sed1-123_2020	Sediment	"Marine sediment"	2020	10	27	"2020-10-27T10:10; T11:00; T11:13"			"Cloudy; Cloudy; Cloudy"	Asia	Japan	"Ichihara-Anesaki Coast, Chiba"	35.52166667		140.0283333														"17.4; 20.4; 20.2"	"19.1; 19.1; 19.1"								"4.7; 4.9; 4.3"		"20.2; 19.8; 19.9"	"18.5; 18.9; 18.8"	"Silt; Silt; Silt"	"Black; Black; Black"	"Dark green; Dark green; Dark green"	"Hydrogen sulfide odor_Strong; Hydrogen sulfide odor_Strong; Hydrogen sulfide odor_Strong"	"Seashell pieces; Seashell pieces; Seashell pieces"	"72.8; 72.6; 69.8 (Each) / 80.4 (Mixed)"	"14.6; 14.3; 13.3 (Each) / 11.4 (Mixed)"									"n=3 pooled"	2023/2/15	2023/2/15
PRA000125	SAA009549	ST024				ChibaCity_sed1-123_2020	Sediment	"River sediment"	2020	11	10	"2020-11-10T11:10; T11:44; T12:15"			"Fair; Fair; Fair"	Asia	Japan	"Mouth of Riv. Hanami (Chiba City), Chiba"	35.63472222		140.0469444														"12.0; 14.0; 13.0"	"17.5; 19.5; 20.5"										"15.0; 18.5; 18.5"	"2; 1.7; 1.8"	"Mud; Mud; Mud"	"Grayish black; Grayish black; Grayish black"	"Clear; Clear; Clear"	"Seaweed odor; Seaweed odor; Seaweed odor"	"Shellfish; Shellfish; Shellfish"	"24.0; 25.8; 26.9 (Each) / 23.0 (Mixed)"	"2.4; 2.5; 2.5 (Each) / 1.8 (Mixed)"									"n=3 pooled"	2023/2/15	2023/2/15
PRA000125	SAA009550	ST024				Tokyo_sed1-123_2020	Sediment	"River sediment"	2020	11	20	"2020-11-20T09:50; T10:33; T10:54"			"Cloudy; Cloudy; Cloudy"	Asia	Japan	"Mouth of Riv. Arakawa (Koto Ward), Tokyo"	35.64583333		139.8463889														"22.8; 23.1; 22.8"	"18.4; 18.4; 18.9"								"1.0; 1.2; 1.3"		"18.7; 18.7; 18.7"	"4.4; 3.6; 2.7"	"Silt mixed with fine sand; Silt mixed with fine sand; Silt mixed with fine sand"	"Olive black; Olive black; Olive black"	"Greenish brown; Greenish brown; Greenish brown"	"Hydrogen sulfide odor_Faint; Hydrogen sulfide odor_Faint; Hydrogen sulfide odor_Faint"	"Shell; Shell; Shell"	"44.1; 37.9; 42.0 (Each) / 52.9 (Mixed)"	"8.8; 7.4; 7.2 (Each) / 7.4 (Mixed)"									"n=3 pooled: SAA009266, SAA009267, SAA009268"	2023/2/15	2023/2/15
PRA000125	SAA009551	ST024				Tokyo_sed2-123_2020	Sediment	"River sediment"	2020	11	20	"2020-11-20T11:50; T12:32; T12:53"			"Cloudy; Cloudy;Cloudy"	Asia	Japan	"Mouth of Riv. Sumida (Minato Ward), Tokyo"	35.66		139.7705556														"22.5; 23.6; 23.7"	"19.2; 19.2; 19.1"								"4.1; 4.0; 4.0"		"19.6; 19.7; 19.7"	"5.2; 5.1; 4.5"	"Silt; Silt; Silt"	"Black; Black; Black"	"Dark green; Dark green; Dark green"	"Hydrogen sulfide odor_Strong; Hydrogen sulfide odor_Strong; Hydrogen sulfide odor_Strong"	"Shell, Fallen leaves; Shell, Vinyl pieces; None"	"52.0; 56.2; 53.5 (Each) / 64.8 (Mixed)"	"12.0; 11.9; 10.4 (Each) / 10.7 (Mixed)"									"n=3 pooled: SAA009269; SAA009270; SAA009271"	2023/2/15	2023/2/15
PRA000125	SAA009552	ST023				Yokohama_sed1-123_2020	Sediment	"Marine sediment"	2020	11	18	"2020-11-18T10:04; T11:03; T09:52"			"Fair; Fair; Fair"	Asia	Japan	"Yokohama Port, Kanagawa"	35.45555556		139.6636111														"17.5; 17.8; 17.0"	"19.2; 18.2; 17.4"								"4.0; 5.0; 4.0"		"19.1; 17.0; 20.0"	"12.5; 13.0; 12.0"	"Mud; Mud; Mud"	"Blackish brown; Blackish brown; Blackish brown"	"Clear; Clear; Clear"	"Hydrogen sulfide odor; Hydrogen sulfide odor; Hydrogen sulfide odor"	"None; None; None"	"66.0; 79.1; 70.3 (Each) / 70.6 (Mixed)"	"9.6; 13.1; 11.1 (Each) / 9.6 (Mixed)"									"n=3 pooled: SAA009272; SAA009273; SAA009274"	2023/2/15	2023/2/15
PRA000125	SAA009553	ST024				Niigata_sed1-123_2020	Sediment	"River sediment"	2020	12	3	"2020-12-03T09:20; T09:45; T10:00"			"Rain; Rain; Rain"	Asia	Japan	"Downstream of Riv. Shinano (Niigata City), Niigata"	37.88305556		139.0155556														"7.2; 7.2; 7.2"	"9.0; 9.0; 9.0"										"9.0; 9.0; 9.0"	"3.2; 4.8; 4.8"	"Mud; Sand; Sand"	"Brown; Brown; Brown"	"Green; Green; Green"	"Earthy odor; Odorless; Odorless"	"Leaves; Twigs; Pebbles"	"29.0; 23.9; 21.0 (Each) / 25.1 (Mixed)"	"2.4; 1.3; 1.0 (Each) / 1.2 (Mixed)"									"n=3 pooled; SAA009275, SAA009276, SAA009277"	2023/2/15	2023/2/15
PRA000125	SAA009554	ST024				Toyama_sed1-123_2020	Sediment	"River sediment"	2020	10	13	"2020-10-13T13:00; T13:15; T13:40"			"Cloudy; Cloudy; Cloudy"	Asia	Japan	"Hagiura-bashi Bridge, Mouth of Riv. Jintsu (Toyama City), Toyama"	36.745		137.2180556														"23.0; 22.6; 23.8"	"19.0; 18.9; 18.2"										"18.9; 19.0; 20.2"	"0.7; 0.5; 0.85"	"Mud; Muddy sand; Muddy sand"	"Gray; Gray; Gray"	"Clear; Clear; Clear"	"Hydrogen sulfide odor_Faint; Hydrogen sulfide odor_Faint; Odorless"	"Leaves, Stems; Leaves, Stems; Stems, Shell"	"34.0; 30.0; 19.0 (Each) / 30.6 (Mixed)"	"5.4; 3.5; 1.5 (Each) / 3.2 (Mixed)"									"n=3 pooled"	2023/2/15	2023/2/15
PRA000125	SAA009555	ST024				Ishikawa_sed1-123_2020	Sediment	"River sediment"	2020	11	6	"2020-11-06T10:44; T12:33; T13:38"			"Cloudy; Cloudy; Cloudy"	Asia	Japan	"Mouth of Riv. Sai (Kanazawa City), Ishikawa"	36.60027778		136.5888889														"17.1; 18.7; 19.0"	"12.8; 13.2; 12.7"											"3.2; 1.6; 0.6"	"Silt; Silt mixed with sand; Sand"	"Blackish brown; Grayish brown; Grayish brown"	"Yellow green; Green; Green"	"Fish rotten odor_Strong; Fish rotten odor_Faint; Fish rotten odor_Faint"	"Pebbles, Shell; Pebbles; Pebbles"	"31.0; 25.0; 24.6 (Each) / 30.5 (Mixed)"	"4.3; 1.7; 1.8 (Each) / 2.1 (Mixed)"									"n=3 pooled: SAA009278, SAA009279, SAA009280"	2023/2/15	2023/2/15
PRA000125	SAA009556	ST024				Fukui_sed1-123_2020	Sediment	"River sediment"	2020	10	22	"2020-10-22T10:00; T10:00; T10:00"			"Cloudy; Cloudy; Cloudy"	Asia	Japan	"Mishima-bashi Bridge, Riv. Shono (Tsuruga City), Fukui"	35.6475		136.0627778														"19.5; 19.5; 19.5"	"17.0; 17.0; 17.0"										"17.0; 17.0; 17.0"	"0.2; 0.2; 0.2"	"Sandy; Sandy; Sandy"	"Brown; Brown; Brown"	"Clear; Clear; Clear"	"Odorless; Odorless; Odorless"	"Stones; Stones; Stones"	"19.6; 20.8; 20.2 (Each) / 20.5 (Mixed)"	"1.8; 1.8; 1.4 (Each) / 0.7 (Mixed)"									"n=3 pooled: SAA009281, SAA009282, SAA009283"	2023/2/15	2023/2/15
PRA000125	SAA009557	ST024				Yamanashi_sed1-123_2020	Sediment	"River sediment"	2020	10	27	"2020-10-27T10:21; T09:52; T09:23"			"Fair; Fair; Fair"	Asia	Japan	"Chiaki-bashi Bridge, Riv. Ara (Kofu City), Yamanashi"	35.6475		138.5655556														"16.5; 17.0; 16.5"	"13.5; 13.0; 14.5"										"13.8; 13.0; 14.5"	"0.45; 0.4; 0.5"	"-; -; Sand"	"Gray; Brown; Gray"	"Gray; Brown; Gray"	"River algae odor_Faint; River algae odor_Faint; River algae odor_Faint"	"Sand; Sand; None"	"13.0; 17.0; 29.5 (Each) / 17.2 (Mixed)"	"1.3; 1.1; 1.4 (Each) / 0.9 (Mixed)"									"n=3 pooled"	2023/2/15	2023/2/15
PRA000125	SAA009558	ST024				Nagano_sed1-123_2020	Sediment	"Lake sediment"	2020	10	19	"2020-10-19T10:16; T11:13; T10:16"			"Cloudy; Cloudy; Cloudy"	Asia	Japan	"Center of Lake Suwa, Nagano"	36.05		138.0861111														"11.4; 11.7; 11.3"	"14.1; 14.0; 14.2"								"0.9; 1.3; 1.3"		"13.6; 14.0; 13.6"	"6.0; 6.0; 6.0"	"Mud; Mud; Mud"	"Blackish brown; Blackish brown; Blackish brown"	"Yellow green_Light; Yellow green_Light; Yellow green_Light"	"Swampy odor; Swampy odor; Swampy odor"	"None; None; None"	"78.2; 78.5; 78.8 (Each) / 85.1 (Mixed)"	"14.0; 14.2; 14.4 (Each) / 13.4 (Mixed)"									"n=3 pooled: SAA009284, SAA009285, SAA009286"	2023/2/15	2023/2/15
PRA000125	SAA009559	ST023				Shizuoka_sed1-123_2020	Sediment	"Marine sediment"	2020	10	22	"2020-10-22T10:25; T11:15; T11:32"			"Cloudy; Fair; Fair"	Asia	Japan	"Shimizu Port, Shizuoka"	35.02416667		138.5161111														"21.3; 25.9; 25.0"	"20.1; 20.7; 20.0"								"3.0; 3.2; 3.5"		"21.0; 22.0; 22.0"	"23.9; 20.3; 17.6"	"Sand mixed with clay; Sand mixed with clay; Sand mixed with clay"	"Grayish green_Dark; Grayish green_Dark; Grayish green_Dark"	"Clear; Clear; Clear"	"Odorless; Odorless; Odorless"	"Shellfish, pieces of wood; Shellfish, pieces of wood; Shellfish, pieces of wood"	"23.9; 23.7; 28.0 (Each) / 30.0 (Mixed)"	"19.6; 12.3; 10.6 (Each) / 3.4 (Mixed)"									"n=3 pooled: SAA009287, SAA009288, SAA009289"	2023/2/15	2023/2/15
PRA000125	SAA009560	ST024				Shizuoka_sed6-123_2020	Sediment	"River sediment"	2020	11	12	"2020-11-12T11:00; T12:05; T12:37"			"Fair; Fair; Fair"	Asia	Japan	"Kaketsuka-bashi Bridge, Riv. Tenryu (Iwata City), Shizuoka"	34.67888889		137.7958333														"21.7; 23.0; 20.0"	"13.5; 15.0; 14.8"										"17.0; 13.8; 14.8"	"0.45; 0.45; 0.45"	"Sand; Sand; Sand"	"Grayish brown_Dark; Grayish brown_Dark; Grayish brown_Dark"	"White_Light; White_Light; White_Light"	"Odorless; Odorless; Odorless"	"Pebbles; Pebbles; Pebbles"	"21.1; 21.2; 17.8 (Each) / 19.5 (Mixed)"	"1.4; 1.4; 1.7 (Each) / 1.3 (Mixed)"									"n=3 pooled: SAA009290, SAA009291, SAA009292"	2023/2/15	2023/2/15
PRA000125	SAA009561	ST023				Aichi_sed2-123_2020	Sediment	"Marine sediment"	2020	11	10	"2020-11-10T10:25; T10:30; T10:35"			"Fair; Fair; Fair"	Asia	Japan	"Kinuura Port, Aichi"	34.84166667		136.9486111														"13.7; 13.7; 13.7"	"18.0; 18.0; 18.0"								"4.0; 4.0; 4.0"		"19.5; 19.5; 19.5"	"13.6; 13.6; 13.6"	"Mud; Mud; Mud"	"Grayish black; Grayish black; Grayish black"	"Clear; Clear; Clear"	"Sewage odor; Sewage odor; Sewage odor"	"None; None; None"	"63.1; 65.4; 65.7 (Each) / 66.8 (Mixed)"	"17.8; 11.5; 11.5 (Each) / 9.5 (Mixed)"									"n=3 pooled"	2023/2/15	2023/2/15
PRA000125	SAA009562	ST023				Aichi_sed1-234_2020	Sediment	"Marine sediment"	2020	11	10	"2020-11-10T13:13; T13:18; T13:23"			"Fair; Fair; Fair"	Asia	Japan	"Nagoya Port, West of Shiomi Wharf, Aichi"	35.07111111		136.8691667														"14.7; 14.7; 14.7"	"19.0; 19.0; 19.0"								"2.5; 2.5; 2.5"		"21.0; 21.0; 21.0"	"18.0; 18.0; 18.0"	"Mud; Mud; Mud"	"Grayish green; Grayish green; Grayish green"	"Clear; Clear; Clear"	"Odorless; Odorless; Odorless"	"None; None; None"	"51.6; 46.9; 53.8 (Each) / 57.6 (Mixed)"	"27.6; 33.8; 23.8 (Each) / 6.7 (Mixed)"									"n=3 pooled"	2023/2/15	2023/2/15
PRA000125	SAA009563	ST023				Mie_sed1-123_2020	Sediment	"Marine sediment"	2020	10	28	"2020-10-28T10:15; T10:15; T10:15"			"Cloudy; Cloudy; Cloudy"	Asia	Japan	"Yokkaichi Port, Mie"	34.94944444		136.6530556														"18.1; 19.1; 20.2"	"18.5; 19.0; 19.0"								"1.5; 1.5; 1.2"		"21.2; 21.3; 21.5"	"7.3; 10.1; 5.7"	"Mud; Mud; Mud"	"Grayish black; Grayish black; Grayish black"	"Greenish brown; Greenish brown; Greenish brown"	"Hydrogen sulfide odor_Faint; Hydrogen sulfide odor_Faint; Hydrogen sulfide odor_Faint"	"Shell; Shell; Shell"	"57.9; 69.4; 43.1 (Each) / 55.4 (Mixed)"	"6.7; 8.4; 4.0 (Each) / 5.9 (Mixed)"									"n=3 pooled: SAA009299, SAA009300, SAA009301"	2023/2/15	2023/2/15
PRA000125	SAA009564	ST023				Mie_sed2-123_2020	Sediment	"Marine sediment"	2020	10	20	"2020-10-20T10:55; T11:30; T11:40"			"Fair; Fair; Fair"	Asia	Japan	"Toba Port, Mie"	34.48083333		136.8486111														"20.1; 20.6; 22.9"	"21.7; 21.8; 21.7"								"2.0; 2.5; 2.5"		"21.1; 22.0; 22.0"	"7.0; 6.0; 6.4"	"Mud; Mud; Mud"	"Grayish brown; Grayish brown; Grayish brown"	"Yellow green; Yellow green; Yellow green"	"Swampy odor_Faint; Swampy odor_Faint; Swampy odor_Faint"	"Shell, pieces of wood; Shell, pieces of wood; Shell, pieces of wood"	"57.0; 52.0; 49.2 (Each) / 44.8 (Mixed)"	"9.9; 7.9; 6.7 (Each) / 7.3 (Mixed)"									"n=3 pooled: SAA009302; SAA009303; SAA009304"	2023/2/15	2023/2/15
PRA000125	SAA009565	ST024				Shiga_sed1-123_2020	Sediment	"Lake sediment"	2020	10	28	"2020-10-28T09:20; T10:25; T10:50"			"Cloudy; Cloudy; Cloudy"	Asia	Japan	"Lake Biwa (center, offshore of Minamihira), Shiga"	35.18527778		135.9733333														"17.0; 19.0; 20.8"	"18.2; 18.1; 19.0"								"3.4; 3.6; 3.8"		"8.5; 8.7; 8.7"	"58.6; 54.3; 49.3"	"Mud; Mud; Mud"	"Blackish brown; Blackish brown; Blackish brown"	"Green; Green; Green"	"Swampy odor; Swampy odor; Swampy odor"		"70.0; 68.7; 68.4 (Each) / 79.9 (Mixed)"	"11.7; 11.5; 11.4 (Each) / 10.5 (Mixed)"									"n=3 pooled"	2023/2/15	2023/2/15
PRA000125	SAA009566	ST024				Shiga_sed2-123_2020	Sediment	"Lake sediment"	2020	10	28	"2020-10-28T11:40; T12:15; T12:40"			"Cloudy; Cloudy; Cloudy"	Asia	Japan	"Lake Biwa (center, offshore of Karasaki), Shiga"	35.04611111		135.8955556														"17.9; 18.0; 19.0"	"18.0; 18.0; 17.5"								"3.0; 3.3; 3.6"		"17.1; 17.8; 17.0"	"3.8; 4.0; 3.4"	"Mud; Mud; Mud"	"Gray; Gray; Gray"	"Green; Green; Green"	"Swampy odor; Swampy odor; Swampy odor"	"Aquatic plants; Aquatic plants; Aquatic plants"	"67.6; 68.6; 64.3 (Each) / 77.4 (Mixed)"	"10.8; 12.1; 10.7 (Each) / 10.6 (Mixed)"									"n=3 pooled"	2023/2/15	2023/2/15
PRA000125	SAA009567	ST024				KyotoCity_sed1-123_2020	Sediment	"River sediment"	2020	10	28	"2020-10-28T10:20; T10:35; T10:45"			"Cloudy; Cloudy; Cloudy"	Asia	Japan	"Miyamae-bashi Bridge, Riv. Katsura (Kyoto City), Kyoto"	34.905		135.7125														"17.5; 17.5; 17.5"	"18.5; 18.5; 18.5"										"18.0; 18.0; 18.0"	"0.8; 0.8; 0.8"	"Sand; Sand; Sand"	"Grayish brown; Grayish brown; Grayish brown"	"Clear; Clear; Clear"	"Odorless; Odorless; Odorless"	"None; None; None"	"14.6; 16.5; 15.9 (Each) / 15.6 (Mixed)"	"1.21; 1.04; 1.33 (Each) / 1.1 (Mixed)"									"n=3 pooled: SAA009305, SAA009306, SAA009307"	2023/2/15	2023/2/15
PRA000125	SAA009568	ST024				Osaka_sed1-123_2020	Sediment	"River sediment"	2020	11	25	"2020-11-25T10:15; T11:03; T11:32"			"Cloudy; Cloudy; Cloudy"	Asia	Japan	"Mouth of Riv. Yamato (Sakai City), Osaka"	34.60833333		135.4325														"13.8; 13.9; 14.0"	"16.5; 16.7; 16.7"								"1.3; 1.5; 1.6"		"17.6; 19.7; 19.2"	"1.3; 1.5; 1.6"	"Silt mixed with sand; Silt mixed with sand; Silt"	"Dark olive gray; Olive black; Olive black"	"Yellow_Light; Yellow_Light; Yellow_Light"	"Sewage odor; Fishy smell; Fish odor"	"Vegetative pieces; Vegetative pieces; Vegetative pieces"	"29.8; 33.4; 50.8 (Each) / 40.1 (Mixed)"	"3.0; 4.7; 10.1 (Each) / 5.3 (Mixed)"									"n=3 pooled: SAA009308 and 2 other samples"	2023/2/15	2023/2/15
PRA000125	SAA009569	ST024				OsakaCity_sed2-123_2020	Sediment	"River sediment"	2020	10	28	"2020-10-28T09:32; T11:08; T10:28"			"Fair; Fair; Fair"	Asia	Japan	"Kema-bashi Bridge, Riv. Oh (Osaka City), Osaka"	34.71776		135.51961														"17.0; 19.0; 18.6"	"17.6; 17.7; 17.7"										"17.1; 17.7; 18.0"	"2.2; 1.6; 2.9"	"Silt; Silt; Silt"	"Grayish yellow; Grayish yellow; Grayish yellow"	"Grayish yellow_Light; Grayish yellow_Light; Grayish yellow_Light"	"Odorless; Sewage odor_Faint; Sewage odor_Faint"	"Shellfish; Shellfish; Shellfish"	"49.1; 45.0; 48.7 (Each) / 58.3 (Mixed)"	"8.7; 7.9; 8.1 (Each) / 9.6 (Mixed)"									"n=3 pooled; SAA009311; SAA009312; SAA009313"	2023/2/15	2023/2/15
PRA000125	SAA009570	ST023				OsakaCity_sed3-123_2020	Sediment	"Marine sediment"	2020	10	27	"2020-10-27T09:54; T10:06; T10:22"			"Fair; Fair; Fair"	Asia	Japan	"Mouth of Riv. Yodo, Osaka"	34.67638889		135.3975														"18.0; 19.3; 19.0"	"19.3; 19.0; 20.6"								"2.3 2.2; 2.5"		"22.0; 21.0; 21.2"	"6.3; 5.0; 3.7"	"Silt; Silt; Silt"	"Grayish black; Grayish black; Grayish black"	"Grayish yellow_Light; Grayish yellow_Light; Grayish yellow_Light"	"Oily odor; Oily odor; Oily odor_Faint"	"None; Vegetative pieces; Vegetative pieces"	"33.2; 48.0; 51.1 (Each) / 59.8 (Mixed)"	"6.0; 10.4; 11.7 (Each) / 10.3 (Mixed)"									"n=3 pooled"	2023/2/15	2023/2/15
PRA000125	SAA009571	ST023				OsakaCity_sed1-123_2020	Sediment	"Marine sediment"	2020	10	27	"2020-10-27T08:34; T08:06; T08:45"			"Fair; Fair; Fair"	Asia	Japan	"Osaka Port, Osaka"	34.65861111		135.4313889														"15.4; 17.0; 17.0"	"19.0; 19.0; 20.0"								"2.8; 2.7; 2.9"		"22.6; 21.0; 22.3"	"12.0; 12.6; 12.9"	"Silt; Silt; Silt"	"Black; Black; Black"	"Grayish yellow_Light; Grayish yellow_Light; Grayish yellow_Light"	"Hydrogen sulfide odor_Faint; Hydrogen sulfide odor_Faint; Hydrogen sulfide odor_Faint"	"None; Shellfish; None"	"58.3; 57.5; 56.2 (Each) / 68.0 (Mixed)"	"10.3; 9.5; 9.1 (Each) / 9.9 (Mixed)"									"n=3 pooled; SAA009314, SAA009315, SAA009316"	2023/2/15	2023/2/15
PRA000125	SAA009572	ST023				OsakaCity_sed4-123_2020	Sediment	"Marine sediment"	2020	10	27	"2020-10-27T09:03; T09:15; T09:28"			"Fair; Fair; Fair"	Asia	Japan	"Outside of Osaka Port, Osaka"	34.64027778		135.3858333														"17.2; 18.3; 18.0"	"19.4; 21.4; 21.4"								"2.5; 2.8; 2.9"		"21.3; 21.6; 21.0"	"16.3; 12.0; 12.5"	"Silt; Silt; Silt"	"Grayish black; Grayish black; Grayish black"	"Grayish yellow_Light; Grayish yellow_Light; Grayish yellow_Light"	"Hydrogen sulfide odor_Faint; Hydrogen sulfide odor_Faint; Hydrogen sulfide odor_Faint"	"Shellfish; None; None"	"57.7; 50.3; 35.3 (Each) / 61.1 (Mixed)"	"9.2; 7.3; 4.4 (Each) / 7.6 (Mixed)"									"n=3 pooled"	2023/2/15	2023/2/15
PRA000125	SAA009573	ST023				Hyogo_sed1-123_2020	Sediment	"Marine sediment"	2020	10	28	"2020-10-28T10:50; T11:10; T11:30"			"Fair; Fair; Fair"	Asia	Japan	"Offshore of Himeji, Hyogo"	34.76194444		134.6697222														"19.7; 21.1; 21.3"	"21.6; 21.8; 22.4"								"4.0; 4.0; 3.4"		"21.1; 21.0; 21.0"	"10.0; 10.0; 11.0"	"Silt; Silt; Silt"	"Grayish black; Gray; Gray"	"Greenish blue; Greenish blue; Greenish blue"	"Hydrogen sulfide odor; Hydrogen sulfide odor; Hydrogen sulfide odor"	"None; None; None"	"58.3; 59.8; 61.0 (Each) / 71.1 (Mixed)"	"13.4; 17.6; 12.1 (Each) / 9.8 (Mixed)"									"n=3 pooled"	2023/2/15	2023/2/15
PRA000125	SAA009574	ST023				Hyogo_sed2-123_2020	Sediment	"Marine sediment"	2020	11	17	"2020-11-17T09:50; T10:35; T10:50"			"Fair; Fair; Fair"	Asia	Japan	"Center of Kobe Port, Hyogo"	34.66444444		135.1944444														"19.0; 20.5; 21.8"	"18.5; 18.4; 18.5"								"5.7; 5.1; 5.6"		"14.7; 18.3; 18.7"	"9.6; 9.4; 12.5"	"Silt; Silt; Silt"	"Greenish brown; Greenish brown; Greenish brown"	"Greenish brown; Greenish brown; Greenish brown"	"Hydrogen sulfide odor; Hydrogen sulfide odor; Hydrogen sulfide odor"	"Pebbles; Shell, pebbles; None"	"51.4; 43.1; 54.0 (Each) / 64.0 (Mixed)"	"9.2; 7.8; 9.5 (Each) / 8.2 (Mixed)"									"n=3 pooled: SAA009317, SAA009318, SAA009319"	2023/2/15	2023/2/15
PRA000125	SAA009575	ST024				Nara_sed1_123_2020	Sediment	"River sediment"	2020	10	21	"2020-10-21T10:30; T11:10; T10:50"			"Fair; Fair; Fair"	Asia	Japan	"Taisho-bashi Bridge, Riv. Yamato (Oji town), Nara"	34.58583333		135.6833333														"18.5; 18.5; 18.5"	"18.5; 19.5; 19.7"										"18.5; 19.5; 19.7"	"0.3; 0.3; 0.3"	"Sand; Sand; Sand"	"Gray; Gray; Dark brown"	"Grayish yellow green_Light; Grayish yellow green_Light; Grayish yellow green_Light"	"Fishy smell; Fishy smell; Fishy smell"	"None; None; None"	"22.0; 25.0; 26.0 (Each) / 21.6 (Mixed)"	"0.9; 0.9; 0.5 (Each) / 0.8 (Mixed)"									"n=3 pooled: SAA009320, SAA009321, SAA009322"	2023/2/15	2023/2/15
PRA000125	SAA009576	ST024				Wakayama_sed1-3_2020	Sediment	"River sediment"	2020	11	6	"2020-11-06T13:30; T13:50; T13:15"			"Fair; Fair; Fair"	Asia	Japan	"Kinokawa-ohashi Bridge, Mouth of Riv. Kinokawa (Wakayama City), Wakayama"	34.23		135.1561111														"20.3; 22.1; 22.1"	"18.8; 20.7; 16.3"								"1.5; 2.0; 2.5"		"22.4; 23.4; 22.9"	"5.0; 3.0; 3.5"	"Sand; Sand; Sand"	"Grayish yellow; Grayish yellow; Grayish yellow"	"Greenish yellow_Medium; Greenish yellow_Medium; Greenish yellow_Medium"	"Seaweed odor; Seaweed odor; Seaweed odor"	"Dead leaves; None; Dead leaves"	"27.7; 31.4; 36.9 (Each) / 40.7 (Mixed)"	"4.9; 5.8; 6.8 (Each) / 5.1 (Mixed)"									"n=3 pooled"	2023/2/15	2023/2/15
PRA000125	SAA009577	ST023				Okayama_sed1-123_2020	Sediment	"Marine sediment"	2020	10	26	"2020-10-26T11:20; T11:30; T11:50"			"Fair; Fair; Fair"	Asia	Japan	"Offshore of Mizushima, Okayama"	34.48055556		133.665														"22.5; 24.5; 24.8"	"21.5; 22.0; 21.5"								"3.0; 3.5; 2.8"		"21.4; 21.0; 21.3"	"9.8; 9.7; 8.5"	"Ooze; Ooze; Ooze"	"Grayish green; Grayish green; Grayish green"	"Yellow green_Dark; Yellow green_Dark; Yellow green_Dark"	"Earthy odor; Earthy odor; Earthy odor"	"Seashell pieces; Seashell pieces; Seashell pieces"	"44.9; 45.9; 49.0 (Each) / 44.4 (Mixed)"	"5.7; 5.4; 6.5 (Each) / 5.2 (Mixed)"									"n=3 pooled:SAA009323, SAA009324, SAA009325"	2023/2/15	2023/2/15
PRA000125	SAA009578	ST023				Hiroshima_sed1-123_2020	Sediment	"Marine sediment"	2020	11	11	"2020-11-11T09:53; T10:10; T10:18"			"Fair; Fair; Fair"	Asia	Japan	"Kure Port, Hiroshima"	34.23361111		132.5391667														"14.5; 16.0; 16.6"	"19.9; 20.1; 20.2"								"8.0; 6.0; 6.0"		"19.7; 20.3; 20.6"	"18.0; 17.0; 18.0"	"Silt; Silt; Silt"	"Gray_Dark; Grayish green_Dark; Grayish green_Dark"	"Bluish green_Dark; Bluish green_Dark; Bluish green_Dark"	"Odorless; Hydrogen sulfide odor_Faint; Hydrogen sulfide odor_Faint"	"None; None; None"	"61.3; 61.1; 60.9 (Each) / 70.7 (Mixed)"	"11.2; 10.4; 10.2 (Each) / 10.7 (Mixed)"									"n=3 pooled"	2023/2/15	2023/2/15
PRA000125	SAA009579	ST023				Hiroshima_sed2-123_2020	Sediment	"Marine sediment"	2020	11	11	"2020-11-11T12:12; T12:32; T12:41"			"Fair; Fair; Fair"	Asia	Japan	"Hiroshima Bay (Hiroshima City), Hiroshima"	34.34833333		132.4225														"16.0; 15.8; 16.5"	"19.6; 19.7; 19.9"								"5.0; 3.5; 8.0"		"19.7; 19.9; 20.0"	"10.0; 11.0; 13.0"	"Silt; Silt; Silt"	"Grayish green_Dark; Grayish green_Dark; Grayish green_Dark"	"Bluish green_Dark; Bluish green_Dark; Bluish green_Dark"	"Odorless; Odorless; Odorless"	"None; None; None"	"54.9; 52.9; 54.3 (Each) / 65.1 (Mixed)"	"10.9; 10.4; 10.2 (Each) / 10.8 (Mixed)"									"n=3 pooled"	2023/2/15	2023/2/15
PRA000125	SAA009580	ST023				Yamaguchi_sed1-123_2020	Sediment	"Marine sediment"	2020	10	26	"2020-10-26T10:40; T10:45; T10:50"			"Fair; Fair; Fair"	Asia	Japan	"Tokuyama Bay, Yamaguchi"	33.99361111		131.7505556														"23.0; 23.0; 23.0"	"23.0; 23.0; 23.0"								"4.5; 4.5; 4.5"		"21.0; 21.0; 21.0"	"19.2; 19.2; 19.2"	"Silt; Silt; Silt"	"Grayish yellow green; Grayish yellow green; Grayish yellow green"	"Bluish green; Bluish green; Bluish green"	"Hydrogen sulfide odor_Faint; Hydrogen sulfide odor_Faint; Hydrogen sulfide odor_Faint"	"None; None; None"	"51.7; 52.3; 51.2 (Each) / 63.9 (Mixed)"	"10.8; 11.8; 11.8 (Each) / 8.2 (Mixed)"									"n=3 pooled: SAA009326, SAA009327, SAA009328"	2023/2/15	2023/2/15
PRA000125	SAA009581	ST023				Yamaguchi_sed2-123_2020	Sediment	"Marine sediment"	2020	10	12	"2020-10-12T10:15; T10:20; T10:25"			"Fair; Fair; Fair"	Asia	Japan	"Offshore of Ube, Yamaguchi"	33.915		131.1975														"26.2; 26.2; 26.2"	"22.5; 22.5; 22.5"								"5.0; 5.0; 5.0"		"22.0; 22.0; 22.0"	"9.8; 9.8; 9.8"	"Silt; Silt; Silt"	"Grayish green; Grayish green; Grayish green"	"Grayish green; Grayish green; Grayish green"	"Odorless; Odorless; Odorless"	"None; None; None"	"35.5; 33.9; 33.3 (Each) / 42.7 (Mixed)"	"6.1; 5.8; 5.8 (Each) / 4.8 (Mixed)"									"n=3 pooled"	2023/2/15	2023/2/15
PRA000125	SAA009582	ST023				Yamaguchi_sed3-123_2020	Sediment	"Marine sediment"	2020	11	13	"2020-11-13T11:20; T11:25; T11:30"			"Fair; Fair; Fair"	Asia	Japan	"Offshore of Hagi, Yamaguchi"	34.43805556		131.3794444														"19.0; 19.0; 19.0"	"20.0; 20.0; 20.0"								"15.0; 15.0; 15.0"		"19.0; 19.0; 19.0"	"28.0; 28.0; 28.0"	"Fine sand; Fine sand; Fine sand"	"Light gray; Light gray; Light gray"	"Bluish green; Bluish green; Bluish green"	"Odorless; Odorless; Odorless"	"None; None; None"	"30.0; 29.8; 29.8 (Each) / 32.0 (Mixed)"	"6.2; 6.2; 6.1 (Each) / 4.0 (Mixed)"									"n=3 pooled: SAA009329, SAA009330, SAA009331"	2023/2/15	2023/2/15
PRA000125	SAA009583	ST024				Tokushima_sed1-123_2020	Sediment	"River sediment"	2020	10	15	"2020-10-15T10:00; T09:20; T10:10"			"Fair; Fair; Fair"	Asia	Japan	"Mouth of Riv. Yoshino (Tokushima City), Tokushima"	34.085		134.5913889														"21.2; 21.0; 21.8"	"20.6; 20.8; 20.4"								"3.5; 3.0; 4.0"		"22.9; 23.4; 23.3"	"5.3; 5.0; 5.6"	"Clay mixed with sand; Sand; Clay"	"Grayish black; Grayish black; Grayish black_Dark"	"Green; Green; Green"	"Sewage odor_Faint; Odorless; Sewage odor_Faint"	"Vegetative pieces; None; Vegetative pieces"	"22.0; 23.0; 43.0 (Each) / 32.0 (Mixed)"	"1.6; 1.1; 8.4 (Each) / 2.9 (Mixed)"									"n=3 pooled"	2023/2/15	2023/2/15
PRA000125	SAA009584	ST023				Kagawa_sed1-123_2020	Sediment	"Marine sediment"	2020	10	27	"2020-10-27T09:10; T09:20; T09:30"			"Fair; Fair; Fair"	Asia	Japan	"Takamatsu Port, Kagawa"	34.34972222		134.0788889														"17.3; 15.4; 17.3"	"20.6; 21.3. 20.5"								"1.0; 1.0; 2.0"		"21.3; 21.3; 21.0"	"2.6; 6.0; 5.8"	"Mud; Sand; Sand and mud"	"Black; Black; Black"	"Greenish blue; Greenish white; Greenish blue"	"Hydrogen sulfide odor; Hydrogen sulfide odor_Faint; Hydrogen sulfide odor"	"Vegetative pieces, Shell; Vegetative pieces, Vinyl pieces; None"	"72.4; 30.4; 67.1 (Each) / 54.3 (Mixed)"	"21.7; 2.5; 15.5 (Each) / 7.2 (Mixed)"									"n=3 pooled: SAA009332, SAA009333, SAA009334"	2023/2/15	2023/2/15
PRA000125	SAA009585	ST023				Ehime_sed1-123_2020	Sediment	"Marine sediment"	2020	10	27	"2020-10-27T10:00; T10:10; T10:20"			"Fair; Fair; Fair"	Asia	Japan	"Niihama Port, Ehime"	33.98777778		133.3144444														"21.2; 21.2; 21.2"	"22.0; 22.0; 22.0"								"5.5; 5.5; 5.5"		"22.0; 22.0; 22.0"	"6.51; 6.51; 6.51"	"Fine sand; Fine sand; Fine sand"	"Grayish green_Dark; Grayish green_Dark; Grayish green_Dark"	"Yellow green_Dark; Yellow green_Dark; Yellow green_Dark"	"Odorless; Odorless; Odorless"	"None; None; None"	"25.0; 24.8; 22.5 (Each) / 23.5 (Mixed)"	"2.8; 2.5; 2.2 (Each) / 1.8 (Mixed)"									"n=3 pooled"	2023/2/15	2023/2/15
PRA000125	SAA009586	ST024				Kochi_sed1-123_2020	Sediment	"River sediment"	2020	10	2	"2020-10-02T08:48; T09:22; T10:12"			"Fair; Fair; Fair"	Asia	Japan	"Mouth of Riv. Shimanto (Shimanto City), Kochi"	32.93777778		132.8441667														"23.0; 24.2; 26.4"	"21.0; 21.8; 24.8"										"24.5; 25.0; 25.0"	"2.0; 2.0; 0.1"	"Muddy; Muddy; Muddy"	"Grayish black; Grayish black; Brown"	"Clear; Clear; Clear"	"Hydrogen sulfide odor_Faint; Hydrogen sulfide odor_Faint; Odorless"	"Grass, Wood; Grass, Wood; None"	"24.5; 25.0; 17.3 (Each) / 22.9 (Mixed)"	"3.4; 3.4; 2.2 (Each) / 2.8 (Mixed)"									"n=3 pooled"	2023/2/15	2023/2/15
PRA000125	SAA009587	ST023				KitakyushuCity_sed1-123_2020	Sediment	"Marine sediment"	2020	11	18	"2020-11-18T09:35; T10:00; T10:20"			"Fair; Fair; Fair"	Asia	Japan	"Dokai Bay (Kitakyushu City), Fukuoka"	33.90388889		130.8158333														"19.0; 19.0; 19.0"	"18.0; 18.0; 18.5"								"3.5; 3.5; 3.5"		"19.0; 19.5; 19.0"	"10.3; 11.4; 7.0"	"Mud; Mud; Mud"	"Grayish black; Grayish black; Grayish black"	"Clear; Clear; Clear"	"Earthy odor_Faint; Earthy odor_Faint; Earthy odor_Faint"	"Little; Little; Little"	"46.6; 46.3; 57.3 (Each) / 46.7 (Mixed)"	"7.8; 8.2; 11.6 (Each) / 8.1 (Mixed)"									"n=3 pooled: SAA009338, SAA009339, SAA009340"	2023/2/15	2023/2/15
PRA000125	SAA009588	ST023				FukuokaCity_sed1-123_2020	Sediment	"Marine sediment"	2020	10	20	"2020-10-20T08:47; T09:44; T10:05"			"Fair; Fair; Fair"	Asia	Japan	"Hakata Bay, Fukuoka"	33.60833333		130.3297222														"19.5; 19.8; 20.0"	"21.5; 21.2; 21.5"								"1.9; 2.0; 2.0"		"21.0; 20.0; 20.0"	"7.4; 8.0; 8.4"	"Silt; Silt; Silt"	"Grayish yellow green_Dark; Grayish yellow green_Dark; Grayish yellow green_Dark"	"Green_Dark; Green_Dark; Yellow green_Dark"	"Odorless; Odorless; Odorless"	"None; None; None"	"44.0; 42.0; 49.0 (Each) / 52.9 (Mixed)"	"9.5; 9.5; 10.0 (Each) / 8.3 (Mixed)"									"n=3 pooled: SAA009341, SAA009342, SAA009343"	2023/2/15	2023/2/15
PRA000125	SAA009589	ST023				Saga_sed1-123_2020	Sediment	"Marine sediment"	2020	10	28	"2020-10-28T11:26; T11:53; T12:03"			"Cloudy; Cloudy; Cloudy"	Asia	Japan	"Imari Bay, Saga"	33.34		129.8208333														"25.0; 22.0; 21.5"	"22.0; 21.5; 22.0"								"3.3; 3.5; 3.5"		"21.5; 21.5; 21.0"	"15.5; 14.5; 14.4"	"Mud; Mud; Mud"	"Grayish black; Grayish black; Grayish black"	"Clear; Clear; Clear"	"Earthy odor; Earthy odor; Earthy odor"	"None; None; None"	"68.3; 67.3; 66.3 (Each) / 64.9 (Mixed)"	"11.2; 11.5; 11.0 (Each) / 9.7 (Mixed)"									"n=3 pooled: SAA009344, SAA009345, SAA009346"	2023/2/15	2023/2/15
PRA000125	SAA009590	ST023				Nagasaki_sed1-123_2020	Sediment	"Marine sediment"	2020	11	5	"2020-11-05T10:35; T11:10; T11:50"			"Fair; Fair; Fair"	Asia	Japan	"Omura Bay, Nagasaki"	32.98833333		129.8522222														"18.5; 18.2; 19.6"	"20.5; 20.5; 20.5"								"6.0; 6.5; 5.0"		"20.8; 21.0; 21.6"	"19.2; 20.3; 19.8"	"Sand and mud; Sand and mud; Sand and mud"	"Grayish brown; Grayish brown; Grayish brown"	"Greenish blue_Light; Greenish blue_Light; Greenish blue_Light"	"Hydrogen sulfide odor_Faint; Hydrogen sulfide odor_Faint; Hydrogen sulfide odor_Faint"	"Seashell pieces; Seashell pieces; Seashell pieces"	"72.0; 70.0; 70.0 (Each) / 68.2 (Mixed)"	"13.0; 13.0; 13.0 (Each) / 12.4 (Mixed)"									"n=3 pooled"	2023/2/15	2023/2/15
PRA000125	SAA009591	ST024				Oita_sed1-123_2020	Sediment	"River sediment"	2020	10	26	"2020-10-26T09:44; T10:30; T11:18"			"Fair; Fair; Fair"	Asia	Japan	"Mouth of Riv. Oita, Oita"	33.25722222		131.6175														"19.6; 20.1; 18.9"	"19.6; 19.8; 20.7"										"21.2; 22.7; 22.9"	"1.5; 3.2; 3.4"	"Muddy sand; Sand; Sand"	"Black; Black; Black"	"Grayish green; Grayish green; Grayish green"	"Hydrogen sulfide odor; Odorless; Smell of dry grass"	"Shell, Gravels; Shell, Gravels, pieces of wood; Shell, Gravels, pieces of wood"	"19.9; 18.9; 18.1 (Each) / 20.6 (Mixed)"	"2.3; 1.6; 1.9 (Each) / 1.8 (Mixed)"									"n=3 pooled: SAA009347, SAA009348, SAA009349"	2023/2/15	2023/2/15
PRA000125	SAA009592	ST024				Miyazaki_sed1-123_2020	Sediment	"River sediment"	2020	10	28	"2020-10-26T10:33; T10:51; T11:22"			"Fair; Fair; Fair"	Asia	Japan	"Mouth of Riv. Oyodo (Miyazaki City), Miyazaki"	31.89611111		131.4402778														"23.0; 24.0; 24.0"	"18.8; 18.8; 19.0"										"19.5; 20.0; 21.0"	"0.44; 0.73; 0.79"	"Pebble, Sand; Pebble, Sand; Pebble, Sand"	"Grayish black_Light; Grayish black_Light; Grayish black_Light"	"Clear; Clear; Clear"	"Odorless; Odorless; Odorless"	"None; None; None"	"20.5; 16.4; 20.6 (Each) / 17.6 (Mixed)"	"1.4; 1.7; 1.6 (Each) / 1.3 (Mixed)"									"n=3 pooled"	2023/2/15	2023/2/15
PRA000125	SAA009593	ST024				Kagoshima_sed1-123_2020	Sediment	"River sediment"	2020	9	29	"2020-09-29T12:15; T11:20; T10:50"			"Fair; Fair; Fair"	Asia	Japan	"Riv. Amori (Kirishima City), Kagoshima"	31.7225		130.7416667														"25.2; 25.0; 25.6"	"20.2; 19.5; 20.4"										"20.7; 21.5; 21.8"	"1.0; 0.5; 1.0"	"Gravel; Gravel; Gravel"	"Blackish brown; Blackish brown; Blackish brown"	"Clear; Clear; Clear"	"Sewage odor_Faint; Earthy odor_Faint; Odorless"	"Pebbles; Pebbles; Pebbles"	"24.0; 22.0; 15.0 (Each) / 24.1 (Mixed)"	"1.6; 1.2; 1.1 (Each) / 1.1 (Mixed)"									"n=3 pooled"	2023/2/15	2023/2/15
PRA000125	SAA009594	ST024				Kagoshima_sed2-123_2020	Sediment	"River sediment"	2020	10	12	"2020-10-12T11:42; T11:13; T10:37"			"Fair; Fair; Fair"	Asia	Japan	"Gotanda-bashi Bridge, Riv. Gotanda (Ichikikushikino City), Kagoshima"	31.72583333		130.2769444														"25.6; 26.0; 24.9"	"24.6; 23.4; 22.2"										"23.7; 23.3; 23.0"	"0.3; 0.3; 0.3"	"Gravel; Gravel; Gravel"	"Brown; Brown; Brown"	"Clear; Clear; Clear"	"Earthy odor_Faint; Earthy odor_Faint; Earthy odor_Faint"	"Pebbles; Pebbles; Pebbles"	"19.0; 25.0; 24.0 (Each) / 24.7 (Mixed)"	"2.0; 1.6; 2.6 (Each) / 2.0 (Mixed)"									"n=3 pooled"	2023/2/15	2023/2/15
PRA000125	SAA009595	ST023				Okinawa_sed1-123_2020	Sediment	"Marine sediment"	2020	10	14	"2020-10-14T11:40; T12:42; T12:20"			"Fair; Fair; Fair"	Asia	Japan	"Naha Port, Okinawa"	26.21222222		127.665														"27.3; 30.8; 27.2"	"27.3; 27.8; 27.5"								"1.2; 1.5; 3.3"		"27.3; 27.3; 27.2"	"7.0; 9.0; 4.1"	"Sludge; Sludge; Sludge"	"Grayish black; Grayish black; Grayish black"	"Green; Green; Green"	"Hydrogen sulfide odor, Sewage odor; Hydrogen sulfide odor, Sewage odor; Hydrogen sulfide odor, Sewage odor"	"Vegetative pieces, Shellfish, Pebbles; Pebbles, Vegetative pieces, Vinyl pieces, Pieces of sponge; Pebbles, Shellfish, Vinyl pieces, Plastic pieces"	"39.2; 41.1; 33.6 (Each) / 49.2 (Mixed)"	"8.8; 10.1; 9.2 (Each) / 8.7  (Mixed)"									"n=3 pooled"	2023/2/15	2023/2/15
PRA000125	SAA009596	ST029				Hokkaido_air2-1_2020	Air	"Outside air"	2020	10	9	2020-10-02T12:01/2020-10-09T12:01		"7days (Oct. 02_09)"	"Fair / Fair"	Asia	Japan	"Kushiro General Subprefectural Bureau, Kushiro city, Hokkaido"	42.97666667		144.385														17.9/15.9																								74/64	SW/SW	3.1/6.3	"1008 m^3"	"Air Sampler: Middle Volume; Weather during 7-day sampling: Fair, Cloudy, Cloudy, Rain, Fair, Fair, Cloudy, Fair; Wind direction:SW, SSE, SSE, WSW, WNW, SW, N, SW; Wind speed: 3.1, 7.6, 5.7, 7.1, 4.7, 4.8, 2.2, 6.3"	2023/3/10	2023/3/10
PRA000125	SAA009603	ST029				SapporoCity_air1-123_2020H	Air	"Outside air"	2020	9		"2020-09-28/09-29; 09-29/09-30; 09-30/10-01"				Asia	Japan	"Sapporo Art Park, Sapporo city, Hokkaido"	42.93861111		141.3402778																																										"Air Sampler: High Volume; n=3 pooled: SAA009600, SAA009601, SAA009602"	2023/3/10	2023/3/10
PRA000125	SAA009610	ST029				Iwate_air1-123_2020H	Air	"Outside air"	2020	9		"2020-09-28/09-29; 09-29/09-30; 09-30/10-01"				Asia	Japan	"Sugo Air Pollution Monitoring Station, Takizawa city, Iwate"	39.78194444		141.1405556																																										"Air Sampler: High Volume; n=3 pooled: SAA009607, SAA009608, SAA009609"	2023/3/10	2023/3/10
PRA000125	SAA009614	ST029				Miyagi_air1-1_2020	Air	"Outside air"	2020	10	23	2020-10-16T11:10/2020-10-23T11:10		"7days (Oct. 16_23)"	"Fair / Rain"	Asia	Japan	"Miyagi Prefectural Institute of Public Health and Environment, Sendai City, Miyagi"	38.2775		140.9052778														15.6/17.3																								51/95	NW/SSE	1.8/3.0	"1008 m^3"	"Air Sampler: Middle Volume; Weather during 7-day sampling: Fair, Cloudy, Cloudy, Cloudy, Fair, Fair, Cloudy, Rain; Wind direction: NW, WSW, NE, SE, SSE, ESE, S, SSE; Wind speed: 1.8, 1.8, 1.4, 2.8, 1.9, 1.9, 2.4, 3.0"	2023/3/10	2023/3/10
PRA000125	SAA009618	ST029				Yamagata_air1-1_2020	Air	"Outside air"	2020	10	2	2020-09-25T09:56/2020-10-02T09:56		"7days (Sep. 25_Oct. 02)"	"Rain / Fair"	Asia	Japan	"Environmental Science Research Center of Yamagata Prefecture, Murayama city, Yamagata"	38.47361111		140.3988889														16.4/18.7																								97/63	NNW/W	3.5/1.2	"1008 m^3"	"Air Sampler: Middle Volume; Weather during 7-day sampling: Rain, Cloudy, Cloudy, Rain, Fair, Fair, Cloudy, Fair; Wind direction: NNW, E, S, NNE, WSW, WSW, SSE, W; Wind speed: 3.5, 0.3, 0.7, 2.0, 1.1, 1.0, 0.6, 1.2"	2023/3/10	2023/3/10
PRA000125	SAA009622	ST029				Ibaraki_air1-7_2020	Air	"Outside air"	2020	10	6	2020-09-29T10:05/2020-10-06T10:15		"7days (Sep. 29_Oct. 06)"	"Fair / Fair"	Asia	Japan	"Ibaraki Kasumigaura Environmental Science Center, Tsuchiura city, Ibaraki"	36.07555556		140.2666667														20.8/20.9																								67/55	NE/N	3.0/1.7	"1009 m^3"	"Air Sampler: Middle Volume; Weather during 7-day sampling: Fair, Fair, Rain, Fair, Fair, Cloudy, Rain, Fair; Wind direction: NE, NE, NNE, NE, S, SW, SW, N; Wind speed: 3.0, 2.3, 1.7, 1.2, 1.4, 0.7, 1.4, 1.7"	2023/3/10	2023/3/10
PRA000125	SAA009626	ST029				Chiba_air2-1_2020	Air	"Outside air"	2020	10	12	2020-10-05T10:00/2020-10-12T10:00		"7days (Oct. 05_12)"	"Cloudy / Cloudy"	Asia	Japan	"Ichiharamatsuzaki Air Pollution Monitoring Station, Ichihara city, Chiba"	35.44861111		140.1363889														25.4/20.5																								68/92	SW/N	2.0/3.6	"1008 m^3"	"Air Sampler: Middle Volume; Weather during 7-day sampling: Cloudy, Fair, Fair, Rain, Rain, Rain, Cloudy, Coudy; Wind direction: SW, NNE, NNE, N, NNE, NNE, N, N; Wind speed: 2.0, 3.2, 5.4, 6.3, 4.3, 4.0, 5.4, 3.6"	2023/3/10	2023/3/10
PRA000125	SAA009630	ST029				Tokyo_air1-7_2020	Air	"Outside air"	2020	10	23	2020-10-16T10:00/2020-10-23T10:05		"7days (Oct. 16_23)"	"Fair / Rain"	Asia	Japan	"Tokyo Metropolitan Research Institute for Environmental Protection, Koto Ward, Tokyo"	35.66833333		139.8241667														15.8/17.2																								58/99	NNE/NW	3.2/1.8	"1013 m^3"	"Air Sampler: Middle Volume; Weather during 7-day sampling: Fair, Rain, Cloudy, Cloudy, Cloudy, Fair, Fair, Rain; Wind direction: NNE, NNW, NNW, NNW, NNW, NNE, NNW, NW; Wind speed: 3.2, 1.7, 2.6, 2.7, 2.4, 2.3, 2.9, 1.8"	2023/3/10	2023/3/10
PRA000125	SAA009634	ST029				Tokyo_air2-7_2020	Air	"Outside air"	2020	10	11	2020-10-04T10:00/2020-10-11T09:40		"7days (Oct. 04_11)"	"Cloudy / Cloudy"	Asia	Japan	"Ogasawara Chichijima, Ogasawara Village, Tokyo"	27.09361111		142.2161111														29.1/28.8																								90/78	NE/NW	3.2/2.8	"1012 m^3"	"Air Sampler: Middle Volume; Weather during 7-day sampling: Cloudy, Rain, Rain, Cloudy, Fair, Fair, Fair, Cloudy; Wind direction: NE, SSE, ESE, SE, SE, E, SE, NW; Wind speed: 3.2, 2.9, 4.9, 9.3, 6.6, 3.4, 1.9, 2.8"	2023/3/10	2023/3/10
PRA000125	SAA009641	ST029				Kanagawa_air1-789_2020H	Air	"Outside air"	2020	10		"2020-10-05/10-06; 10-06/10-07; 10-07/10-08"				Asia	Japan	"Kanagawa Environmental Research Center, Hiratsuka City, Kanagawa"	35.3475		139.3513889																																										"Air Sampler: High Volume; n=3 pooled: SAA009638, SAA009639, SAA009640"	2023/3/10	2023/3/10
PRA000125	SAA009645	ST029				YokohamaCity_air1-4_2020	Air	"Outside air"	2020	10	26	2020-10-19T09:53/2020-10-26T09:57		"7days (Oct. 19_26)"	"Cloudy / Fair"	Asia	Japan	"Yokohama Environmental Research Institute, Yokohama city, Kanagawa"	35.48111111		139.6580556														17.6/20.9																								68/55	N/N	3.7/1.8	"1008 m^3"	"Air Sampler: Middle Volume; Weather during 7-day sampling: Cloudy, Fair, Fair, Fair, Rain, Cloudy, Fair, Fair; Wind direction: N, N, NNE, N, N, N, N, N; Wind speed: 3.7, 5.1, 3.1, 2.9, 2.0, 3.4, 3.7, 1.8"	2023/3/10	2023/3/10
PRA000125	SAA009652	ST029				Niigata_air1-123_2020H	Air	"Outside air"	2020	9		"2020-09-14/09-15; 09-15/09-16; 09-16/09-17"				Asia	Japan	"Oyama Air Pollution Monitoring Station, Niigata city, Niigata"	37.93611111		139.0794444																																										"Air Sampler: High Volume; n=3 pooled: SAA009649, SAA009650, SAA009651"	2023/3/10	2023/3/10
PRA000125	SAA009659	ST029				Toyama_air1-123_2020H	Air	"Outside air"	2020	9		"2020-09-15/09-16; 09-16/09-17; 09-17/09-18"				Asia	Japan	"Tonami Air Pollution Monitoring Station, Tonami city, Toyama"	36.62888889		136.9886111																																										"Air Sampler: High Volume; n=3 pooled: SAA009656, SAA009657, SAA009658"	2023/3/10	2023/3/10
PRA000125	SAA009666	ST029				Ishikawa_air1-789_2020H	Air	"Outside air"	2020	9		"2020-09-14/09-15; 09-15/09-16; 09-16/09-17"				Asia	Japan	"Ishikawa Prefectural Institute of Public Health and Environmental Science, Kanazawa City, Ishikawa"	36.52722222		136.7055556																																										"Air Sampler: High Volume; n=3 pooled: SAA009663, SAA009664, SAA009665"	2023/3/10	2023/3/10
PRA000125	SAA009673	ST029				Yamanashi_air1-123_2020H	Air	"Outside air"	2020	9		"2020-09-14/09-15; 09-15/09-16; 09-16/09-17"				Asia	Japan	"Yamanashi Institute of Public Health and Environment, Kofu city, Yamanashi"	35.67194444		138.5497222																																										"Air Sampler: High Volume; n=3 pooled: SAA009670, SAA009671, SAA009672"	2023/3/10	2023/3/10
PRA000125	SAA009677	ST029				Nagano_air1-7_2020	Air	"Outside air"	2020	10	27	2020-10-20T10:01/2020-10-27T10:00		"7days (Oct. 20_27)"	"Fair / Fair"	Asia	Japan	"Nagano Environmental Conservation Research Institute, Nagano City, Nagano"	36.63555556		138.1786111														13.6/12.0																								72/75	SSW/ESE	1.9/1.0	"1008 m^3"	"Air Sampler: Middle Volume; Weather during 7-day sampling: Fair, Fair, Cloudy, Rain, Fair, Fair, Cloudy, Fair; Wind direction: SSW, WSW, SW, W, SE, S, SSW, ESE; Wind speed: 1.9, 5.5, 4.2, 2.1, 1.5, 1.4, 1.7, 1.0"	2023/3/10	2023/3/10
PRA000125	SAA009684	ST029				Gifu_air1-123_2020H	Air	"Outside air"	2020	10		"2020-10-12/10-13; 10-13/10-14; 10-14/10-15"				Asia	Japan	"Gifu Prefectural Research Institute for Health and Environmental Sciences, Kakamigahara city, Gifu"	35.4075		136.8447222																																										"Air Sampler: High Volume; n=3 pooled: SAA009681, SAA009682, SAA009683"	2023/3/10	2023/3/10
PRA000125	SAA009688	ST029				NagoyaCity_air1-4_2020	Air	"Outside air"	2020	9	15	2020-09-08T10:39/2020-09-15T10:36		"7days (Sep. 08_15)"	"Fair, Cloudy, occasionally rain / Fair, occasionally slightly cloudy"	Asia	Japan	"Chikusa-ku Heiwakoen Park, Nagoya City, Aichi"	35.17055556		136.9788889														27.4/24.2																								77/66	SSE/NNE	4.7/2.4	"1007 m^3"	"Air Sampler: Middle Volume; Weather during 7-day sampling: Fair Cloudy occasionally Rain, Fair Cloudy occasionally Rain,, Cloudy occasionally Rain, Coudy occasionally Rain, Fair occasionally cloudy, Rain Cloudy later, Slightly Cloudy occasionally Fair, Fair occasionally slightly Cloudy; Wind direction: SSE, SW, SSE, SSE, WSW, NW, WNW, NNE; Wind speed: 4.7, 2.1, 2.1, 2.0, 2.5, 2.9, 3.9, 2.4"	2023/3/10	2023/3/10
PRA000125	SAA009695	ST029				Mie_air1-789_2020H	Air	"Outside air"	2020	9		"2020-09-14/09-15; 09-15/09-16; 09-16/09-17"				Asia	Japan	"Mie Prefecture Health and Environment Research Institute, Yokkaichi city, Mie"	34.99166667		136.4855556																																										"Air Sampler: High Volume; n=3 pooled: SAA009692, SAA009693, SAA009694"	2023/3/10	2023/3/10
PRA000125	SAA009702	ST029				Osaka_air1-345_2020H	Air	"Outside air"	2020	10		"2020-10-12/10-13; 10-13/10-14; 10-14/10-15"				Asia	Japan	"Osaka Joint government building No.2 Annex, Osaka city, Osaka"	34.6825		135.5191667																																										"Air Sampler: High Volume; n=3 pooled: SAA009699, SAA009700, SAA009701"	2023/3/10	2023/3/10
PRA000125	SAA009709	ST029				Hyogo_air1-123_2020H	Air	"Outside air"	2020	9		"2020-09-28/09-29; 09-29/09-30; 09-30/10-01"				Asia	Japan	"Hyogo Prefectural Institute of Environmental Sciences, Kobe city, Hyogo"	34.64916667		135.1316667																																										"Air Sampler: High Volume; n=3 pooled: SAA009706, SAA009707, SAA009708"	2023/3/10	2023/3/10
PRA000125	SAA009716	ST029				KobeCity_air1-123_2020H	Air	"Outside air"	2020	10		"2020-10-26/10-27; 10-27/10-28; 10-28/10-29"				Asia	Japan	"Public Health Research Institute of Kobe City, Kobe city, Hyogo"	34.67861111		135.2105556																																										"Air Sampler: High Volume; n=3 pooled: SAA009713; SAA009714; SAA009715"	2023/3/10	2023/3/10
PRA000125	SAA009723	ST029				Nara_air1-123_2020H	Air	"Outside air"	2020	10		"2020-10-26/10-27; 10-27/10-28; 10-28/10-29"				Asia	Japan	"Tenri Air Pollution Monitoring Station, Tenri city, Nara"	34.59333333		135.8291667																																										"Air Sampler: High Volume; n=3 pooled: SAA009720, SAA009721, SAA009722"	2023/3/10	2023/3/10
PRA000125	SAA009730	ST029				Shimane_air1-123_2020H	Air	"Outside air"	2020	10		"2020-10-19/10-20; 10-20/10-21; 10-21/10-22"				Asia	Japan	"Oki Acid Rain Monitoring Station, Okinoshima town, Shimane"	36.28833333		133.1825																																										"Air Sampler: High Volume; n=3 pooled: SAA009727, SAA009728, SAA009729"	2023/3/10	2023/3/10
PRA000125	SAA009737	ST029				HiroshimaCity_air1-123_2020H	Air	"Outside air"	2020	10		"2020-10-19/10-20; 10-20/10-21; 10-21/10-22"				Asia	Japan	"Kokutaiji Junior high school, Hiroshima city, Hiroshima"	34.38472222		132.4580556																																										"Air Sampler: High Volume; n=3 pooled: SAA009734, SAA009735, SAA009736"	2023/3/10	2023/3/10
PRA000125	SAA009741	ST029				Yamaguchi_air1-7_2020	Air	"Outside air"	2020	9	15	2020-09-08T10:00/2020-09-15T10:00		"7days (Sep. 08_15)"	"Fair / Fair"	Asia	Japan	"Yamaguchi Prefectural Institute of Public Health and Environment, Yamaguchi City, Yamaguchi"	34.15277778		131.4333333														29.1/24.8																								56/65	S/WNW	3.7/1.3	"1008 m^3"	"Air Sampler: Middle Volume; Weather during 7-day sampling: Fair, Cloudy, Fair, Rain, Rain, Cloudy, Cloudy, Fair; Wind direction: S, NNW, NNW, SSW, SSE, NE, ENE, WNW; Wind speed: 3.7, 0.5, 0.8, 0.4, 2.2, 3.6, 2.6, 1.3"	2023/3/10	2023/3/10
PRA000125	SAA009745	ST029				Yamaguchi_air3-1_2020	Air	"Outside air"	2020	11	27	2020-11-20T10:00/2020-11-27T10:00		"7days (Nov. 20_27)"	"Cloudy / Cloudy"	Asia	Japan	"Hagi Health and Welfare Center, Hagi city, Yamaguchi"	34.40848		131.39581														18.7/13.8																								68/83	SW/S	2.7/2.7	"1008 m^3"	"Air Sampler: Middle Volume; Weather during 7-day sampling: Cloudy, Cloudy, Fair, Fair, Fair, Cloudy, Fair, Cloudy; Wind direction: SW, NNE, SSE, NW, S, S, WSW, S; Wind speed: 2.7, 4.2, 4.0, 2.7, 2.4, 3.5, 0.8, 2.7"	2023/3/10	2023/3/10
PRA000125	SAA009752	ST029				Tokushima_air1-789_2020H	Air	"Outside air"	2020	10		"2020-10-19/10-20; 10-20/10-21; 10-21/10-22"				Asia	Japan	"Tokushima Prefectural Public health, Pharmaceutical and Environmental Sciences Center, Tokushima city, Tokushima"	34.07		134.5608333																																										"Air Sampler: High Volume; n=3 pooled: SAA009749, SAA009750, SAA009751"	2023/3/10	2023/3/10
PRA000125	SAA009756	ST029				Kagawa_air2-7_2020	Air	"Outside air"	2020	10	21	2020-10-14T10:00/2020-10-21T10:00		"7days (Oct. 14_21)"	"Fair / Fair"	Asia	Japan	"Kagawa Prefectural Research Institute for Environmental Sciences and Public Health, Takamatsu city, Kagawa"	34.35027778		134.0744444														22.0/20.3																								63/66	SW/E	1.3/2.0	"1008 m^3"	"Air Sampler: Middle Volume; Weather during 7-day sampling: Fair, Fair, Slightly Cloudy, Rain, Cloudy, Rain, Fair, fair; Wind direction: SW, E, NNE, W, WSW, NE, NNE, E; Wind speed: 1.3, 1.7, 1.4, 1.1, 1.8, 0.6, 1.0, 2.0"	2023/3/10	2023/3/10
PRA000125	SAA009760	ST029				Kagawa_air1-1_2020	Air	"Outside air"	2020	10	21	2020-10-14T10:00/2020-10-21T10:00		"7days (Oct. 14_21)"	"Fair / Fair"	Asia	Japan	"Kagawa Pref. Synthesis Swimming Pool, Takamatsu City, Kagawa"	34.30861111		133.9802778														22.0/20.3																								63/66	SW/E	1.3/2.0	"1008 m^3"	"Air Sampler: Middle Volume; Weather during 7-day sampling: Fair, Fair, Slightly Cloudy, Rain, Cloudy, Rain, Fair, fair; Wind direction: SW, E, NNE, W, WSW, NE, NNE, E; Wind speed: 1.3, 1.7, 1.4, 1.1, 1.8, 0.6, 1.0, 2.0"	2023/3/10	2023/3/10
PRA000125	SAA009767	ST029				Ehime_air1-123_2020H	Air	"Outside air"	2020	10		"2020-10-05/10-06; 10-06/10-07; 10-07/10-08"				Asia	Japan	"Nanyo General Subprefectural Bureau, Uwajima city, Ehime"	33.22722222		132.57																																										"Air Sampler: High Volume; n=3 pooled: SAA009764, SAA009765, SAA009766"	2023/3/10	2023/3/10
PRA000125	SAA009774	ST029				Fukuoka_air1-789_2020H	Air	"Outside air"	2020	10		"2020-10-20/10-21; 10-21/10-22; 10-22/10-23"				Asia	Japan	"Omuta municipal office, Omuta city, Fukuoka"	33.03027778		130.4458333																																										"Air Sampler: High Volume; n=3 pooled: SAA009771, SAA009772, SAA009773"	2023/3/10	2023/3/10
PRA000125	SAA009778	ST029				Saga_air1-7_2020	Air	"Outside air"	2020	9	16	2020-09-09T09:57/2020-09-16T09:57		"7days (Sep. 09_16)"	"Fair / Rain"	Asia	Japan	"Saga Prefectural Environmental Research Center, Saga city, Saga"	33.27333333		130.2727778														25.0/23.2																								75/96	ENE/E	2.0/0.4	"1008 m^3"	"Air Sampler: Middle Volume; Weather during 7-day sampling: Fair, Fair, Fair, Rain, Fair, Cloudy, Fair, Rain; Wind direction: ENE, ENE, NNE, ENE, NW, NNE, ENE, E; Wind speed: 2.0, 0.6, 0.8, 2.6, 1.8, 4.1, 1.6, 0.4"	2023/3/10	2023/3/10
PRA000125	SAA009785	ST029				Kumamoto_air1-123_2020H	Air	"Outside air"	2020	10		"2020-10-26/10-27; 10-27/10-28; 10-28/10-29"				Asia	Japan	"Kumamoto Prefectural Institute of Public-Health and Environmental Science, Uto city, Kumamoto"	32.66583333		130.6530556																																										"Air Sampler: High Volume; n=3 pooled: SAA009782, SAA009783, SAA009784"	2023/3/10	2023/3/10
PRA000125	SAA009789	ST029				Miyazaki_air1-1_2020	Air	"Outside air"	2020	10	12	2020-10-05T10:08/2020-10-12T10:08		"7days (Oct. 05_12)"	"Rain / Fair"	Asia	Japan	"Miyazaki Prefectural Institute for Public Health and Environment, Miyazaki city, Miyazaki"	31.83305556		131.4152778														25.0/24.3																								73/71	WNW/ESE	2.7/1.5	"1008 m^3"	"Air Sampler: Middle Volume; Weather during 7-day sampling: Rain, Fair, Fair, Cloudy, Cloudy, Fair, Cloudy, Fair; Wind direction: WNW, ENE, W, NNE, NE, SW, ENE, ESE; Wind speed: 2.7, 2.1, 2.0, 8.4, 4.6, 1.5, 2.7, 1.5"	2023/3/10	2023/3/10
PRA000125	SAA009796	ST029				Kagoshima_air1-123_2020H	Air	"Outside air"	2020	10		"2020-10-19/10-20; 10-20/10-21; 10-21/10-22"				Asia	Japan	"Kagoshima Prefectural Institute for Environmental Research and Public Health, Kagoshima city, Kagoshima"	31.58444444		130.5644444																																										"Air Sampler: High Volume; n=3 pooled: SAA009793, SAA009794, SAA009795"	2023/3/10	2023/3/10
PRA000125	SAA009803	ST029				Okinawa_air1-123_2020H	Air	"Outside air"	2020	9		"2020-09-28/09-29; 09-29/09-30; 09-30/10-01"				Asia	Japan	"Cape Hedo-misaki, Kunigami villedge, Okinawa"	26.87		128.25																																										"Air Sampler: High Volume; n=3 pooled: SAA009800, SAA009801, SAA009802"	2023/3/10	2023/3/10
PRA000127	SAA009950	ST009	29158			HR-1M	"Mytilus galloprovincialis"	"Blue mussel"	2017	11	7					Asia	Japan	"Otake city, Horoshima"	34.24083333		132.2330556			"Whole soft tissues"	0.88																																							2025/02/14	2025/02/14
PRA000127	SAA009951	ST009	29158			HR-2M	"Mytilus galloprovincialis"	"Blue mussel"	2017	11	7					Asia	Japan	"Hatsukaichi city, Horoshima"	34.30638889		132.32			"Whole soft tissues"	0.84																																							2025/02/14	2025/02/14
PRA000127	SAA009952	ST009	29158			HR-3M	"Mytilus galloprovincialis"	"Blue mussel"	2017	11	7					Asia	Japan	"Hatsukaichi city, Horoshima"	34.3575		132.3386111			"Whole soft tissues"	0.64																																							2025/02/14	2025/02/14
PRA000127	SAA009953	ST009	29158			HR-4M	"Mytilus galloprovincialis"	"Blue mussel"	2017	11	7					Asia	Japan	"Etajima city, Horoshima"	34.26666667		132.4088889			"Whole soft tissues"	0.77																																							2025/02/14	2025/02/14
PRA000127	SAA009954	ST009	29158			HR-5M	"Mytilus galloprovincialis"	"Blue mussel"	2017	11	7					Asia	Japan	"Hiroshima city, Horoshima"	34.34305556		132.465			"Whole soft tissues"	1.1																																							2025/02/14	2025/02/14
PRA000127	SAA009955	ST009	29158			EH-1M	"Mytilus galloprovincialis"	"Blue mussel"	2017	10	30					Asia	Japan	"Iyo City, Ehime"	33.75		132.6697222			"Whole soft tissues"	1.6																																							2025/02/14	2025/02/14
PRA000127	SAA009956	ST009	121615			EH-1O	"Crassostrea nippona"	Oyster	2017	10	30					Asia	Japan	"Iyo City, Ehime"	33.75		132.6697222			"Whole soft tissues"	1.6																																							2025/02/14	2025/02/14
PRA000127	SAA009957	ST009	29158			EH-2M	"Mytilus galloprovincialis"	"Blue mussel"	2017	11	8					Asia	Japan	"Matsuyama City, Ehime"	33.8525		132.7077778			"Whole soft tissues"	1.2																																							2025/02/14	2025/02/14
PRA000127	SAA009958	ST009	29158			EH-3M	"Mytilus galloprovincialis"	"Blue mussel"	2017	11	8					Asia	Japan	"Matsuyama City, Ehime"	33.89111111		132.7252778			"Whole soft tissues"	0.66																																							2025/02/14	2025/02/14
PRA000127	SAA009959	ST009	42192			EH-4M	"Mytilus coruscus"	Mussel	2017	11	8					Asia	Japan	"Imabari City, Ehime"	34.09277778		133.0197222			"Whole soft tissues"	0.68																																							2025/02/14	2025/02/14
PRA000127	SAA009960	ST009	42192			EH-5M	"Mytilus coruscus"	Mussel	2017	11	8					Asia	Japan	"Niihama City, Ehime"	33.97277778		133.2977778			"Whole soft tissues"	2.7																																							2025/02/14	2025/02/14
PRA000127	SAA009961	ST009	42192			EH-6M	"Mytilus coruscus"	Mussel	2017	11	8					Asia	Japan	"Shikokuchuo City, Ehime"	34.02444444		133.5805556			"Whole soft tissues"	2.7																																							2025/02/14	2025/02/14
PRA000127	SAA009962	ST009	121615			OK-1O	"Crassostrea nippona"	Oyster	2017	11	30					Asia	Japan	"Kurashiki City, Okayama"	34.52777778		133.6561111			"Whole soft tissues"	1.9																																							2025/02/14	2025/02/14
PRA000127	SAA009963	ST009	121615			OK-2O	"Crassostrea nippona"	Oyster	2017	11	30					Asia	Japan	"Kurashiki City, Okayama"	34.52138889		133.6938889			"Whole soft tissues"	0.38																																							2025/02/14	2025/02/14
PRA000127	SAA009964	ST009	121615			OK-3O	"Crassostrea nippona"	Oyster	2017	11	30					Asia	Japan	"Okayama City, Okayama"	34.60305556		133.9883333			"Whole soft tissues"	1.7																																							2025/02/14	2025/02/14
PRA000127	SAA009965	ST009	42192			KG-1M	"Mytilus coruscus"	Mussel	2017	11	29					Asia	Japan	"Utazu Town, Kagawa"	34.32833333		133.84			"Whole soft tissues"	1.8																																							2025/02/14	2025/02/14
PRA000127	SAA009966	ST009	42192			KG-2M	"Mytilus coruscus"	Mussel	2017	11	29					Asia	Japan	"Sakaide City, Kagawa"	34.37138889		133.8763889			"Whole soft tissues"	1.3																																							2025/02/14	2025/02/14
PRA000127	SAA009967	ST009	121615			KG-2O	"Crassostrea nippona"	Oyster	2017	11	29					Asia	Japan	"Sakaide City, Kagawa"	34.37138889		133.8763889			"Whole soft tissues"	1.3																																							2025/02/14	2025/02/14
PRA000127	SAA009968	ST009	121615			KG-3O	"Crassostrea nippona"	Oyster	2017	11	29					Asia	Japan	"Takamatsu City, Kagawa"	34.34777778		134.0711111			"Whole soft tissues"	0.87																																							2025/02/14	2025/02/14
PRA000127	SAA009969	ST009	29158			HY-1M	"Mytilus galloprovincialis"	"Blue mussel"	2017	11	29					Asia	Japan	"Himeji City, Hyogo"	34.77916667		134.5997222			"Whole soft tissues"	1.4																																							2025/02/14	2025/02/14
PRA000127	SAA009970	ST009	121615			HY-2O	"Crassostrea nippona"	Oyster	2017	11	29					Asia	Japan	"Himeji City, Hyogo"	34.79888889		134.6608333			"Whole soft tissues"	1.1																																							2025/02/14	2025/02/14
PRA000127	SAA009971	ST009	121615			HY-3O	"Crassostrea nippona"	Oyster	2017	11	29					Asia	Japan	"Minamiawaji City, Hyogo"	34.32027778		134.7183333			"Whole soft tissues"	0.65																																							2025/02/14	2025/02/14
PRA000127	SAA009972	ST009	29158			HY-5M	"Mytilus galloprovincialis"	"Blue mussel"	2017	11	30					Asia	Japan	"Kobe City, Hyogo"	34.62277778		135.0638889			"Whole soft tissues"	1.1																																							2025/02/14	2025/02/14
PRA000127	SAA009973	ST009	121615			HY-5O	"Crassostrea nippona"	Oyster	2017	11	30					Asia	Japan	"Kobe City, Hyogo"	34.62277778		135.0638889			"Whole soft tissues"	0.78																																							2025/02/14	2025/02/14
PRA000127	SAA009974	ST009	121615			HY-6O	"Crassostrea nippona"	Oyster	2017	11	29					Asia	Japan	"Kobe City, Hyogo"	34.67833333		135.1861111			"Whole soft tissues"	0.61																																							2025/02/14	2025/02/14
PRA000127	SAA009975	ST009	121615			OS-1O	"Crassostrea nippona"	Oyster	2017	11	30					Asia	Japan	"Osaka City, Osaka"	34.69305556		135.4075			"Whole soft tissues"	0.82																																							2025/02/14	2025/02/14
PRA000127	SAA009976	ST009	1289581			OS-2M	"Xenostrobus securis"	"Small brown mussel"	2017	11	30					Asia	Japan	"Osaka City, Osaka"	34.665		135.4483333			"Whole soft tissues"	0.55																																							2025/02/14	2025/02/14
PRA000127	SAA009977	ST009	121615			OS-3O	"Crassostrea nippona"	Oyster	2019	7	16					Asia	Japan	"Izumisano City, Osaka"	34.42944444		135.3194444			"Whole soft tissues"	0.99																																							2025/02/14	2025/02/14
PRA000127	SAA009978	ST009	121615			OS-4O	"Crassostrea nippona"	Oyster	2019	7	16					Asia	Japan	"Sennan City, Osaka"	34.32166667		135.1294444			"Whole soft tissues"	1.3																																							2025/02/14	2025/02/14
PRA000127	SAA009979	ST009	121615			OS-5O	"Crassostrea nippona"	Oyster	2019	7	17					Asia	Japan	"Osaka City, Osaka"	34.61361111		135.4441667			"Whole soft tissues"	2.4																																							2025/2/14	2025/2/14
